[[{"header":{"parameterUnit":"m.s-1","parameterCategory":1,"la1":30.6,"la2":28.766,"lo1":-90.7593,"lo2":-88.6598,"dy":0.0162,"dx":0.0183,"nx":116,"ny":114,"refTime":"2023-09-27T00:00:00:Z","depth":0,"parameterNumber":2,"parameterNumberName":"U-component_of_WINDS"},"data":[0.0,0.0,0.0,0.0,0.0,0.0,0.0,0.0,0.0,0.0,0.0,0.0,0.0,0.0,0.0,0.0,0.0,0.0,0.0,0.0,0.0,0.0,0.0,0.0,0.0,0.0,0.0,0.0,0.0,0.0,0.0,0.0,0.0,0.0,0.0,0.0,0.0,0.0,0.0,0.0,0.0,0.0,0.0,0.0,0.0,0.0,0.0,0.0,0.0,0.0,0.0,0.0,0.0,0.0,0.0,0.0,0.0,0.0,0.0,0.0,0.0,0.0,0.0,0.0,0.0,0.0,0.0,0.0,0.0,0.0,0.0,0.0,0.0,0.0,0.0,0.0,0.0,0.0,0.0,0.0,0.0,0.0,0.0,0.0,0.0,0.0,0.0,0.0,0.0,0.0,0.0,0.0,0.0,0.0,0.0,0.0,0.0,0.0,0.0,0.0,0.0,0.0,0.0,0.0,0.0,0.0,0.0,0.0,0.0,0.0,0.0,0.0,0.0,0.0,0.0,0.0,0.0,0.0,0.0,0.0,0.0,0.0,0.0,0.0,0.0,0.0,0.0,0.0,0.0,0.0,0.0,0.0,0.0,0.0,0.0,0.0,0.0,0.0,0.0,0.0,0.0,0.0,0.0,0.0,0.0,0.0,0.0,0.0,0.0,0.0,0.0,0.0,0.0,0.0,0.0,0.0,0.0,0.0,0.0,0.0,0.0,0.0,0.0,0.0,0.0,0.0,0.0,0.0,0.0,0.0,0.0,0.0,0.0,0.0,0.0,0.0,0.0,0.0,0.0,0.0,0.0,0.0,0.0,0.0,0.0,0.0,0.0,0.0,0.0,0.0,0.0,0.0,0.0,0.0,0.0,0.0,0.0,0.0,0.0,0.0,0.0,0.0,0.0,0.0,0.0,0.0,0.0,0.0,0.0,0.0,0.0,0.0,0.0,0.0,0.0,0.0,0.0,0.0,0.0,0.0,0.0,0.0,0.0,0.0,0.0,0.0,0.0,0.0,0.0,0.0,0.0,0.0,0.0,0.0,0.0,0.0,0.0,0.0,0.0,0.0,0.0,0.0,0.0,0.0,0.0,0.0,0.0,0.0,0.0,0.0,0.0,0.0,0.0,0.0,0.0,0.0,0.0,0.0,0.0,0.0,0.0,0.0,0.0,0.0,0.0,0.0,0.0,0.0,0.0,0.0,0.0,0.0,0.0,0.0,0.0,0.0,0.0,0.0,0.0,0.0,0.0,0.0,0.0,0.0,0.0,0.0,0.0,0.0,0.0,0.0,0.0,0.0,0.0,0.0,0.0,0.0,0.0,0.0,0.0,0.0,0.0,0.0,0.0,0.0,0.0,0.0,0.0,0.0,0.0,0.0,0.0,0.0,0.0,0.0,0.0,0.0,0.0,0.0,0.0,0.0,0.0,0.0,0.0,0.0,0.0,0.0,0.0,0.0,0.0,0.0,0.0,0.0,0.0,0.0,0.0,0.0,0.0,0.0,0.0,0.0,0.0,0.0,0.0,0.0,0.0,0.0,0.0,0.0,0.0,0.0,0.0,0.0,0.0,0.0,0.0,0.0,0.0,0.0,0.0,0.0,0.0,0.0,0.0,0.0,0.0,0.0,0.0,0.0,0.0,0.0,0.0,0.0,0.0,0.0,0.0,0.0,0.0,0.0,0.0,0.0,0.0,0.0,0.0,0.0,0.0,0.0,0.0,0.0,0.0,0.0,0.0,0.0,0.0,0.0,0.0,0.0,0.0,0.0,0.0,0.0,0.0,0.0,0.0,0.0,0.0,0.0,0.0,0.0,0.0,0.0,0.0,0.0,0.0,0.0,0.0,0.0,0.0,0.0,0.0,0.0,0.0,0.0,0.0,0.0,0.0,0.0,0.0,0.0,0.0,0.0,0.0,0.0,0.0,0.0,0.0,0.0,0.0,0.0,0.0,0.0,0.0,0.0,0.0,0.0,0.0,0.0,0.0,0.0,0.0,0.0,0.0,0.0,0.0,0.0,0.0,0.0,0.0,0.0,0.0,0.0,0.0,0.0,0.0,0.0,0.0,0.0,0.0,0.0,0.0,0.0,0.0,0.0,0.0,0.0,0.0,0.0,0.0,0.0,0.0,0.0,0.0,0.0,0.0,0.0,0.0,0.0,0.0,0.0,0.0,0.0,0.0,0.0,0.0,0.0,0.0,0.0,0.0,0.0,0.0,0.0,0.0,0.0,0.0,0.0,0.0,0.0,0.0,0.0,0.0,0.0,0.0,0.0,0.0,0.0,0.0,0.0,0.0,0.0,0.0,0.0,0.0,0.0,0.0,0.0,0.0,0.0,0.0,0.0,0.0,0.0,0.0,0.0,0.0,0.0,0.0,0.0,0.0,0.0,0.0,0.0,0.0,0.0,0.0,0.0,0.0,0.0,0.0,0.0,0.0,0.0,0.0,0.0,0.0,0.0,0.0,0.0,0.0,0.0,0.0,0.0,0.0,0.0,0.0,0.0,0.0,0.0,0.0,0.0,0.0,0.0,0.0,0.0,0.0,0.0,0.0,0.0,0.0,0.0,0.0,0.0,0.0,0.0,0.0,0.0,0.0,0.0,0.0,0.0,0.0,0.0,0.0,0.0,0.0,0.0,0.0,0.0,0.0,0.0,0.0,0.0,0.0,0.0,0.0,0.0,0.0,0.0,0.0,0.0,0.0,0.0,0.0,0.0,0.0,0.0,0.0,0.0,0.0,0.0,0.0,0.0,0.0,0.0,0.0,0.0,0.0,0.0,0.0,0.0,0.0,0.0,0.0,0.0,0.0,0.0,0.0,0.0,0.0,0.0,0.0,0.0,0.0,0.0,0.0,0.0,0.0,0.0,0.0,0.0,0.0,0.0,0.0,0.0,0.0,0.0,0.0,0.0,0.0,0.0,0.0,0.0,0.0,0.0,0.0,0.0,0.0,0.0,0.0,0.0,0.0,0.0,0.0,0.0,0.0,0.0,0.0,0.0,0.0,0.0,0.0,0.0,0.0,0.0,0.0,0.0,0.0,0.0,0.0,0.0,0.0,0.0,0.0,0.0,0.0,0.0,0.0,0.0,0.0,0.0,0.0,0.0,0.0,0.0,0.0,0.0,0.0,0.0,0.0,0.0,0.0,0.0,0.0,0.0,0.0,0.0,0.0,0.0,0.0,0.0,0.0,0.0,0.0,0.0,0.0,0.0,0.0,0.0,0.0,0.0,0.0,0.0,0.0,0.0,0.0,0.0,0.0,0.0,0.0,0.0,0.0,0.0,0.0,0.0,0.0,0.0,0.0,0.0,0.0,0.0,0.0,0.0,0.0,0.0,0.0,0.0,0.0,0.0,0.0,0.0,0.0,0.0,0.0,0.0,0.0,0.0,0.0,0.0,0.0,0.0,0.0,0.0,0.0,0.0,0.0,0.0,0.0,0.0,0.0,0.0,0.0,0.0,0.0,0.0,0.0,0.0,0.0,0.0,0.0,0.0,0.0,0.0,0.0,0.0,0.0,0.0,0.0,0.0,0.0,0.0,0.0,0.0,0.0,0.0,0.0,0.0,0.0,0.0,0.0,0.0,0.0,0.0,0.0,0.0,0.0,0.0,0.0,0.0,0.0,0.0,0.0,0.0,0.0,0.0,0.0,0.0,0.0,0.0,0.0,0.0,0.0,0.0,0.0,0.0,0.0,0.0,0.0,0.0,0.0,0.0,0.0,0.0,0.0,0.0,0.0,0.0,0.0,0.0,0.0,0.0,0.0,0.0,0.0,0.0,0.0,0.0,0.0,0.0,0.0,0.0,0.0,0.0,0.0,0.0,0.0,0.0,0.0,0.0,0.0,0.0,0.0,0.0,0.0,0.0,0.0,0.0,0.0,0.0,0.0,0.0,0.0,0.0,0.0,0.0,0.0,0.0,0.0,0.0,0.0,0.0,0.0,0.0,0.0,0.0,0.0,0.0,0.0,0.0,0.0,0.0,0.0,0.0,0.0,0.0,0.0,0.0,0.0,0.0,0.0,0.0,0.0,0.0,0.0,0.0,0.0,0.0,0.0,0.0,0.0,0.0,0.0,0.0,0.0,0.0,0.0,0.0,0.0,0.0,0.0,0.0,0.0,0.0,0.0,0.0,0.0,0.0,0.0,0.0,0.0,0.0,0.0,0.0,0.0,0.0,0.0,0.0,0.0,0.0,0.0,0.0,0.0,0.0,0.0,0.0,0.0,0.0,0.0,0.0,0.0,0.0,0.0,0.0,0.0,0.0,0.0,0.0,0.0,0.0,0.0,0.0,0.0,0.0,0.0,0.0,0.0,0.0,0.0,0.0,0.0,0.0,0.0,0.0,0.0,0.0,0.0,0.0,0.0,0.0,0.0,0.0,0.0,0.0,0.0,0.0,0.0,0.0,0.0,0.0,0.0,0.0,0.0,0.0,0.0,0.0,0.0,0.0,0.0,0.0,0.0,0.0,0.0,0.0,0.0,0.0,0.0,0.0,0.0,0.0,0.0,0.0,0.0,0.0,0.0,0.0,0.0,0.0,0.0,0.0,0.0,0.0,0.0,0.0,0.0,0.0,0.0,0.0,0.0,0.0,0.0,0.0,0.0,0.0,0.0,0.0,0.0,0.0,0.0,0.0,0.0,0.0,0.0,0.0,0.0,0.0,0.0,0.0,0.0,0.0,0.0,0.0,0.0,0.0,0.0,0.0,0.0,0.0,0.0,0.0,0.0,0.0,0.0,0.0,0.0,0.0,0.0,0.0,0.0,0.0,0.0,0.0,0.0,0.0,0.0,0.0,0.0,0.0,0.0,0.0,0.0,0.0,0.0,0.0,0.0,0.0,0.0,0.0,0.0,0.0,0.0,0.0,0.0,0.0,0.0,0.0,0.0,0.0,0.0,0.0,0.0,0.0,0.0,0.0,0.0,0.0,0.0,0.0,0.0,0.0,0.0,0.0,0.0,0.0,0.0,0.0,0.0,0.0,0.0,0.0,0.0,0.0,0.0,0.0,0.0,0.0,0.0,0.0,0.0,0.0,0.0,0.0,0.0,0.0,0.0,0.0,0.0,0.0,0.0,0.0,0.0,0.0,0.0,0.0,0.0,0.0,0.0,0.0,0.0,0.0,0.0,0.0,0.0,0.0,0.0,0.0,0.0,0.0,0.0,0.0,0.0,0.0,0.0,0.0,0.0,0.0,0.0,0.0,0.0,0.0,0.0,0.0,0.0,0.0,0.0,0.0,0.0,0.0,0.0,0.0,0.0,0.0,0.0,0.0,0.0,0.0,0.0,0.0,0.0,0.0,0.0,0.0,0.0,0.0,0.0,0.0,0.0,0.0,0.0,0.0,0.0,0.0,0.0,0.0,0.0,0.0,0.0,0.0,0.0,0.0,0.0,0.0,0.0,0.0,0.0,0.0,0.0,0.0,0.0,0.0,0.0,0.0,0.0,0.0,0.0,0.0,0.0,0.0,0.0,0.0,0.0,0.0,0.0,0.0,0.0,0.0,0.0,0.0,0.0,0.0,0.0,0.0,0.0,0.0,0.0,0.0,0.0,0.0,0.0,0.0,0.0,0.0,0.0,0.0,0.0,0.0,0.0,0.0,0.0,0.0,0.0,0.0,0.0,0.0,0.0,0.0,0.0,0.0,0.0,0.0,0.0,0.0,0.0,0.0,0.0,0.0,0.0,0.0,0.0,0.0,0.0,0.0,0.0,0.0,0.0,0.0,0.0,0.0,0.0,0.0,0.0,0.0,0.0,0.0,0.0,0.0,0.0,0.0,0.0,0.0,0.0,0.0,0.0,0.0,0.0,0.0,0.0,0.0,0.0,0.0,0.0,0.0,0.0,0.0,0.0,0.0,0.0,0.0,0.0,0.0,0.0,0.0,0.0,0.0,0.0,0.0,0.0,0.0,0.0,0.0,0.0,0.0,0.0,0.0,0.0,0.0,0.0,0.0,0.0,0.0,0.0,0.0,0.0,0.0,0.0,0.0,0.0,0.0,0.0,0.0,0.0,0.0,0.0,0.0,0.0,0.0,0.0,0.0,0.0,0.0,0.0,0.0,0.0,0.0,0.0,0.0,0.0,0.0,0.0,0.0,0.0,0.0,0.0,0.0,2.7253,0.0,0.0,0.0,0.0,0.0,0.0,0.0,0.0,0.0,0.0,0.0,0.0,0.0,0.0,0.0,0.0,0.0,0.0,0.0,0.0,0.0,0.0,0.0,0.0,0.0,0.0,0.0,0.0,0.0,0.0,0.0,0.0,0.0,0.0,0.0,0.0,0.0,0.0,2.4138,2.465,2.5571,2.6844,2.658,2.6316,2.6075,0.0,0.0,0.0,0.0,0.0,0.0,0.0,0.0,0.0,0.0,0.0,0.0,0.0,0.0,0.0,0.0,0.0,0.0,0.0,0.0,0.0,0.0,0.0,0.0,0.0,0.0,0.0,0.0,0.0,0.0,0.0,0.0,0.0,0.0,0.0,0.0,0.0,0.0,0.0,0.0,0.0,0.0,0.0,0.0,0.0,0.0,0.0,0.0,0.0,0.0,0.0,0.0,0.0,0.0,0.0,0.0,0.0,0.0,0.0,0.0,0.0,0.0,0.0,0.0,0.0,0.0,0.0,0.0,0.0,0.0,0.0,2.8286,0.0,0.0,0.0,0.0,0.0,0.0,0.0,0.0,0.0,0.0,0.0,0.0,0.0,0.0,0.0,0.0,0.0,0.0,0.0,0.0,0.0,0.0,0.0,2.2333,2.2381,2.2478,2.2478,2.2478,0.0,0.0,0.0,0.0,0.0,0.0,2.3079,2.3143,2.3613,2.453,2.5439,2.6622,2.8064,2.8271,2.8156,2.7782,2.7368,0.0,0.0,0.0,0.0,0.0,0.0,0.0,0.0,0.0,0.0,0.0,0.0,0.0,0.0,0.0,0.0,0.0,0.0,0.0,0.0,0.0,0.0,0.0,0.0,0.0,0.0,0.0,0.0,0.0,0.0,0.0,0.0,0.0,0.0,0.0,0.0,0.0,0.0,0.0,0.0,0.0,0.0,0.0,0.0,0.0,0.0,0.0,0.0,0.0,0.0,0.0,0.0,0.0,0.0,0.0,0.0,0.0,0.0,0.0,0.0,0.0,0.0,0.0,3.3765,3.4126,3.5135,3.5568,3.5832,3.576,3.3164,3.136,3.0206,2.9388,0.0,0.0,0.0,0.0,0.0,0.0,0.0,0.0,0.0,0.0,0.0,0.0,0.0,0.0,0.0,0.0,0.0,0.0,0.0,2.1692,2.2766,2.2887,2.3079,2.3553,2.3601,2.3601,2.3601,0.0,0.0,0.0,0.0,0.0,2.3425,2.3726,2.4142,2.4678,2.7003,2.8597,2.9461,3.0568,3.1177,3.1251,2.9201,2.8286,2.8262,0.0,0.0,0.0,0.0,0.0,0.0,0.0,0.0,0.0,0.0,0.0,0.0,0.0,0.0,0.0,0.0,0.0,0.0,0.0,0.0,0.0,0.0,0.0,0.0,0.0,0.0,0.0,0.0,0.0,0.0,0.0,0.0,0.0,0.0,0.0,0.0,0.0,0.0,0.0,0.0,0.0,2.7349,2.6946,0.0,0.0,0.0,0.0,0.0,0.0,0.0,0.0,0.0,0.0,0.0,0.0,0.0,3.3164,3.4174,3.5184,3.6242,3.7399,3.7781,3.8527,3.9561,3.9633,3.9922,4.0331,3.9926,0.0,3.3934,3.2056,0.0,0.0,0.0,0.0,0.0,0.0,0.0,0.0,0.0,0.0,0.0,0.0,0.0,0.0,0.0,0.0,0.0,0.0,0.0,0.0,0.0,2.3496,2.3929,2.4169,2.4458,2.4523,2.4218,2.4194,0.0,0.0,2.3611,2.3654,2.3939,2.4126,2.5113,2.6886,2.8634,3.0239,3.1669,3.2567,3.3396,3.4211,3.2788,3.1543,3.0429,3.0095,0.0,0.0,0.0,0.0,0.0,0.0,0.0,0.0,0.0,0.0,0.0,0.0,0.0,0.0,0.0,0.0,0.0,0.0,0.0,0.0,0.0,0.0,0.0,0.0,0.0,0.0,0.0,0.0,0.0,0.0,0.0,0.0,0.0,0.0,0.0,0.0,0.0,0.0,0.0,2.7661,2.8402,2.9076,2.8334,2.7926,0.0,0.0,0.0,0.0,0.0,0.0,0.0,0.0,0.0,3.4751,3.6411,3.7781,3.8839,3.9926,4.0956,4.2014,4.2225,4.273,4.3505,4.3818,4.4082,4.4299,4.4299,4.2904,4.0302,3.6699,3.439,3.2971,0.0,0.0,0.0,0.0,3.1529,3.2059,0.0,0.0,0.0,0.0,0.0,0.0,0.0,0.0,0.0,0.0,0.0,0.0,2.3705,2.4723,2.5474,2.5883,2.631,2.631,2.5763,2.5595,2.5168,2.4342,2.4191,2.4207,2.4361,2.4876,2.6426,2.9105,3.0284,3.18,3.3594,3.4292,3.5201,3.6179,3.5927,3.4724,3.2842,3.2103,3.0668,2.8848,0.0,0.0,0.0,0.0,0.0,0.0,0.0,0.0,0.0,0.0,0.0,0.0,0.0,0.0,0.0,0.0,0.0,0.0,0.0,0.0,0.0,0.0,0.0,0.0,0.0,0.0,0.0,0.0,0.0,0.0,0.0,0.0,0.0,0.0,0.0,0.0,0.0,2.8911,3.0013,3.1358,3.0383,2.9912,0.0,0.0,0.0,0.0,0.0,0.0,3.3959,3.5628,3.7326,3.9039,4.0798,4.2281,4.3455,4.4154,4.5,4.6019,4.5778,4.5927,4.6484,4.6623,4.6741,4.6741,4.6741,4.6186,4.4998,4.0933,3.8046,3.6121,3.5112,3.4366,3.3958,3.4511,3.4942,3.5444,0.0,0.0,0.0,0.0,0.0,0.0,0.0,0.0,0.0,0.0,0.0,2.4283,2.5781,2.6892,2.8142,2.9697,2.9842,2.9629,2.91,2.8595,2.7512,2.5777,2.5808,2.5477,2.4608,2.6221,2.8196,3.0488,3.1967,3.3335,3.4651,3.5819,3.6524,3.6799,3.7665,3.7042,3.5186,3.2926,3.1227,2.9908,2.8689,0.0,0.0,0.0,0.0,0.0,0.0,0.0,0.0,0.0,0.0,0.0,0.0,0.0,0.0,0.0,0.0,0.0,0.0,0.0,0.0,0.0,0.0,0.0,0.0,0.0,0.0,0.0,0.0,0.0,0.0,0.0,0.0,0.0,0.0,0.0,0.0,0.0,0.0,3.3092,3.2836,0.0,0.0,0.0,0.0,3.2862,3.476,3.6564,3.8133,4.0147,4.2188,4.4151,4.4881,4.5941,4.7407,4.7082,4.7452,4.851,4.7621,4.747,4.7945,4.7142,4.6794,4.6794,4.6794,4.6495,4.5782,4.3502,4.161,4.0018,3.8933,3.819,3.7808,3.8334,3.867,3.8919,0.0,0.0,0.0,0.0,0.0,0.0,0.0,0.0,2.0824,2.2038,2.3688,2.5372,2.694,2.9003,3.0551,3.1264,3.1669,3.1226,2.9672,2.8759,2.7649,2.6201,2.5645,2.5564,2.6016,2.8168,3.0219,3.2087,3.3693,3.5159,3.6529,3.7533,3.8266,3.8885,3.9045,3.8859,3.829,3.5816,3.3561,3.1538,3.0285,2.8707,0.0,0.0,0.0,0.0,0.0,0.0,0.0,0.0,0.0,0.0,0.0,0.0,0.0,0.0,0.0,0.0,0.0,0.0,0.0,0.0,0.0,0.0,0.0,0.0,0.0,0.0,0.0,0.0,0.0,0.0,0.0,0.0,0.0,0.0,0.0,0.0,0.0,3.6294,3.5709,0.0,3.6563,3.5979,3.6039,3.7209,3.8613,4.0089,4.1635,4.3667,4.5263,4.6288,4.7846,4.8922,4.9438,4.9328,4.9365,4.9474,4.8776,4.8418,4.8356,4.8027,4.7899,4.7899,4.7899,4.7411,4.6591,4.5838,4.4308,4.2381,4.1653,4.105,4.0655,4.1189,4.1422,4.153,0.0,0.0,0.0,0.0,0.0,0.0,0.0,2.0113,2.106,2.2759,2.4633,2.6652,2.8811,3.1408,3.324,3.3814,3.4145,3.3335,3.1067,2.9731,2.8251,2.6556,2.6047,2.6497,2.8021,3.0052,3.2001,3.3854,3.5254,3.6506,3.763,3.8486,3.9144,3.9668,3.976,3.9943,4.0009,3.8155,3.5835,3.338,3.2087,3.049,2.8827,0.0,0.0,0.0,0.0,0.0,0.0,0.0,0.0,0.0,0.0,0.0,0.0,0.0,0.0,0.0,0.0,0.0,0.0,0.0,0.0,0.0,0.0,0.0,0.0,0.0,0.0,0.0,0.0,0.0,0.0,0.0,0.0,0.0,0.0,3.5241,3.7307,3.9706,3.9313,3.9368,4.0622,3.9916,3.9873,4.1043,4.2135,4.3309,4.4699,4.6348,4.7557,4.8238,4.9605,5.0394,5.0549,5.041,5.0277,5.0003,4.9179,4.8664,4.8371,4.7793,4.7486,4.7465,4.7351,4.6915,4.6289,4.6289,4.5398,4.4003,4.3635,4.3136,4.2751,4.3272,4.3386,4.323,0.0,0.0,0.0,0.0,0.0,0.0,2.0016,2.0423,2.1557,2.4153,2.5955,2.819,3.1406,3.4126,3.6186,3.7423,3.7247,3.601,3.3411,3.1537,2.9442,2.6931,2.7223,2.8446,3.0531,3.1761,3.3506,3.5774,3.6623,3.7334,3.7876,3.8666,3.9024,3.9095,3.9876,4.0223,4.0197,3.9637,3.794,3.5457,3.3983,3.2577,3.1252,0.0,0.0,0.0,0.0,0.0,0.0,0.0,0.0,0.0,0.0,0.0,0.0,0.0,0.0,0.0,0.0,0.0,0.0,0.0,0.0,0.0,0.0,0.0,0.0,0.0,0.0,0.0,0.0,0.0,0.0,0.0,0.0,0.0,3.6077,3.8733,4.1368,4.3193,4.3631,4.4014,4.4648,4.4014,4.3767,4.4293,4.5261,4.6231,4.7223,4.8196,4.9152,5.0069,5.0149,5.0371,5.0777,5.039,5.0186,5.0124,4.8834,4.8153,4.807,4.6319,4.5525,4.5504,4.5111,4.4904,4.4904,4.4904,4.4884,4.487,4.4786,4.4464,4.4073,4.4575,4.452,4.4025,0.0,0.0,0.0,0.0,0.0,0.0,1.9648,2.0567,2.1861,2.3753,2.6695,2.9848,3.3021,3.5871,3.7702,3.8039,3.7312,3.5391,3.2068,3.018,2.8633,2.7274,2.8567,3.0079,3.1773,3.3791,3.562,3.7202,3.8145,3.8832,3.9328,3.9796,4.002,4.002,4.0566,4.0774,4.0734,4.0278,3.9772,3.9101,3.6722,3.5062,3.3986,0.0,0.0,0.0,0.0,0.0,0.0,0.0,0.0,0.0,0.0,0.0,0.0,0.0,0.0,0.0,0.0,0.0,0.0,0.0,0.0,0.0,0.0,0.0,0.0,0.0,0.0,0.0,0.0,0.0,0.0,0.0,3.7122,3.9055,3.921,4.1069,4.3263,4.5544,4.5823,4.6138,4.6956,4.6961,4.6936,4.7063,4.7675,4.8143,4.8442,4.9007,4.9448,4.9744,5.0078,5.033,5.0459,4.9994,4.9424,4.8794,4.8105,4.7441,4.6821,4.6002,4.5797,4.6081,4.5635,4.5433,4.5372,4.5089,4.4765,4.4459,4.4392,4.4259,4.4133,4.3959,4.3672,4.3256,0.0,0.0,0.0,0.0,0.0,0.0,1.9499,2.062,2.2125,2.4162,2.7483,3.0884,3.415,3.6851,3.838,3.8245,3.7241,3.5129,3.1541,2.9577,2.8519,2.8375,3.0291,3.2114,3.374,3.5659,3.7217,3.8373,3.9134,3.9629,3.9902,4.0285,4.0538,4.0753,4.1179,4.1434,4.1573,4.1289,4.1309,4.1329,3.9668,3.8231,3.6986,3.6229,3.5679,3.5272,3.4903,3.4508,3.4006,3.314,0.0,0.0,0.0,0.0,0.0,0.0,0.0,0.0,0.0,0.0,0.0,0.0,0.0,0.0,0.0,0.0,0.0,0.0,0.0,0.0,0.0,0.0,0.0,0.0,3.9454,4.1872,4.2714,4.4272,4.6036,4.797,4.8356,4.859,4.8941,4.8903,4.8753,4.8555,4.8779,4.8917,4.8923,4.9212,4.9355,4.9355,4.96,4.9743,4.9743,4.9477,4.908,4.8574,4.8093,4.7635,4.7115,4.6504,4.6259,4.6299,4.5862,4.5584,4.5324,4.5086,4.4728,4.4314,0.0,0.0,0.0,0.0,4.309,4.2695,0.0,0.0,0.0,0.0,0.0,0.0,1.9527,2.0706,2.2414,2.4963,2.8162,3.1442,3.4741,3.7029,3.8217,3.7832,3.6748,3.4637,3.1221,2.9466,2.8993,2.9998,3.2226,3.4258,3.5994,3.7391,3.8535,3.9355,3.9824,4.0059,4.0117,4.0488,4.0898,4.1328,4.1758,4.2148,4.248,4.2526,4.2586,4.2586,4.2368,4.1391,3.9907,3.8756,3.8271,3.8195,3.8052,3.7601,3.6934,3.6289,0.0,0.0,0.0,0.0,0.0,0.0,0.0,0.0,0.0,0.0,0.0,0.0,0.0,0.0,0.0,0.0,0.0,0.0,0.0,0.0,0.0,0.0,0.0,0.0,4.1821,4.4461,4.6125,4.7642,4.8973,4.9991,5.057,5.0727,5.044,5.0039,4.9551,4.9081,4.9081,4.9036,4.8991,4.8991,0.0,0.0,0.0,4.8991,4.8991,4.8991,4.8971,4.8911,4.8509,4.8265,4.8206,4.7307,4.6714,4.6426,4.5957,4.5547,4.5192,4.5137,4.4824,4.4361,4.3818,4.3579,4.3459,4.3019,4.2617,4.2216,0.0,0.0,0.0,0.0,0.0,0.0,1.9641,2.1067,2.2823,2.4994,2.8494,3.1728,3.429,3.587,3.6544,3.6059,3.4098,3.1852,2.9353,2.9315,3.0229,3.2123,3.3983,3.5751,3.7473,3.8845,3.9766,4.0235,4.0703,4.1094,4.1426,4.1523,4.1777,4.2207,4.2637,4.2871,4.3009,4.3304,4.3626,4.3852,4.3141,4.2302,4.151,4.1452,4.143,4.1388,4.1152,4.1063,4.0835,3.933,3.838,3.7515,3.5497,3.4174,0.0,0.0,0.0,0.0,0.0,0.0,0.0,0.0,0.0,0.0,0.0,0.0,0.0,0.0,0.0,0.0,0.0,0.0,0.0,4.1508,4.3798,4.5858,4.7612,4.9074,4.9872,4.9702,4.9845,5.0042,5.0307,5.0257,4.9984,4.9529,4.9483,4.93,4.8934,4.8934,4.8934,4.8934,4.8934,4.8934,4.8934,4.8934,4.8712,4.8358,4.8267,0.0,4.7693,4.7173,4.707,4.7285,4.6523,4.6328,4.646,4.582,4.5098,4.4297,4.3544,4.278,4.2151,4.2073,4.1758,4.1444,0.0,0.0,0.0,0.0,0.0,0.0,1.9683,2.1178,2.2943,2.5035,2.8231,3.1055,3.303,3.4152,3.4471,3.3825,3.1784,3.0282,2.9679,3.0445,3.1866,3.4004,3.5742,3.7363,3.8867,3.998,4.0742,4.1152,4.1582,4.1914,4.2129,4.2344,4.2656,4.3086,4.375,4.418,4.4456,4.4824,4.5127,4.5258,4.4609,4.4096,4.3683,4.3041,4.326,4.395,4.3918,4.3843,4.366,4.2682,4.1677,4.0523,3.8912,3.73,3.5809,0.0,0.0,0.0,0.0,0.0,0.0,0.0,0.0,0.0,0.0,0.0,0.0,0.0,0.0,3.7193,3.8317,0.0,4.1514,4.3775,4.5702,4.738,4.8706,4.9677,5.0252,5.0323,5.0489,5.0621,5.059,5.063,5.0398,4.9932,4.9885,4.9792,4.9558,4.9558,4.9558,4.9558,4.9297,4.9199,4.9199,4.9011,4.8796,4.8535,4.8535,4.8464,4.8249,4.7988,4.7891,4.7851,4.7226,4.6933,4.6831,4.6016,4.5293,4.4648,4.4004,4.3203,4.2422,4.2187,4.1855,4.1465,0.0,0.0,0.0,0.0,0.0,0.0,0.0,2.1139,2.2823,2.4994,2.7515,2.9699,3.125,3.1853,3.1724,3.0756,2.9523,2.9286,3.0339,3.174,3.3547,3.5664,3.7402,3.8887,4.0117,4.0937,4.1543,4.2051,4.2383,4.2596,4.2772,4.3262,4.3672,4.4121,4.4922,4.5508,4.5937,4.6289,4.6484,4.6504,4.6094,4.5903,4.5743,4.4367,4.463,4.5695,4.5836,4.57,4.5361,4.507,4.407,4.2777,4.1792,4.0148,3.8338,3.719,3.5371,0.0,0.0,0.0,0.0,0.0,0.0,0.0,0.0,3.7084,3.8327,3.8737,3.9595,4.0496,4.1185,4.2575,4.4181,4.5817,4.7425,4.8744,4.9539,5.0019,5.0468,5.081,5.1116,5.1195,5.0818,5.0771,5.0629,5.0223,5.0176,5.0176,5.0176,5.0176,5.0176,5.0176,4.9844,4.9609,4.9484,4.918,4.8991,4.8913,4.8913,4.8913,4.8913,4.8913,4.8718,4.8301,4.7891,4.7402,4.6831,4.6191,4.5625,4.5117,4.4785,4.4101,4.3281,4.2754,4.2226,4.1758,0.0,0.0,0.0,0.0,0.0,0.0,0.0,0.0,2.2414,2.4963,2.6269,2.7467,2.8826,2.8581,2.7692,2.611,2.7109,2.8382,2.9643,3.2316,3.4824,3.6992,3.875,4.0098,4.1054,4.1484,4.2129,4.293,4.2988,4.3418,4.4199,4.4609,4.5039,4.5488,4.5937,4.6387,4.6753,4.6792,4.709,4.7402,4.6973,4.6806,4.6772,4.6189,4.5999,4.6027,4.5867,4.5666,4.5393,4.4794,4.4086,4.34,4.2746,4.1649,4.027,3.8789,3.6861,3.5094,3.4396,3.405,3.4109,3.5052,3.5625,3.6309,0.0,3.8615,3.981,4.1465,4.2715,4.3769,4.476,4.6056,4.7161,4.779,4.8738,4.9539,5.0039,5.0469,5.0634,5.0346,5.0326,5.0318,5.027,5.027,5.027,5.0176,5.0176,5.0176,5.0176,5.0176,5.0176,5.0176,5.0137,4.9922,4.9484,4.9473,4.9258,4.8913,4.8913,4.8913,4.8913,4.8913,4.8874,4.8815,4.832,4.7676,4.687,4.6772,4.6308,4.5605,4.5547,4.5,4.4141,4.332,4.25,4.1797,0.0,0.0,0.0,0.0,0.0,0.0,0.0,0.0,2.2125,2.4162,2.5064,2.5883,2.6912,2.6642,2.6172,2.5606,2.6871,2.8502,3.0423,3.3258,3.5801,3.7949,3.9744,4.0918,4.1523,4.2441,4.3086,4.3437,4.3965,4.4531,4.5156,4.5566,4.5996,4.6426,4.7109,4.75,4.7695,4.7949,4.8164,4.8327,4.7851,4.7355,4.6831,4.5879,4.4866,4.4049,4.4884,4.4529,0.0,4.3021,4.2603,4.2322,4.1977,4.1061,3.9956,3.9267,3.7054,3.4641,3.394,3.454,3.5422,3.5794,3.7203,3.8744,3.9736,4.1269,4.2872,4.4227,4.5349,4.6322,4.7239,4.8097,4.898,4.9902,5.0368,5.0781,5.123,5.1016,5.0644,5.0234,5.0176,5.0273,5.0527,5.0762,5.0898,5.0898,5.0898,5.0898,5.0898,5.0898,5.0898,5.0898,5.0664,5.0332,4.9902,4.9648,4.9297,4.8913,4.8913,4.8913,4.8913,4.8913,4.8776,4.8476,4.8281,4.7871,4.7285,4.6987,4.6582,4.6016,4.5781,4.5156,4.4316,4.3672,4.3066,4.25,0.0,0.0,0.0,0.0,0.0,0.0,0.0,0.0,0.0,0.0,2.3905,2.4395,2.4977,2.4891,2.489,2.5046,2.6412,2.8287,3.0675,3.3646,3.6279,3.8513,4.0292,4.1426,4.1953,4.3105,4.3828,4.4062,4.4824,4.5488,4.6035,4.6465,4.6875,4.7305,4.793,4.8281,4.8398,4.8594,4.8796,4.8874,4.8379,4.7617,4.6606,4.5171,4.34,4.1802,4.2795,4.2102,4.0662,4.0128,3.9885,3.982,3.998,3.9466,3.8724,3.8381,3.6291,3.4075,3.3825,3.5049,3.6487,3.7023,3.8995,4.1033,4.2123,4.3863,4.5515,4.6507,4.7537,4.8404,4.8924,4.9596,5.0304,5.124,5.1377,5.1543,5.1855,5.1172,5.043,4.9883,4.9871,4.9941,5.0234,5.0859,5.1201,5.1201,5.1319,5.1377,5.1377,5.1377,5.1377,5.1377,5.1133,5.0781,5.0351,4.9922,4.9492,4.9043,4.8972,4.8913,4.8913,4.8913,4.8737,4.8379,4.8379,4.8144,4.7715,4.7285,4.6855,4.6426,4.6016,4.5391,4.4687,4.4238,4.3652,4.3027,0.0,0.0,0.0,0.0,0.0,0.0,0.0,0.0,0.0,0.0,0.0,2.2781,2.2884,2.2985,2.3101,2.3183,2.5006,2.725,2.9755,3.3184,3.615,3.8493,4.0292,4.1562,4.2343,4.3262,4.4121,4.4938,4.543,4.6074,4.685,4.7344,4.7773,4.8164,4.8203,4.8437,4.8855,4.8398,4.8476,4.8874,4.8379,4.7441,4.6137,4.4423,4.213,3.9821,3.9429,3.8117,3.652,3.6039,3.5689,3.5629,3.6561,3.691,3.6788,3.5791,3.4623,3.3813,3.454,3.5749,3.7271,3.9364,4.1012,4.2716,4.4882,4.6127,4.7072,4.804,4.9221,5.0013,4.9643,5.0566,5.1338,5.1377,5.1377,5.1397,5.1397,5.0723,4.993,4.905,4.8952,4.8952,4.8972,5.0078,5.082,5.082,5.1211,5.1377,5.1377,5.1377,5.1377,5.1377,5.1377,5.1211,5.0781,5.0371,4.9941,4.9492,4.9109,4.8913,4.8913,4.8913,4.8894,4.8894,4.8894,4.8594,4.8164,4.7734,4.7305,4.6831,4.6445,4.6016,4.5586,4.5137,4.418,4.3127,0.0,0.0,0.0,0.0,0.0,0.0,0.0,0.0,0.0,0.0,0.0,0.0,0.0,0.0,0.0,0.0,2.4594,2.6489,2.9003,3.1809,3.4534,3.707,3.8899,4.0137,4.0742,4.1855,4.2715,4.326,4.4023,4.4805,4.564,4.6406,4.6953,4.7363,4.7656,4.7871,4.8033,4.7539,4.7285,4.709,4.6387,4.5156,4.3496,4.1484,3.893,3.6135,0.0,3.3457,3.3615,3.2277,3.1997,3.2222,3.2447,3.293,3.3379,3.2986,3.3397,3.4191,3.5106,3.7185,3.9558,4.1464,4.3659,4.5639,4.7002,4.7765,4.848,4.9367,4.917,4.9019,4.9451,4.939,4.957,5.0449,5.0351,5.0323,5.0937,5.0019,4.9128,4.8496,4.8183,4.7891,4.7598,4.9023,5.0195,5.0762,5.0937,5.1133,5.1358,5.1377,5.1377,5.1377,5.1377,5.123,5.0801,5.0664,5.0234,4.9531,4.9062,4.8913,4.8913,4.8913,4.8913,4.8913,4.8913,4.8815,4.862,4.7871,4.75,4.7285,4.6582,4.5859,4.5234,4.5078,4.4375,4.3496,0.0,0.0,0.0,0.0,0.0,0.0,0.0,0.0,0.0,0.0,0.0,0.0,0.0,0.0,0.0,0.0,0.0,2.6131,2.8252,3.0676,3.3053,3.5442,3.7099,3.8292,3.8945,3.9922,4.0781,4.1523,4.207,4.2949,4.406,4.4648,4.5234,4.5781,4.6074,4.6191,4.6172,4.5742,4.5312,4.4844,4.3984,4.2519,4.0605,3.8594,3.6055,0.0,3.0488,2.9967,3.035,2.908,2.9019,2.9487,2.9715,3.0675,3.1759,3.2035,3.3468,3.5296,3.6676,3.9261,4.1951,4.3865,4.5969,4.7858,4.8698,4.9121,4.9402,4.9453,4.8672,4.8027,4.8125,4.7695,4.7734,4.9043,4.9141,4.9355,5.0215,4.9492,4.8737,4.8262,4.7832,4.7539,4.7402,4.8398,4.9414,5.0273,5.0625,5.1055,5.1641,5.1475,5.1504,5.166,5.1475,5.1308,5.1035,5.0879,5.0371,4.9531,4.9238,4.907,4.8913,4.8913,4.8913,4.8913,4.8913,4.8913,4.8835,4.7975,4.7578,4.75,4.6641,4.5879,4.5234,4.5035,4.457,4.3926,0.0,0.0,0.0,0.0,0.0,0.0,0.0,0.0,0.0,0.0,0.0,0.0,0.0,0.0,0.0,0.0,0.0,0.0,2.7538,2.9667,3.169,3.3534,3.4848,3.5967,3.6968,3.7383,3.8242,3.957,3.959,4.0449,4.2109,4.2148,4.2657,4.3459,4.3478,4.3478,4.3459,4.3009,4.256,4.2031,4.1191,3.9549,3.7422,3.5795,3.3567,3.1055,2.8973,2.7676,2.6889,2.6523,2.6876,2.7631,2.8555,3.0207,3.1984,3.2895,3.4811,3.708,3.9346,4.1916,4.4453,4.6582,4.8066,4.9246,5.0067,5.0137,4.9687,4.8359,4.7656,4.6914,4.5707,4.5472,4.5883,4.7168,4.7773,4.8398,4.9355,4.9121,4.8757,4.832,4.7891,4.7812,4.8203,4.8262,4.8633,4.9445,5.0312,5.1152,5.2031,5.166,5.1641,5.207,5.166,5.1377,5.1377,5.1016,5.0391,4.9523,4.9484,4.9297,4.8913,4.8913,4.8913,4.8913,4.8913,4.8894,4.8796,4.7975,4.7578,4.7461,4.6601,4.6016,4.5586,4.5156,4.4726,4.4297,0.0,0.0,0.0,0.0,0.0,0.0,0.0,0.0,0.0,0.0,0.0,0.0,0.0,0.0,0.0,0.0,0.0,0.0,2.6487,2.7359,2.873,3.073,3.1388,3.2038,3.2745,3.3178,3.3948,3.5078,3.541,3.6406,3.8011,3.8662,3.9383,4.0139,4.042,4.0559,4.0519,3.9764,3.8882,3.7893,3.6896,3.5277,3.3327,3.2465,3.0789,2.8745,2.7594,2.692,2.6523,2.6426,2.7337,2.8773,3.03,3.181,3.3313,3.5211,3.752,3.9978,4.2522,4.5081,4.75,4.9355,5.0293,5.0742,5.0664,4.9648,4.8262,4.666,4.4687,4.3086,4.2481,4.2051,4.2461,4.4375,4.5605,4.6953,4.8815,4.8972,4.8991,4.916,4.8808,4.862,4.8718,4.8984,4.9414,4.998,5.0215,5.084,5.2012,5.166,5.1641,5.207,5.166,5.1377,5.1377,5.1016,5.0547,5.0,4.9687,4.9297,4.8913,4.8913,4.8913,4.8913,4.8913,4.8718,4.834,4.7793,4.7383,4.7012,4.6172,4.5566,4.5137,4.4707,4.4277,4.3867,0.0,0.0,0.0,0.0,0.0,0.0,0.0,0.0,0.0,0.0,0.0,0.0,0.0,0.0,0.0,0.0,0.0,0.0,0.0,2.6433,2.7397,2.857,2.9096,2.962,3.0091,3.0067,3.0602,3.1742,3.1831,3.2632,3.4044,3.4521,3.5094,3.5716,3.6103,3.6303,3.6263,3.5583,3.482,0.0,0.0,3.1567,3.004,2.9906,2.8807,2.7307,2.6914,2.6946,2.7402,2.8562,2.9805,3.1162,3.2949,3.4733,3.6621,3.8398,4.0879,4.3496,4.5527,4.7812,4.9902,5.1074,5.125,5.0898,4.9883,4.8183,4.6172,4.3887,4.1641,3.9922,3.9353,3.9297,4.0156,4.248,4.4453,4.6484,4.8828,4.9473,4.9883,5.0265,5.0312,5.0195,5.0,5.0391,5.0742,5.0996,5.0664,5.0937,5.2031,5.166,5.1641,5.207,5.166,5.1377,5.1377,5.1191,5.0781,5.0176,4.9922,4.9473,4.8913,4.8913,4.8913,4.8913,4.8913,4.8613,4.8164,4.7754,4.7324,4.6831,4.6211,4.5683,4.5273,4.5039,4.4668,4.4258,0.0,0.0,0.0,0.0,0.0,0.0,0.0,0.0,0.0,0.0,0.0,0.0,0.0,0.0,0.0,0.0,0.0,0.0,0.0,0.0,2.6821,2.6829,2.7406,2.7886,2.8197,2.7652,2.7945,2.9193,2.8751,2.924,3.0553,3.0465,3.0733,3.1293,3.1704,3.1836,3.1845,3.143,3.0978,3.0467,2.9595,2.8482,2.7417,0.0,2.7456,2.6444,2.6705,2.7536,2.8922,3.1553,3.3027,3.4069,3.6094,3.8398,4.0684,4.2148,4.459,4.7109,4.8437,5.0293,5.1933,5.2266,5.1562,5.0312,4.8398,4.6133,4.3533,4.0508,3.846,3.7031,3.6323,3.6934,3.8437,4.1035,4.373,4.6406,4.8984,5.0195,5.0996,5.1494,5.1992,5.2129,5.1767,5.207,5.2246,5.2246,5.1504,5.1387,5.2129,5.1758,5.166,5.1992,5.1621,5.1377,5.1377,5.1377,5.1016,5.0176,5.0176,4.9754,4.8913,4.8913,4.8913,4.8913,4.8913,4.8613,4.8164,4.7754,4.7324,4.6831,4.6406,4.5996,4.5664,4.5605,4.5351,4.4938,0.0,0.0,0.0,0.0,0.0,0.0,0.0,0.0,0.0,0.0,2.3448,2.3352,0.0,0.0,0.0,0.0,0.0,0.0,0.0,0.0,0.0,2.5353,2.5268,2.5377,2.5712,2.5605,2.6009,2.6952,2.6502,2.7092,2.8657,2.8255,2.867,2.9689,2.9956,3.0054,3.0011,2.9617,2.8929,2.8056,2.7585,2.6659,2.5758,2.6838,0.0,0.0,2.6967,2.8318,3.0114,3.2847,3.4551,3.6079,3.9277,4.1543,4.3516,4.5879,4.7969,4.9863,5.1484,5.3008,5.4043,5.3769,5.2226,5.0078,4.7266,4.3867,4.0411,3.7386,3.5137,3.3633,3.3496,3.4766,3.668,3.9238,4.2441,4.5508,4.8066,4.9805,5.123,5.2363,5.2871,5.3262,5.3504,5.3301,5.3195,5.3195,5.2676,5.2441,5.2598,5.2207,5.1836,5.1514,5.1416,5.1377,5.1377,5.1377,5.1016,5.0176,5.0176,4.9754,4.8913,4.8913,4.8913,4.8913,4.8913,4.8613,4.8164,4.7754,4.7324,4.6811,4.6094,4.5742,4.5625,4.5273,4.5098,4.4977,0.0,0.0,0.0,0.0,0.0,0.0,0.0,2.255,2.3873,2.518,2.4915,2.4675,2.4898,2.4612,2.4626,0.0,0.0,0.0,0.0,0.0,0.0,2.5104,2.5108,2.5229,2.5409,2.5305,2.555,2.6145,0.0,2.6232,2.7004,2.6635,2.6851,2.755,2.7742,2.7965,2.8173,2.7864,2.7534,2.7119,2.6447,2.5825,2.5463,2.6415,0.0,0.0,2.7104,2.8157,2.9715,3.227,3.4583,3.7031,4.0976,4.3652,4.5801,4.7969,4.9961,5.1777,5.3047,5.418,5.4785,5.3906,5.1719,4.8887,4.541,4.1289,3.7289,3.4264,3.2305,3.1113,3.1113,3.2891,3.5137,3.75,4.0976,4.4433,4.7461,4.9766,5.1699,5.3223,5.3984,5.4375,5.4375,5.418,5.3965,5.373,5.3516,5.3105,5.2422,5.1973,5.1641,5.1397,5.1377,5.1377,5.1377,5.1377,5.1016,5.0176,5.0176,4.9754,4.8913,4.8913,4.8913,4.8913,4.8913,4.8613,4.8164,4.7754,4.7324,4.6831,4.625,4.5996,4.5976,4.5762,4.5683,4.5664,0.0,0.0,0.0,0.0,0.0,0.0,0.0,2.3031,2.4692,2.6238,2.655,2.6454,2.6027,2.5306,2.497,0.0,0.0,0.0,0.0,0.0,0.0,0.0,0.0,0.0,2.5594,0.0,0.0,2.6001,2.6022,0.0,0.0,0.0,0.0,0.0,2.6405,2.6686,2.7026,2.6857,2.6857,0.0,0.0,2.5823,2.5955,0.0,0.0,0.0,0.0,2.7869,2.8965,3.126,3.3775,3.6695,4.0644,4.3984,4.687,4.8899,5.0976,5.2812,5.3887,5.4726,5.4961,5.3574,5.0868,4.7402,4.3437,3.8867,3.4629,3.1699,3.0,2.9109,2.9285,3.125,3.3594,3.5795,3.9277,4.2871,4.6152,4.8926,5.1289,5.3125,5.4258,5.4824,5.4687,5.4687,5.4531,5.4199,5.3906,5.3301,5.2266,5.1719,5.1377,5.1377,5.1377,5.1377,5.1377,5.1377,5.1016,5.0176,5.0176,4.9754,4.8913,4.8913,4.8913,4.8913,4.8913,4.8718,4.8301,4.7793,4.7383,4.7012,4.6504,4.6308,4.6308,4.6308,4.6308,4.625,0.0,0.0,0.0,0.0,0.0,0.0,0.0,2.3857,2.5757,2.7349,2.7974,2.8258,2.819,2.6863,2.5781,0.0,0.0,0.0,0.0,0.0,0.0,0.0,0.0,0.0,0.0,0.0,0.0,2.6357,2.642,0.0,0.0,0.0,0.0,0.0,0.0,2.7397,2.7438,2.7417,0.0,0.0,0.0,0.0,0.0,0.0,0.0,0.0,0.0,2.8095,2.8739,3.0719,3.242,3.4199,3.6953,4.1211,4.5718,4.8626,5.0762,5.25,5.418,5.4961,5.4902,5.3203,4.9922,4.5996,4.1699,3.707,3.291,3.0322,2.8418,2.748,2.8262,2.9902,3.1816,3.3997,3.7226,4.043,4.3125,4.6055,4.8711,5.0859,5.2539,5.3898,5.4609,5.4687,5.4668,5.4629,5.3516,5.2773,5.2656,5.1875,5.1377,5.1377,5.1377,5.1377,5.1377,5.1377,5.1016,5.0176,5.0176,4.9754,4.8913,4.8913,4.8913,4.8913,4.8913,4.8874,4.8776,4.7955,4.7558,4.7441,4.6621,4.6308,4.6308,4.6308,4.6308,4.6289,0.0,0.0,0.0,0.0,0.0,0.0,2.2044,2.3977,2.5883,2.7493,2.8166,2.8502,2.8502,2.7349,2.6364,2.5829,0.0,0.0,0.0,0.0,0.0,0.0,0.0,0.0,0.0,0.0,2.6202,2.683,2.6849,0.0,0.0,0.0,0.0,0.0,0.0,2.7652,2.7918,2.7777,0.0,0.0,0.0,0.0,0.0,0.0,0.0,0.0,0.0,0.0,2.7783,2.8913,3.0277,3.1797,3.3633,3.6699,4.0508,4.5348,4.8769,5.1308,5.3027,5.4199,5.4453,5.2441,4.9043,4.5039,4.0723,3.5859,3.1591,2.9277,2.7656,2.6816,2.7422,2.8926,3.0654,3.2266,3.5215,3.8281,4.1133,4.4141,4.6933,4.9355,5.1387,5.2832,5.3437,5.3984,5.4297,5.4297,5.3301,5.2715,5.2715,5.1845,5.1377,5.1377,5.1377,5.1377,5.1377,5.1377,5.1016,5.0176,5.0176,4.9754,4.8913,4.8913,4.8913,4.8913,4.8913,4.8913,4.8835,4.7975,4.7578,4.75,4.6641,4.6308,4.6265,4.6002,4.587,4.5826,0.0,0.0,0.0,0.0,0.0,2.0923,2.188,2.3753,2.5571,2.7036,2.8094,2.8619,2.8286,2.7589,2.6796,2.5949,2.5516,0.0,0.0,0.0,0.0,0.0,0.0,0.0,0.0,0.0,2.6424,2.7049,2.7376,2.7707,0.0,0.0,2.7898,2.8062,0.0,0.0,0.0,0.0,0.0,0.0,0.0,0.0,0.0,0.0,0.0,0.0,0.0,0.0,0.0,0.0,0.0,2.9453,3.0673,3.2617,3.5684,4.1738,4.5859,4.8887,5.084,5.2148,5.25,5.0586,4.7285,4.3418,3.9219,3.4668,3.0723,2.8555,2.709,2.6367,2.6914,2.8203,2.9696,3.1094,3.3652,3.6406,3.918,4.2168,4.498,4.7441,4.9863,5.1582,5.2266,5.3359,5.3965,5.3848,5.3144,5.2656,5.2539,5.1836,5.1377,5.1377,5.1377,5.1377,5.1377,5.126,5.0879,5.0176,5.0039,4.959,4.8913,4.8913,4.8913,4.8913,4.8913,4.8913,4.8835,4.7975,4.7578,4.75,4.6641,4.6308,4.6265,4.5783,4.5607,4.5519,0.0,0.0,0.0,0.0,0.0,0.0,2.1472,2.3264,2.4898,2.5973,2.7969,2.8883,2.783,2.7709,2.7061,2.5468,2.53,0.0,0.0,0.0,0.0,0.0,0.0,0.0,0.0,0.0,2.6898,2.6898,2.7974,2.8478,2.8502,2.8502,2.8502,2.8502,0.0,0.0,0.0,0.0,0.0,0.0,0.0,0.0,0.0,0.0,0.0,0.0,0.0,0.0,0.0,0.0,0.0,0.0,0.0,2.9531,3.2129,3.8184,4.209,4.5019,4.7558,4.8574,4.8659,4.7305,4.4394,4.082,3.6899,3.3379,3.0293,2.8151,2.6641,2.5971,2.683,2.7715,2.8867,3.0605,3.2695,3.4877,3.7031,3.9922,4.2637,4.4762,4.7715,5.0011,5.128,5.2958,5.3848,5.3449,5.2949,5.2519,5.2109,5.166,5.1377,5.1377,5.1377,5.1377,5.1377,5.1016,5.0605,5.0176,4.9746,4.9297,4.8913,4.8913,4.8913,4.8913,4.8913,4.8913,4.8835,4.7975,4.7578,4.75,4.6641,4.6308,4.6265,4.5783,4.5607,4.5519,0.0,0.0,0.0,0.0,0.0,0.0,0.0,2.2566,2.3828,2.4444,2.5709,2.6454,2.6099,2.6051,2.5859,2.533,2.53,0.0,0.0,0.0,0.0,0.0,0.0,0.0,0.0,0.0,2.67,2.7445,2.8142,2.8883,2.9581,2.9581,2.9388,2.9027,2.8667,2.8286,0.0,0.0,0.0,0.0,0.0,0.0,2.8597,0.0,0.0,0.0,0.0,0.0,0.0,0.0,0.0,0.0,0.0,0.0,0.0,3.2441,3.6875,4.1289,4.3281,4.4805,4.5488,4.418,4.1914,3.916,3.5859,3.2676,2.9883,2.8073,2.6641,2.5893,2.6484,2.7311,2.8464,3.0147,3.1992,3.416,3.6914,3.9394,4.1836,4.4297,4.8027,5.1016,5.2598,5.3535,5.3848,5.3449,5.2949,5.2519,5.2109,5.166,5.1377,5.1377,5.1377,5.124,5.0996,5.0879,5.0449,4.9726,4.959,4.9297,4.8913,4.8913,4.8913,4.8913,4.8913,4.8737,4.8359,4.7812,4.7402,4.707,4.6523,4.6308,4.6221,4.5431,4.4927,4.451,0.0,0.0,0.0,0.0,0.0,0.0,0.0,2.1668,2.2513,2.3119,2.409,2.4723,2.4723,2.5083,2.5155,2.4771,2.5083,0.0,0.0,0.0,0.0,0.0,0.0,0.0,0.0,2.6003,2.682,2.7709,2.8623,2.9532,3.0395,3.0395,3.0131,2.9581,2.9051,2.8382,0.0,0.0,0.0,0.0,0.0,0.0,2.8292,0.0,0.0,0.0,0.0,0.0,0.0,0.0,0.0,0.0,0.0,0.0,0.0,0.0,3.1992,3.5918,3.8633,4.0293,4.1035,4.0177,3.8496,3.6367,3.3848,3.1289,2.9043,2.7526,2.6406,2.5893,2.6523,2.735,2.8476,3.0195,3.1914,3.3984,3.668,3.9199,4.2148,4.5898,4.9121,5.1641,5.3253,5.3769,5.3769,5.3164,5.2871,5.2461,5.1875,5.1426,5.1191,5.1191,5.1191,5.1074,5.0801,5.0488,5.0058,4.9484,4.9355,4.9121,4.8913,4.8913,4.8913,4.8894,4.8737,4.8457,0.0,4.7578,4.7168,4.685,4.6465,4.6308,4.6177,4.5255,4.4617,4.4023,0.0,0.0,0.0,0.0,0.0,0.0,0.0,2.0694,2.1088,2.1931,2.2975,2.3625,2.3625,2.4571,2.4819,2.389,0.0,0.0,0.0,0.0,0.0,0.0,0.0,0.0,2.5234,2.6321,2.7162,2.7757,2.9364,3.0443,3.1021,3.1021,3.0708,3.0131,2.9556,2.8695,0.0,0.0,0.0,0.0,0.0,0.0,0.0,0.0,0.0,0.0,0.0,0.0,0.0,0.0,0.0,0.0,0.0,0.0,0.0,0.0,0.0,0.0,0.0,3.5234,3.5669,3.5669,3.442,3.2781,3.1133,2.9453,0.0,2.6641,2.6035,2.5971,2.6791,2.7637,2.8769,3.0508,3.2226,3.4101,3.6343,3.9412,4.3418,4.8828,5.0597,5.1933,5.3234,5.375,5.3672,5.2773,5.2715,5.2324,5.1426,5.1016,5.0801,5.0762,5.0723,5.0723,5.0723,4.9922,4.9512,4.9426,4.9062,4.8913,4.8913,4.8913,4.8894,4.8835,4.8379,4.8164,4.8047,4.7221,4.6825,4.6767,4.6314,4.6177,4.6026,4.5078,4.444,4.38,0.0,0.0,0.0,0.0,0.0,0.0,0.0,0.0,0.0,0.0,2.1367,2.1957,2.1957,2.3272,2.4059,0.0,0.0,0.0,0.0,0.0,0.0,0.0,0.0,0.0,2.4681,2.6129,2.7354,2.831,2.9917,3.1214,3.213,3.213,3.1601,3.066,2.9725,2.8695,0.0,0.0,0.0,0.0,0.0,0.0,0.0,0.0,0.0,0.0,2.572,2.5182,0.0,0.0,0.0,0.0,0.0,0.0,0.0,0.0,2.6758,2.7285,2.8613,0.0,3.2578,3.2578,3.2031,3.1113,0.0,2.8574,2.7565,2.6607,2.6035,2.5874,2.6445,2.6953,2.7871,2.9637,3.1358,3.334,3.582,4.0488,4.498,4.864,5.0449,5.1816,5.2773,5.3574,5.3672,5.2773,5.2715,5.2187,5.1016,5.0859,5.0664,5.0332,5.0,4.9824,4.9824,4.9582,4.9355,4.907,4.8952,4.8913,4.8913,4.8913,4.8718,4.8359,4.8262,4.7832,4.7162,4.6611,4.6163,4.581,4.5009,4.4687,4.4554,4.3578,4.2685,4.1779,0.0,0.0,0.0,0.0,0.0,0.0,0.0,0.0,0.0,0.0,0.0,0.0,0.0,0.0,0.0,0.0,0.0,0.0,0.0,0.0,0.0,0.0,0.0,2.429,2.4489,2.6081,2.7445,2.8502,3.0371,3.1815,3.2875,3.2875,3.2418,3.1575,2.9749,2.8599,0.0,0.0,0.0,0.0,2.8359,0.0,0.0,0.0,0.0,0.0,2.5422,2.4906,0.0,2.4848,2.501,2.5141,0.0,0.0,0.0,0.0,2.5625,2.5942,2.6562,2.8203,2.9805,3.0,2.9726,2.9246,2.8496,2.7695,2.692,2.623,2.603,2.623,2.6881,2.7637,2.875,3.0517,3.2237,3.4648,3.8401,4.2598,4.6308,4.9167,5.0625,5.1855,5.291,5.3262,5.3223,5.2754,5.2539,5.1953,5.0859,5.0625,5.0332,4.9902,4.9453,4.9316,4.9484,4.9316,4.9101,4.8913,4.8913,4.8913,4.8894,4.8698,4.8326,4.7864,4.7476,4.6915,4.6203,4.5789,4.5224,4.4554,4.4023,4.3578,4.3051,4.1871,4.1012,4.0151,0.0,0.0,0.0,0.0,0.0,0.0,0.0,0.0,0.0,0.0,0.0,0.0,0.0,0.0,0.0,0.0,0.0,0.0,0.0,0.0,0.0,0.0,0.0,2.4018,2.4489,2.6153,2.7565,2.8619,3.078,3.2321,3.3284,3.3284,3.2875,3.2034,2.9605,2.8502,0.0,0.0,0.0,0.0,2.8179,0.0,0.0,0.0,0.0,0.0,0.0,0.0,0.0,2.4592,2.4779,2.4906,2.4965,0.0,0.0,0.0,0.0,0.0,2.6099,2.6939,2.7721,2.8164,2.8054,2.778,2.7702,2.7076,2.6387,2.5991,2.6206,2.6783,2.7721,2.8816,3.0185,3.2003,3.3965,3.6992,4.1836,4.4648,4.7148,4.9668,5.0781,5.1816,5.3097,5.2891,5.2656,5.2519,5.2187,5.1582,5.0664,5.0273,4.9883,4.9433,4.9062,4.9043,4.9414,4.9043,4.8913,4.8913,4.8913,4.8874,4.8796,4.8333,4.7806,4.7242,4.6351,4.5738,4.5241,4.4679,4.3889,4.3025,4.2684,4.2022,4.1134,3.9794,3.8987,3.8309,0.0,0.0,0.0,0.0,0.0,0.0,0.0,0.0,0.0,0.0,0.0,0.0,0.0,0.0,0.0,0.0,0.0,0.0,0.0,0.0,0.0,2.3007,2.3529,2.4018,2.4489,2.6532,2.8094,2.9172,3.1336,3.2683,3.3284,3.3284,3.2297,3.0419,2.91,2.8502,2.8478,0.0,0.0,0.0,2.8022,0.0,0.0,0.0,0.0,0.0,0.0,0.0,0.0,2.4014,2.4106,2.4043,2.4394,0.0,0.0,0.0,0.0,0.0,2.5679,2.644,2.7305,2.8086,2.8242,2.8132,2.778,2.7285,2.6894,2.6811,2.6875,2.7285,2.8469,2.918,3.0282,3.2363,3.5698,3.9197,4.25,4.459,4.6626,4.8855,5.0156,5.1269,5.2187,5.2539,5.2402,5.168,5.1514,5.0996,4.9738,4.9668,4.9414,4.9031,4.8933,4.8933,4.9011,4.8933,4.8913,4.8913,4.8913,4.8718,4.8301,4.7831,4.7179,4.6351,4.543,4.4763,4.4293,4.3016,4.2129,4.1436,3.9497,3.8433,3.7766,3.651,3.5693,3.497,0.0,0.0,0.0,0.0,0.0,0.0,0.0,0.0,0.0,0.0,0.0,0.0,0.0,0.0,0.0,0.0,0.0,0.0,0.0,0.0,0.0,2.3416,2.4186,2.4699,2.4922,2.7036,2.8667,2.9725,3.1577,3.2899,3.3669,3.3116,3.1865,3.0083,2.9292,2.8703,2.8339,2.8339,0.0,0.0,0.0,0.0,0.0,0.0,0.0,0.0,0.0,0.0,0.0,0.0,2.3879,2.3828,2.4023,0.0,0.0,0.0,0.0,0.0,2.5254,2.6348,2.7461,2.7878,2.8125,2.8242,2.8073,2.8027,2.802,2.802,2.8418,2.9062,3.0089,3.125,3.3117,3.6426,3.9238,4.1934,4.4453,4.6113,4.7676,4.9422,5.0293,5.1133,5.2012,5.1836,5.1621,5.1397,5.1016,5.0391,4.9523,4.9484,4.9316,4.8913,4.8913,4.8913,4.8913,4.8403,4.8267,4.8516,4.8516,4.8144,4.7489,4.6986,4.6164,4.5022,4.4054,4.3269,4.2515,4.1136,4.0106,3.9305,3.7527,3.6406,3.5606,3.4322,3.3409,3.2606,0.0,0.0,0.0,0.0,0.0,0.0,0.0,0.0,0.0,0.0,0.0,0.0,0.0,0.0,0.0,0.0,0.0,0.0,0.0,0.0,2.3705,2.3946,2.4939,2.5564,2.5667,2.7777,2.946,3.0663,3.225,3.3357,3.3958,3.2851,3.1504,3.0062,2.9371,2.8701,2.8119,2.8018,2.7534,0.0,0.0,0.0,0.0,0.0,0.0,0.0,0.0,0.0,0.0,0.0,0.0,0.0,0.0,0.0,0.0,2.3357,2.3806,2.4512,2.4965,2.6216,2.7448,2.7643,2.823,2.873,2.873,2.9219,2.9707,2.9805,3.043,3.123,3.2109,3.3906,3.6523,4.0313,4.2402,4.4219,4.6172,4.7558,4.8769,4.9883,5.0488,5.1055,5.1719,5.1191,5.0859,5.0928,5.0391,4.9797,4.9208,4.9188,4.8986,4.8544,4.8544,4.8485,4.8434,4.7692,4.7564,4.8021,4.7832,4.7334,4.6568,4.5954,4.4984,4.3704,4.2676,4.1689,4.0728,3.934,3.8273,3.7272,3.5782,3.4487,3.3316,3.2304,3.1539,3.0928,0.0,0.0,0.0,0.0,0.0,0.0,0.0,0.0,0.0,0.0,0.0,0.0,0.0,0.0,0.0,0.0,0.0,0.0,0.0,0.0,2.3472,2.4417,2.5468,2.6286,2.6753,2.8883,3.0735,3.2322,3.3862,3.4438,3.3958,3.2442,3.1165,3.0037,2.8821,2.8146,2.7901,2.745,2.6981,2.6507,0.0,0.0,0.0,0.0,0.0,0.0,0.0,0.0,0.0,0.0,0.0,0.0,0.0,0.0,2.3789,2.375,2.4062,2.4512,2.4965,2.5786,2.6705,2.7487,2.8894,3.0059,3.0059,3.1064,3.2081,3.2441,3.2871,3.3457,3.4316,3.6855,3.959,4.1874,4.375,4.5309,4.6655,4.8008,4.9004,4.9512,5.0293,5.082,5.0898,5.084,5.0488,4.9679,4.9562,4.9161,4.825,4.8184,4.7979,4.7541,4.7495,4.7332,4.6933,4.6895,4.706,4.7518,4.6724,4.6098,4.5545,4.4654,4.3695,4.2721,4.1353,4.0242,3.9334,3.7918,3.6849,3.5827,3.3693,3.1786,3.0236,3.0133,3.0061,3.0003,0.0,0.0,0.0,0.0,0.0,0.0,0.0,0.0,0.0,0.0,0.0,0.0,0.0,0.0,0.0,0.0,0.0,0.0,0.0,2.3296,2.3801,2.4465,2.5859,2.7012,2.7878,2.9653,3.1216,3.2491,3.3717,3.4054,3.3525,3.1936,3.074,2.9851,2.8597,2.7739,2.7272,2.6899,2.6279,2.5485,2.5337,0.0,0.0,0.0,0.0,0.0,0.0,0.0,0.0,0.0,2.3101,2.3179,2.3652,2.3789,2.3848,2.4102,2.4492,2.4887,2.5043,2.5923,2.6914,2.7545,2.9355,3.1094,3.1397,3.2883,3.4453,3.5391,3.5937,3.6528,3.7715,3.9512,4.1621,4.4062,4.5449,4.6714,4.8275,4.8965,4.9433,4.9883,5.0215,5.041,5.041,5.0176,4.9836,4.9504,4.9277,4.8811,4.8146,4.7821,4.7315,4.6633,4.629,4.5899,4.5518,4.4875,4.4644,4.481,4.5173,4.4758,4.3624,4.3054,4.1938,4.0396,3.936,3.8248,3.7096,3.5766,3.4832,3.4083,3.2117,3.077,2.9913,2.9913,2.9913,2.9913,0.0,0.0,0.0,0.0,0.0,0.0,0.0,0.0,0.0,0.0,0.0,0.0,0.0,0.0,0.0,0.0,0.0,0.0,2.2959,2.3344,2.3825,2.4465,2.5715,2.6988,2.8214,2.9653,3.124,3.2972,3.3838,3.3838,3.2996,3.1509,3.0305,2.9382,2.8137,2.7251,2.6654,2.6175,2.5506,2.4764,2.4615,2.4207,0.0,0.0,0.0,0.0,0.0,0.0,0.0,0.0,2.3101,2.3198,2.3809,2.3984,2.4062,2.4492,2.4848,2.5082,2.5082,2.5942,2.6992,2.7721,2.9805,3.2012,3.3125,3.4844,3.6601,3.8027,3.8769,3.9414,4.0332,4.1543,4.3125,4.5355,4.6504,4.7637,4.9121,4.9433,4.9648,4.9941,5.0098,5.0117,4.998,4.9707,4.9367,4.9141,4.8828,4.8318,4.7492,4.7031,4.6205,4.4984,4.4456,4.3841,4.3135,4.234,4.1821,4.1545,4.2162,4.2199,4.1657,4.1123,3.996,3.8321,3.7595,3.6614,3.5432,3.4411,3.3486,3.2505,3.1145,3.0303,2.9913,2.9913,2.9913,2.9913,0.0,0.0,0.0,0.0,0.0,0.0,0.0,0.0,0.0,0.0,0.0,0.0,0.0,0.0,0.0,0.0,0.0,0.0,2.2959,2.3007,2.3448,2.4441,2.5018,2.6051,2.7661,2.8763,3.0834,3.3958,3.4511,3.3982,3.2466,3.1189,2.988,2.8547,2.7419,2.6633,2.6134,2.5274,2.4743,2.4464,2.397,2.3667,0.0,0.0,0.0,0.0,0.0,0.0,0.0,0.0,2.3101,2.3237,2.4118,2.4391,2.4489,2.4965,2.5102,2.5102,2.5102,2.5747,2.6724,2.7988,3.0302,3.2902,3.5449,3.6996,3.8401,4.0157,4.123,4.1816,4.1816,4.2871,4.416,4.5469,4.6802,4.7936,4.8776,4.9238,4.9465,4.9465,4.9902,5.0,4.9523,4.9465,4.9141,4.8262,4.8203,4.7553,4.6178,4.5659,4.4471,4.2534,4.2005,4.1103,3.9696,3.9349,3.8728,3.7886,3.7513,3.8264,3.9839,3.8834,3.7743,3.6664,3.6097,3.5416,3.4633,3.4187,3.2908,3.1226,3.0794,3.0303,2.9913,2.9913,2.9913,2.9913,0.0,0.0,0.0,0.0,0.0,0.0,0.0,0.0,0.0,0.0,0.0,0.0,0.0,0.0,0.0,0.0,0.0,0.0,2.243,2.2791,2.3296,2.397,2.4843,2.6051,2.7661,2.9484,3.1069,3.2393,3.2537,3.2393,3.1912,3.0594,2.971,2.9194,2.815,2.7106,2.6147,2.5436,2.4766,2.4215,2.4082,2.3883,2.3705,0.0,0.0,0.0,0.0,0.0,0.0,0.0,0.0,0.0,2.4118,2.4391,2.4547,2.5289,2.5503,2.5581,2.5918,2.6646,2.7682,2.9238,3.1582,3.418,3.6777,3.8557,4.0372,4.2773,4.3457,4.3633,4.3633,4.4433,4.541,4.6406,4.7383,4.8223,4.8835,4.9011,4.9062,4.9062,4.9226,4.9246,4.9062,4.8789,4.8496,4.8223,4.7612,4.6927,4.6114,4.4682,4.3178,4.1626,4.0218,3.8981,3.7936,3.752,3.718,3.6903,3.611,3.6339,3.7502,3.6929,3.6104,3.5135,3.4742,3.4097,3.3309,3.2451,3.1592,3.075,3.0316,3.0003,2.9913,2.9913,2.9913,2.9913,0.0,0.0,0.0,0.0,0.0,0.0,0.0,0.0,0.0,0.0,0.0,0.0,0.0,0.0,0.0,0.0,0.0,0.0,0.0,2.2815,2.3224,2.377,2.4747,2.6051,2.7661,2.9388,3.0227,3.0107,3.0886,3.1155,3.0872,2.9713,2.915,2.9125,2.7834,2.6925,2.6262,2.5216,2.4607,2.434,2.4073,2.3999,2.4023,0.0,0.0,0.0,0.0,0.0,0.0,0.0,0.0,0.0,2.3945,2.4277,2.4528,2.5254,2.5581,2.5835,2.6484,2.7383,2.8652,3.0723,3.3215,3.5996,3.9434,4.1172,4.2598,4.4512,4.5039,4.5156,4.5156,4.5586,4.6152,4.6816,4.7318,4.7851,4.8327,4.8405,4.8405,4.8405,4.8405,4.8405,4.8405,4.8079,4.7716,4.7211,4.6645,4.5839,4.4658,4.3144,4.1503,3.9721,3.825,3.6903,3.5805,3.5302,3.5044,3.5029,3.4128,3.4052,3.4633,3.4786,3.4277,3.3323,3.3026,3.2672,3.2129,3.1374,3.0839,3.0513,2.9958,2.974,2.974,2.974,2.974,2.9766,0.0,0.0,0.0,0.0,0.0,0.0,0.0,0.0,0.0,0.0,2.3901,0.0,0.0,0.0,0.0,0.0,0.0,0.0,0.0,0.0,2.3176,2.377,2.4867,2.6147,2.7661,2.8715,2.8743,2.7762,2.9568,3.0153,2.9593,2.8745,2.852,2.8678,2.7112,2.6472,2.646,2.4856,2.4422,2.4776,2.4098,2.4043,2.4352,2.3945,0.0,0.0,0.0,0.0,0.0,0.0,0.0,0.0,2.3652,2.4043,2.443,2.4945,2.5391,2.5913,2.685,2.8059,2.9726,3.2324,3.5072,3.8298,4.2754,4.4121,4.4707,4.5605,4.6094,4.6367,4.6367,4.6387,4.6523,4.6831,4.6928,4.7129,4.7519,4.7578,4.7578,4.7578,4.7578,4.7558,4.7475,4.7379,4.6819,4.5494,4.5237,4.4233,4.2234,4.1137,3.9483,3.7237,3.615,3.4983,3.3597,3.2997,3.272,3.272,3.2046,3.1754,3.1783,3.2617,3.2438,3.148,3.1296,3.1187,3.1098,3.0667,3.0489,3.0373,2.9716,2.9446,2.9446,2.9446,2.9446,2.9486,0.0,0.0,0.0,0.0,0.0,0.0,0.0,0.0,0.0,0.0,0.0,0.0,0.0,0.0,0.0,0.0,0.0,0.0,0.0,0.0,2.2791,2.377,2.5564,2.6916,2.7685,2.8334,2.8491,2.8092,2.893,2.9187,2.8842,2.8843,2.8992,2.921,2.8274,2.7555,2.6944,2.5342,2.4786,2.4957,2.4124,2.4043,2.4352,2.3945,2.3789,0.0,0.0,0.0,0.0,0.0,0.0,0.0,2.3652,2.3848,2.4082,2.4867,2.5391,2.605,2.7598,2.9219,3.1074,3.3652,3.7266,4.0957,4.3633,4.457,4.5234,4.6406,4.6738,4.6753,4.6753,4.707,4.7226,4.6973,4.7226,4.748,4.7578,4.7578,4.7578,4.7578,4.7578,4.7326,4.6638,4.6234,4.5452,4.4141,4.3029,4.1945,4.0873,3.8887,3.7222,3.5983,3.4419,3.329,3.2602,3.2207,3.2002,3.2002,3.1607,3.1417,3.1432,3.1512,3.1252,3.0734,3.0674,3.0441,3.0035,2.9962,2.97,2.935,2.9165,2.9095,2.9095,2.9095,2.9095,2.9095,0.0,0.0,0.0,0.0,0.0,0.0,0.0,0.0,0.0,0.0,0.0,0.0,0.0,0.0,0.0,0.0,0.0,0.0,0.0,0.0,2.3272,2.4836,2.6195,2.7277,2.807,2.8358,2.8279,2.7818,2.8254,2.8479,2.846,2.8232,2.8496,2.9116,2.8031,2.7337,2.6907,2.5287,2.4667,2.4707,2.4043,2.4043,2.4352,2.3945,2.3789,2.373,2.3279,0.0,0.0,0.0,0.0,0.0,0.0,0.0,2.3948,2.4593,2.5078,2.584,2.7773,2.957,3.1914,3.6133,3.9492,4.2226,4.4004,4.457,4.5078,4.6367,4.6797,4.6948,4.7207,4.7246,4.7187,4.6928,4.6953,4.6973,4.6973,4.6797,4.666,4.666,4.6484,4.6094,4.5425,4.4905,4.3934,4.2223,4.1009,3.9746,3.8339,3.6682,3.5396,3.449,3.333,3.2522,3.2046,3.1724,3.1563,3.1563,3.1227,3.0829,3.045,3.0524,3.048,3.0405,2.9987,2.964,2.9379,2.9379,2.9206,2.8988,2.8841,2.8788,2.8788,2.8788,2.8788,2.8815,0.0,0.0,0.0,0.0,0.0,0.0,0.0,0.0,0.0,0.0,0.0,0.0,0.0,0.0,0.0,0.0,0.0,0.0,0.0,0.0,0.0,2.5733,2.634,2.7133,2.819,2.831,2.8024,2.7277,2.7643,2.7922,2.8097,2.7594,2.7902,2.8786,2.7426,2.6804,2.669,2.5079,2.4391,2.4352,2.3867,2.3926,2.4235,2.3848,2.3672,2.3633,2.324,2.3101,2.3101,2.3101,0.0,0.0,0.0,0.0,2.3867,2.4297,2.4785,2.5669,2.7812,3.0059,3.3066,3.8437,4.1055,4.2656,4.3984,4.4336,4.4726,4.5859,4.6484,4.6953,4.7383,4.7168,4.687,4.6792,4.6465,4.6191,4.6191,4.584,4.5566,4.5566,4.5254,4.4748,4.4021,4.3555,4.2371,4.0216,3.9095,3.7622,3.5665,3.4692,3.3791,3.2941,3.2431,3.2006,3.1622,3.1274,3.1071,3.1013,3.0609,3.0034,2.9327,2.9495,2.9731,2.9979,2.9174,2.8841,2.8841,2.8841,2.8841,2.8858,2.8617,2.8524,2.8524,2.8524,2.8524,2.8564,0.0,0.0,0.0,0.0,0.0,0.0,0.0,0.0,0.0,0.0,0.0,0.0,0.0,0.0,0.0,0.0,0.0,0.0,2.2309,0.0,0.0,2.4657,2.5234,2.6027,2.709,2.7565,2.7466,2.6783,2.7291,2.7477,2.7369,2.7844,2.8268,2.8607,2.7718,2.7127,2.669,2.5079,2.4391,2.4332,2.3532,2.3474,2.3828,2.3376,2.3179,2.3201,2.312,2.3101,2.3101,2.3101,2.3101,0.0,0.0,0.0,2.3867,2.4297,2.4976,2.6089,2.8235,3.2012,3.5976,3.8633,4.0605,4.2226,4.3496,4.4101,4.4551,4.5078,4.584,4.6523,4.6933,4.6928,4.6816,4.6445,4.6035,4.5762,4.5762,4.5391,4.5074,4.5074,4.5058,4.4388,4.2797,4.2274,4.0974,3.844,3.7064,3.5705,3.4314,3.3044,3.2167,3.1756,3.1283,3.0991,3.0907,3.0544,3.0176,2.9904,2.9206,2.8806,2.8724,2.8331,2.8289,2.8468,2.8341,2.8299,2.8299,2.8299,2.8299,2.8299,2.8259,2.8245,2.8245,2.8245,2.8245,2.8259,0.0,0.0,0.0,0.0,0.0,0.0,0.0,0.0,0.0,0.0,0.0,0.0,0.0,0.0,0.0,2.2228,2.2197,2.2197,2.2197,2.2694,2.3448,2.4465,2.5018,2.5811,2.6873,2.7019,2.6974,2.6708,2.6962,2.713,2.7223,2.7958,2.8289,2.8237,2.7776,2.7196,2.6527,2.5556,2.4703,2.4043,2.3652,2.3613,2.3792,0.0,0.0,0.0,0.0,0.0,2.3825,2.3825,2.3825,2.3825,2.3825,0.0,0.0,0.0,2.5059,2.5937,2.8574,3.2051,3.5449,3.7598,3.9629,4.1426,4.2695,4.334,4.3848,4.4531,4.498,4.5371,4.5738,4.5816,4.5801,4.5625,4.543,4.5312,4.5312,4.4941,4.457,4.4316,4.3874,4.2988,4.147,4.0754,3.9258,3.6712,3.546,3.4189,3.2664,3.1789,3.1256,3.1123,3.09,3.0707,3.0457,3.0076,2.9626,2.9053,2.8749,2.845,2.8206,2.8002,2.8044,2.8285,2.8021,2.8031,2.8179,2.8179,2.8179,2.8179,2.8179,2.8179,2.8179,2.8179,2.8179,2.8179,0.0,0.0,0.0,0.0,0.0,0.0,0.0,0.0,0.0,0.0,0.0,0.0,0.0,0.0,0.0,0.0,2.2197,2.2197,2.2197,2.2694,2.3392,2.429,2.4801,2.5546,2.6465,2.6423,2.6372,2.6342,2.6646,2.6909,2.7115,2.7887,2.8195,2.8075,2.7917,2.737,2.6523,2.5932,2.5015,2.3945,2.3945,2.3945,2.3945,0.0,0.0,0.0,0.0,0.0,0.0,2.4391,2.4391,2.4391,2.4391,2.4469,0.0,0.0,0.0,2.6118,2.8601,3.1319,3.3938,3.5976,3.8105,4.0039,4.1308,4.2109,4.2812,4.3574,4.3906,4.416,4.4473,4.4805,4.4977,4.4977,4.4801,4.4645,4.4645,4.4113,4.3604,4.3254,4.2493,4.1455,4.0147,3.9155,3.7584,3.5237,3.4007,3.2777,3.1414,3.0776,3.0484,3.0484,3.0412,3.0202,2.9925,2.9417,2.8806,2.8122,2.8079,2.785,2.754,2.754,2.7703,2.7989,2.7727,2.7804,2.8072,2.8072,2.8112,2.8179,2.8179,2.8179,2.8179,2.8179,2.8179,2.8179,0.0,0.0,0.0,0.0,0.0,0.0,0.0,0.0,0.0,0.0,0.0,0.0,2.2954,2.2604,2.2343,2.2213,2.2197,2.2197,2.2197,2.2694,2.3248,2.3818,2.429,0.0,2.5372,2.5683,2.5681,2.5367,2.6322,2.6816,2.6836,2.7501,2.7998,2.8288,2.8262,2.7773,2.6908,2.6069,2.5191,2.4352,2.4352,0.0,0.0,0.0,0.0,0.0,0.0,0.0,0.0,0.0,0.0,2.4391,2.4391,2.4707,2.5063,0.0,0.0,0.0,2.8086,2.9961,3.207,3.384,3.5859,3.7793,3.9082,4.0351,4.1445,4.1836,4.2578,4.3144,4.3183,4.4199,4.4977,4.4977,4.4316,4.3769,4.3769,4.27,4.1935,4.1916,4.113,4.0091,3.8815,3.7585,3.6106,3.4311,3.2613,3.1414,3.0859,3.0025,2.9565,2.9565,2.9326,2.9171,2.9185,2.8149,2.735,2.6881,2.664,2.6519,2.6479,2.6479,2.6626,2.6881,2.7202,2.7455,2.7722,2.7722,2.7924,2.8179,2.8179,2.8179,2.8179,2.8179,2.8179,2.8179,0.0,0.0,0.0,0.0,0.0,0.0,0.0,0.0,0.0,0.0,0.0,0.0,0.0,2.2389,2.2259,2.2197,2.2526,2.2718,2.2718,2.324,2.3729,2.4218,2.4332,2.4615,2.5158,2.5088,2.5074,2.5108,2.5632,2.6065,2.6378,2.7437,2.8074,2.8301,2.8301,2.7969,2.7428,2.6771,2.603,2.521,2.4941,0.0,0.0,0.0,0.0,0.0,0.0,0.0,0.0,0.0,0.0,0.0,0.0,0.0,2.5508,2.5508,2.6016,2.6738,2.7324,2.8848,3.0625,3.207,3.4043,3.6035,3.7617,3.8984,4.0195,4.1191,4.1855,4.2344,4.2617,4.3281,4.3769,4.3769,4.3281,4.2793,4.2519,4.1848,4.1103,4.0272,3.8996,3.7683,3.6421,3.4901,3.3468,3.2201,3.1081,3.0235,2.9726,2.9211,2.8934,2.8934,2.8822,2.856,2.8081,2.7378,2.6894,2.6547,2.644,2.6386,2.6386,2.6386,2.6453,2.6547,2.6653,2.7015,2.7483,2.7629,2.7762,2.7924,2.8112,2.8179,2.8179,2.8179,2.8179,2.8179,0.0,0.0,0.0,0.0,0.0,0.0,0.0,0.0,0.0,0.0,0.0,0.0,0.0,0.0,2.255,2.2718,2.3055,2.3272,2.3272,2.3753,2.4169,2.4489,2.4543,2.4778,2.523,2.483,2.4745,2.5039,2.5147,2.5396,2.5794,2.6873,2.7477,2.7656,2.7793,2.7793,2.7663,2.7207,2.6498,2.5698,2.5566,0.0,2.559,0.0,0.0,0.0,0.0,0.0,0.0,0.0,0.0,0.0,0.0,0.0,0.0,0.0,2.5913,2.6269,2.668,2.7734,2.9023,3.0332,3.1934,3.3652,3.5391,3.6777,3.8066,3.9432,4.0332,4.1016,4.1288,4.1716,4.2185,4.2598,4.2165,4.1658,4.123,4.0449,3.9597,3.8605,3.7057,3.5622,3.4463,3.2871,3.1493,3.0687,2.9766,2.9089,2.8701,2.8357,2.811,2.8013,2.8013,2.77,2.7133,2.684,2.6587,2.6386,2.6386,2.6386,2.6386,2.6386,2.6386,2.6386,2.6386,2.6667,2.7134,2.7321,2.7522,2.7722,2.7965,2.8098,2.8179,2.8179,2.8179,2.8179,0.0,0.0,0.0,0.0,0.0,0.0,0.0,0.0,0.0,2.2745,0.0,0.0,0.0,0.0,0.0,2.377,2.3842,2.3842,2.3818,2.4266,2.4513,2.4513,2.4902,2.5212,2.5493,2.4906,2.4751,2.5081,2.4851,2.4874,2.508,2.5769,2.6182,2.6387,2.6816,2.7226,2.7624,2.7168,2.6498,2.5796,2.623,2.6431,2.6465,0.0,0.0,0.0,2.7045,2.707,0.0,2.6562,0.0,0.0,0.0,0.0,0.0,0.0,0.0,2.5815,0.0,0.0,0.0,2.8528,2.9512,3.0605,3.2324,3.3711,3.5,3.6362,3.793,3.9127,3.9218,3.9547,4.0221,4.1445,4.1035,4.0375,3.9894,3.8458,3.7277,3.6839,3.5292,3.3925,3.3099,3.1474,3.029,2.9877,2.861,2.7853,2.7866,2.7486,2.7094,2.68,2.6787,2.6653,2.6373,2.636,2.636,2.636,2.636,2.636,2.636,2.6373,2.6373,2.6373,2.6386,2.6547,2.6774,2.6814,2.7161,2.7669,2.7696,2.7924,2.8179,2.8179,2.8179,2.8179,0.0,0.0,0.0,0.0,0.0,0.0,2.2414,2.2714,2.2956,0.0,0.0,0.0,2.3577,2.3881,2.4129,2.4273,2.4675,2.4723,2.4321,2.4777,2.5066,2.5066,2.5145,2.5149,2.507,2.4655,2.4436,2.4385,2.4331,2.4333,2.4371,2.5055,2.556,2.5913,2.6367,2.6621,2.6763,2.6621,2.6602,2.6615,2.6465,2.6783,0.0,0.0,0.0,0.0,0.0,2.8203,2.7871,0.0,2.7109,2.6719,0.0,0.0,0.0,0.0,0.0,0.0,2.5854,0.0,0.0,0.0,0.0,0.0,3.0655,3.1953,3.3274,3.4564,3.5684,3.6645,3.7316,3.7747,3.8045,3.8095,3.8724,3.8899,3.7859,3.6867,3.5713,3.4435,3.2671,3.128,3.0767,2.8922,2.7915,2.8213,2.7177,2.6705,2.7082,2.6626,2.6319,2.6238,2.5985,2.5838,2.5758,2.5758,2.5758,2.5758,2.5758,2.5758,2.5758,2.6024,2.6118,2.6131,2.6346,2.644,2.6533,2.6734,2.6921,2.7108,2.7535,2.7749,2.7884,2.8112,2.8179,2.8179,0.0,0.0,0.0,0.0,0.0,2.2526,2.2526,2.2983,2.332,0.0,0.0,0.0,2.4716,2.5204,2.5498,2.5498,2.5571,2.5481,2.5063,2.5152,2.5242,2.5259,2.5071,2.5009,2.5092,2.4555,2.4262,2.4262,2.3983,2.3848,2.3868,2.4333,2.4766,2.5171,2.5644,2.5937,2.6113,2.6113,2.6367,2.6758,2.69,0.0,0.0,2.8789,2.9082,0.0,0.0,0.0,2.9277,2.8699,2.7839,0.0,0.0,0.0,0.0,0.0,0.0,0.0,0.0,0.0,0.0,2.6641,0.0,0.0,2.8965,2.9883,3.0947,3.2218,3.3164,3.4069,3.4951,3.5428,3.5664,3.5493,3.5976,3.6289,3.5962,3.4953,3.3728,3.23,3.0681,2.947,2.8925,2.7418,2.663,2.6993,2.6248,2.5919,2.6253,2.5959,2.5772,2.5772,2.5598,2.5518,2.5518,2.5518,2.5518,2.5518,2.5518,2.5518,2.5518,2.5692,2.5772,2.5824,2.6079,2.6252,2.6265,2.652,2.6707,2.6867,2.7335,2.7589,2.7736,2.8072,2.8179,2.8179,0.0,0.0,2.3429,2.3296,2.3127,2.3031,2.3151,2.3609,2.3986,0.0,2.453,2.5234,2.6262,2.6796,0.0,0.0,2.6543,2.6109,2.5775,2.5324,2.5067,2.5062,2.4751,2.4786,2.5257,2.4509,2.42,2.4422,2.3776,2.3489,2.3529,2.3725,2.4043,2.4512,2.4926,0.0,2.5693,2.5693,2.5991,2.6523,2.737,2.8034,0.0,0.0,3.0332,3.0469,3.0879,3.1035,3.0908,2.9931,2.8496,0.0,0.0,0.0,0.0,0.0,2.5693,0.0,0.0,0.0,0.0,0.0,2.6348,0.0,2.737,2.7878,2.8496,2.9668,3.0586,3.1424,3.237,3.2822,3.3159,3.3371,3.3083,3.3153,3.4144,3.2971,3.1546,3.0437,2.9174,2.8125,2.7439,2.6528,2.5996,2.6038,2.5653,2.5424,2.5464,2.5438,2.5424,2.5464,2.5438,2.5411,2.5411,2.5411,2.5411,2.5411,2.5411,2.5411,2.5411,2.5451,2.5464,2.5478,2.5824,2.5944,2.5971,2.6265,2.6507,2.68,2.7094,2.7388,2.7682,2.8031,2.8152,2.8179,0.0,0.0,2.3344,2.3643,2.3288,2.3272,2.408,2.4675,2.5155,2.5588,2.6484,2.7325,2.795,2.8138,0.0,0.0,2.7453,2.6633,2.5392,2.508,2.471,2.4173,2.4336,2.4417,2.4357,2.4242,2.4104,2.3949,2.3428,2.3364,2.3739,2.3772,2.4222,2.4965,2.5063,2.5312,2.5693,2.5693,2.6167,2.6934,2.7487,2.8562,2.9883,3.0508,3.1221,3.1827,3.1905,3.1944,3.171,3.0126,2.8914,2.7851,0.0,0.0,0.0,2.5815,0.0,0.0,0.0,0.0,0.0,0.0,0.0,0.0,2.6627,2.6953,2.7441,2.8073,2.8601,2.9172,3.0099,3.0393,3.0762,3.1483,3.093,3.1024,3.2805,3.156,3.009,2.9232,2.758,2.6373,2.596,2.5149,2.4773,2.5056,2.4894,2.4879,2.5157,2.4943,2.4917,2.5157,2.493,2.4773,2.4773,2.4773,2.4773,2.4773,2.4773,2.4773,2.4773,2.505,2.5157,2.5184,2.5478,2.5598,2.5625,2.5957,2.6252,2.6507,2.68,2.7094,2.7429,2.7682,2.7978,2.8179,2.3693,2.3345,2.316,2.336,2.3825,2.4314,2.4825,2.5571,2.6195,2.646,2.7306,2.8227,2.9015,0.0,0.0,0.0,0.0,0.0,0.0,2.5379,2.4823,2.4191,2.4212,2.4213,2.4137,2.4164,2.4075,2.3943,2.3806,2.3864,2.4102,2.4102,2.4453,2.5082,2.5082,2.5312,2.5693,2.5693,2.6206,2.7051,2.7506,2.8582,3.0009,3.0859,3.1601,3.2257,3.2637,3.255,3.2022,3.0918,2.9668,0.0,2.7598,2.7051,2.666,0.0,2.6206,2.6089,0.0,0.0,0.0,2.6303,0.0,0.0,0.0,2.6387,2.6479,2.6934,2.7207,2.7624,2.8484,2.8598,2.8846,2.9703,2.9094,2.8946,3.0218,2.9379,2.8271,2.738,2.5957,2.4852,2.4354,2.3921,2.3727,2.3852,2.3915,2.4012,2.4195,2.4209,2.4342,2.4636,2.4502,2.4452,2.4599,2.4599,2.4599,2.4599,2.4599,2.4599,2.4599,2.4759,2.4863,2.4877,2.517,2.5291,2.5317,2.5611,2.5944,2.6252,2.6653,2.7001,2.7349,2.7589,2.7924,2.8179,2.3039,2.3007,2.3055,2.3272,2.441,2.5372,2.5571,2.6436,2.7114,2.7349,2.8068,2.8905,2.9832,0.0,0.0,0.0,0.0,0.0,0.0,0.0,2.5032,2.4367,2.4221,2.4175,2.4222,2.4249,2.4244,2.4244,2.4349,2.4453,2.4531,2.4531,2.4785,2.5219,2.5219,2.5391,2.5693,2.5693,2.6206,2.7025,2.7402,2.8425,2.9852,3.0957,3.1758,3.2413,3.3144,3.2871,3.214,3.166,3.0381,2.8965,2.8555,2.7832,0.0,0.0,0.0,0.0,0.0,0.0,0.0,0.0,0.0,2.6387,0.0,0.0,0.0,2.6191,2.6269,2.6504,2.7311,2.7169,2.724,2.8114,2.7491,2.7046,2.7581,2.6972,2.6225,2.558,2.4514,2.3567,2.2888,2.269,2.2605,2.2579,2.2806,2.3033,2.3105,2.3434,2.379,2.4115,2.4115,2.4262,2.4519,2.4519,2.4546,2.4599,2.4599,2.4599,2.4599,2.4599,2.4599,2.4613,2.489,2.4997,2.5024,2.5304,2.5598,2.5957,2.6453,2.6907,2.7336,2.7522,2.7884,2.8179,2.3095,2.3007,2.3272,2.4177,2.4867,2.5619,2.6561,2.7229,2.795,2.8907,2.9732,3.0377,0.0,0.0,0.0,0.0,0.0,0.0,2.6577,0.0,0.0,2.4189,2.4275,2.4364,2.4382,2.4598,2.4723,2.4723,2.451,2.4609,2.5024,2.5024,2.5234,2.564,2.564,2.5659,2.5693,2.5693,2.6206,2.6986,2.707,2.8293,3.0186,3.0762,3.1699,3.2793,3.323,3.2871,3.214,0.0,3.0625,2.9442,0.0,2.8262,2.7624,2.7624,0.0,0.0,0.0,0.0,0.0,0.0,2.6699,0.0,0.0,0.0,2.5718,2.5776,0.0,2.5932,2.6445,0.0,0.0,2.6865,2.6062,2.548,2.5924,2.4744,2.4084,2.4746,2.3583,2.2511,2.1837,2.1484,2.1301,2.1309,2.1622,2.201,2.2498,2.2806,2.3268,2.3843,2.3857,2.3955,2.4249,2.4249,2.4346,2.4599,2.4599,2.4599,2.4599,2.4599,2.4599,2.4599,2.4639,2.4653,2.4679,2.501,2.5304,2.5598,2.5957,2.6586,2.7309,2.7349,2.771,2.8179,2.3529,2.3681,2.3984,2.4417,2.5474,2.6388,2.6825,2.7878,2.8847,2.9445,3.0082,3.0713,0.0,0.0,0.0,0.0,0.0,2.8975,0.0,0.0,0.0,0.0,2.4583,2.455,2.4391,2.4779,2.4968,2.4968,2.5106,2.5249,2.5449,2.5449,2.5542,2.5693,2.5693,2.5854,2.6113,2.6113,2.6602,2.7448,2.7656,2.8594,2.9902,3.0332,3.1445,3.2851,3.3281,3.3047,3.2461,0.0,3.1191,0.0,0.0,0.0,0.0,2.8476,0.0,0.0,0.0,0.0,0.0,0.0,0.0,0.0,2.6758,0.0,2.5693,0.0,0.0,0.0,0.0,0.0,0.0,0.0,2.5252,2.472,2.4976,2.4013,2.3382,2.3634,2.2513,2.1428,2.0621,2.0424,2.0274,2.0124,2.0521,2.0962,2.139,2.2037,2.2666,2.3255,2.342,2.3661,2.3955,2.3991,2.4102,2.4382,2.4382,2.4439,2.4599,2.4599,2.4599,2.4599,2.4599,2.4599,2.4613,2.4733,2.509,2.5518,2.5651,2.6239,2.7028,2.7242,2.7563,2.7951,2.4403,0.0,2.4561,2.4681,2.5931,2.7023,2.7397,2.869,2.9708,2.9891,3.0485,0.0,3.2052,3.1973,0.0,0.0,3.1552,3.039,0.0,0.0,2.6973,0.0,0.0,0.0,0.0,2.5273,2.5395,2.5254,2.5562,2.5693,2.5693,2.5693,2.5693,2.5693,2.5693,2.5952,2.6387,2.6387,2.6979,2.7897,2.8164,2.8894,2.9852,3.0517,3.1601,3.2851,3.3281,3.3144,3.2754,3.2472,3.1699,0.0,3.0625,3.0126,2.9559,0.0,0.0,0.0,2.9023,0.0,0.0,0.0,0.0,0.0,0.0,0.0,0.0,0.0,2.5971,0.0,0.0,0.0,0.0,0.0,0.0,2.4201,2.4283,2.3548,2.2944,2.2749,2.1639,2.0557,1.9762,1.9591,1.9433,1.9189,1.9586,2.001,2.0414,2.1221,2.197,2.2639,2.2913,2.326,2.3647,2.3647,2.3794,2.4088,2.4168,2.4315,2.4479,2.4559,2.4599,2.4599,2.4599,2.4599,2.4599,2.4599,2.4893,2.5398,2.5478,2.5959,2.6627,2.7001,2.7375,2.7722,2.5925,2.5186,2.4657,2.5162,2.6171,2.7325,2.8634,2.9754,3.0456,0.0,0.0,0.0,0.0,0.0,0.0,0.0,0.0,3.1669,3.0591,0.0,2.8338,0.0,0.0,2.6738,0.0,0.0,2.6133,2.5698,2.5674,2.5693,2.5693,2.5693,2.5693,2.5693,2.5693,2.5952,2.6387,2.6387,2.7135,2.8281,2.8281,2.9043,3.0312,3.1651,3.2413,3.2851,3.3281,0.0,3.2793,3.2773,3.1934,3.0957,3.1348,0.0,0.0,0.0,0.0,0.0,0.0,0.0,0.0,2.9023,0.0,0.0,0.0,0.0,2.6947,0.0,0.0,0.0,0.0,0.0,0.0,0.0,0.0,0.0,0.0,2.3073,2.2485,2.2322,2.107,2.002,1.9471,1.9112,1.8808,1.8545,1.8798,1.9196,1.98,2.0401,2.1154,2.1991,2.2298,2.2705,2.3305,2.3305,2.3487,2.383,2.4075,2.4209,2.4222,2.4466,2.4599,2.4599,2.4599,2.4599,2.4599,2.4599,2.4823,2.5117,2.5411,2.5705,2.6091,2.6627,2.7201,2.7696,0.0,0.0,2.5983,2.6303,2.6964,2.7837,2.8999,3.0038,0.0,0.0,3.2668,0.0,0.0,3.5059,3.5376,0.0,0.0,3.3579,3.2143,3.0868,0.0,0.0,0.0,2.7409,0.0,0.0,0.0,2.6172,2.5854,2.5693,2.5693,2.5693,2.5693,2.5693,2.5693,2.6108,2.6816,2.7135,2.7839,2.875,2.9316,3.0332,3.1573,3.2022,3.2124,3.2092,3.2819,3.2835,3.2523,3.2486,3.2181,3.1825,3.1932,3.167,3.124,3.0781,3.0566,3.0478,3.0478,3.0048,2.9696,3.0117,0.0,0.0,0.0,0.0,0.0,0.0,0.0,0.0,0.0,0.0,0.0,0.0,0.0,0.0,0.0,2.3163,2.2215,2.146,2.0804,1.9963,1.8851,1.8638,1.8398,1.7943,1.8156,1.8556,1.9156,1.993,2.0788,2.1703,2.2164,2.2605,2.302,2.3054,2.318,2.3474,2.3581,2.3728,2.3928,2.4222,2.4356,2.4369,2.4519,2.4599,2.4599,2.4599,2.481,2.5128,2.5184,2.5569,2.6065,2.6613,2.6947,2.7175,2.6909,2.6837,2.6728,2.6581,2.7068,2.7911,2.9106,3.0444,0.0,0.0,3.3944,0.0,3.6029,0.0,3.7239,0.0,3.6567,3.558,3.4271,3.2863,0.0,3.0537,2.957,0.0,0.0,0.0,0.0,0.0,2.5932,2.5693,2.5693,2.5693,2.5693,2.5693,2.5693,2.6186,2.7006,2.7324,2.8105,2.9219,3.0098,3.1035,3.1953,3.214,3.213,3.2119,3.2561,3.2581,3.2384,3.2194,3.213,3.2102,3.2081,3.201,3.1869,3.1325,3.1259,3.1377,3.1377,3.0967,3.0595,3.0849,3.0059,0.0,2.8828,0.0,2.7903,0.0,0.0,0.0,0.0,0.0,0.0,0.0,0.0,0.0,0.0,2.3188,2.2207,2.1053,2.0591,1.9828,1.8527,1.8396,1.8187,1.7635,1.7756,1.8076,1.8556,1.9316,2.0174,2.1087,2.175,2.2298,2.2733,2.284,2.3,2.3166,2.3238,2.342,2.3621,2.4022,2.4209,2.4222,2.4479,2.4599,2.4599,2.4599,2.4719,2.493,2.5037,2.5409,2.5891,2.6333,2.664,2.6854,2.7351,2.7235,2.6839,2.6081,2.664,2.7695,2.9102,3.0963,3.2468,0.0,3.513,3.6646,3.7394,3.8039,3.8607,3.9119,3.8351,3.7538,3.6792,3.515,0.0,0.0,3.2235,3.0976,2.9715,0.0,0.0,0.0,2.5971,2.5713,2.5693,2.5693,2.5693,2.5693,2.5693,2.6186,2.6967,2.7031,2.8027,2.9696,3.0576,3.1152,3.1533,3.1992,3.2428,3.2765,3.2466,3.2358,3.2262,3.1937,3.1789,3.174,3.174,3.1694,3.1597,3.1577,3.1883,3.2207,3.2207,3.2198,3.1983,3.1172,3.0937,3.0684,0.0,0.0,2.9525,0.0,0.0,0.0,0.0,0.0,0.0,0.0,0.0,0.0,0.0,0.0,2.2367,2.1078,2.0395,1.962,1.8501,1.8396,1.8187,1.7635,1.7608,1.7716,1.7996,1.8583,1.9303,2.017,2.1127,2.1863,2.2371,2.2712,2.2893,2.2893,2.3166,2.3278,2.3305,2.3928,2.4195,2.4222,2.4479,2.4599,2.4599,2.4599,2.4599,2.4626,2.4943,2.5251,2.5545,2.5904,2.6333,2.6867,2.7461,2.7029,2.6715,2.6823,2.7766,2.8808,2.9693,3.1172,3.2812,0.0,3.6272,3.7684,3.8591,3.9364,3.9815,3.968,3.8896,0.0,0.0,0.0,0.0,3.4394,3.3144,3.2012,3.1035,2.9531,0.0,2.737,0.0,2.603,2.5693,2.5693,2.5693,2.5693,2.5693,2.601,2.6582,2.7252,2.8503,3.0106,3.0664,3.0986,3.1185,3.1598,3.1741,3.1734,3.1939,3.1699,3.1235,3.0843,3.0707,3.0731,3.0988,3.1253,3.1455,3.1408,3.1782,3.2266,3.2266,3.1985,3.1717,3.1902,3.1422,3.0859,3.0673,3.0181,0.0,0.0,0.0,0.0,0.0,0.0,0.0,0.0,0.0,0.0,0.0,0.0,0.0,2.1027,2.0075,1.9205,1.8475,1.8396,1.8187,1.7635,1.7608,1.7716,1.7996,1.8583,1.9303,2.017,2.1127,2.1863,2.2371,2.2712,2.2893,2.2893,2.2974,2.31,2.3305,2.3714,2.3995,2.4222,2.4479,2.4599,2.4599,2.4599,2.4599,2.4613,2.4679,2.5026,2.5571,2.6092,2.6507,2.6787,2.7558,2.7212,2.7123,2.7678,2.8786,2.9775,3.0226,3.1851,3.3765,3.5828,3.7559,0.0,3.9906,4.044,4.0737,4.0741,3.9922,0.0,3.9045,0.0,0.0,3.6406,3.4805,3.3437,3.2333,3.0664,0.0,2.7702,0.0,2.6172,2.5693,2.5693,2.5693,2.5693,2.5693,2.5952,2.6465,2.7526,2.8738,2.9961,3.0295,3.0664,0.0,3.0944,3.0815,3.0602,3.072,3.0717,3.0538,2.987,2.9641,2.9674,2.987,3.026,3.071,3.0829,3.1217,3.1671,3.1828,3.1508,3.1241,3.1497,3.1293,3.0999,3.0817,3.0577,3.0337,3.0219,2.955,2.8717,0.0,0.0,0.0,0.0,0.0,0.0,0.0,0.0,0.0,0.0,1.9739,1.9011,1.8305,1.8227,1.8055,1.7635,1.7608,1.7662,1.7809,1.841,1.9078,1.9826,2.086,2.1643,2.2218,2.2679,2.2893,2.2893,2.2893,2.3033,2.3305,2.3634,2.3964,2.4222,2.4479,2.4599,2.4599,2.4599,2.4599,2.4613,2.4746,2.5104,2.5571,2.6065,2.6386,2.664,2.7611,2.7568,2.78,2.8562,2.9709,3.073,3.1301,3.3063,3.5006,3.6921,3.8711,4.016,4.1113,4.1211,4.1348,4.1758,4.1016,4.0489,4.0489,3.8967,3.8203,3.8513,3.6601,3.4883,3.3425,3.1816,2.995,0.0,0.0,2.6211,2.5693,2.5659,2.5659,2.5693,2.5659,2.5932,2.6543,2.7715,2.873,2.9553,2.9746,3.015,3.0632,3.0148,2.9721,2.9342,2.9171,2.9441,2.9817,2.8888,2.8543,2.846,2.8443,2.8853,2.9392,2.973,3.0127,3.0541,3.0888,3.0748,3.05,3.0517,3.0789,3.099,3.0664,3.0823,3.0957,3.0741,3.0065,2.9275,2.8462,0.0,0.0,0.0,0.0,0.0,0.0,0.0,0.0,0.0,0.0,0.0,1.8069,1.799,1.7885,1.7608,1.7608,1.7608,1.7608,1.8156,1.8786,1.9374,2.0494,2.139,2.1977,2.2599,2.2893,2.2893,2.2893,2.3046,2.3394,2.3647,2.3991,2.4275,2.4492,2.4599,2.4599,2.4599,2.4599,2.4626,2.497,2.5251,2.5545,2.5891,2.6185,2.6386,2.7407,2.7677,2.8295,2.9525,3.0616,3.2163,3.4707,3.533,3.6017,3.7515,3.8947,4.0212,4.1113,4.1211,4.1348,4.1758,4.1016,0.0,0.0,0.0,0.0,3.8066,3.7012,3.5508,3.3425,3.2079,3.0351,0.0,0.0,2.6479,2.5674,2.5352,2.5371,2.5698,2.5352,2.582,2.6934,2.7545,2.8342,2.9217,2.9632,2.9435,2.8954,2.918,2.8579,2.7668,2.7919,2.8075,2.8093,2.7619,2.7085,2.6588,2.6638,2.6707,2.6807,2.7228,2.7989,2.8808,2.9136,2.9318,2.9513,3.0107,3.0283,3.0429,3.1015,3.0959,3.0741,3.0711,3.0106,2.928,2.8194,0.0,0.0,0.0,0.0,0.0,0.0,0.0,0.0,0.0,0.0,1.8396,1.8043,1.799,1.7885,1.7608,1.7608,1.7608,1.7608,1.8156,1.8786,1.9374,2.0494,2.139,2.1977,2.2599,2.2893,2.2893,2.2893,2.3188,2.3688,2.379,2.4062,2.4532,2.4572,2.4599,2.4599,2.4599,2.4599,2.4626,2.497,2.5251,2.5545,2.5891,2.6185,2.6386,2.8805,2.9153,2.9782,3.1117,3.2546,3.4238,3.6367,3.7567,3.8557,3.9458,4.0348,4.1211,4.211,4.1758,4.166,4.209,4.1348,4.0859,4.0859,3.9609,3.8789,3.8594,3.7148,3.5625,3.4121,3.2617,3.0781,2.8613,0.0,0.0,2.5391,2.52,2.52,2.5391,2.541,2.6016,2.7025,2.7324,2.7968,2.8832,2.8763,2.8443,2.793,2.7457,2.6683,2.5855,2.5834,2.5607,2.541,2.6152,2.6014,2.5484,2.5188,2.5216,2.5388,2.5813,2.6279,2.6813,2.7267,2.7463,2.7713,2.8376,2.8936,2.941,2.981,3.0043,3.0124,2.9969,2.961,2.8878,2.7398,2.5809,0.0,0.0,0.0,0.0,0.0,0.0,0.0,0.0,0.0,0.0,0.0,1.7793,1.7753,1.7608,1.7608,1.7608,1.7608,1.8009,1.8531,1.9118,2.0267,2.1162,2.1783,2.2532,2.2893,2.2893,2.2893,2.3134,2.3541,2.3736,2.4008,2.4386,2.4532,2.4599,2.4599,2.4599,2.4599,2.4613,2.4796,2.5024,2.5331,2.5611,2.5919,2.6225,3.043,3.0948,3.1633,3.2966,3.4714,3.6426,3.7891,3.9648,4.0918,4.1269,4.1601,4.209,4.2851,4.2187,4.1836,4.2266,4.1601,4.1211,4.1211,3.9666,3.8809,3.9062,3.7187,3.5664,3.459,3.3117,3.126,0.0,0.0,0.0,2.5375,2.5082,2.4945,2.4984,2.5464,2.6186,2.7025,2.7142,2.7671,2.8361,2.7897,2.741,2.687,2.5806,2.4887,2.4162,2.3946,2.3493,2.3175,2.4506,2.4732,2.4386,2.3975,2.3979,2.4145,2.4439,2.4568,2.478,2.5407,2.5603,2.5853,2.6628,2.7505,2.8237,2.8447,2.899,2.9377,2.9035,2.8764,2.8084,2.6493,2.5127,2.3842,0.0,0.0,0.0,0.0,0.0,0.0,0.0,0.0,0.0,1.7635,1.7608,1.7608,1.7608,1.7608,1.7608,1.7608,1.7849,1.8289,1.8876,2.0,2.0927,2.1582,2.2398,2.284,2.2893,2.2893,2.3033,2.3305,2.3634,2.3964,2.4222,2.4479,2.4559,2.4506,2.4506,2.4466,2.4426,2.4479,2.473,2.5024,2.5384,2.5705,2.6038,3.1348,3.2335,3.3567,3.4896,3.6523,3.8398,4.0526,4.1308,4.1699,4.1738,4.1777,4.1973,4.2401,4.1738,4.1406,4.1816,4.1445,4.1211,4.1211,3.9902,3.8984,3.8689,3.7379,3.5874,3.4192,3.3223,3.168,0.0,0.0,2.7174,2.623,2.5039,2.4473,2.4489,2.5328,2.6186,2.7025,2.7142,2.7427,2.7755,2.7472,2.6513,2.5286,2.4856,2.3899,2.2805,2.3091,2.2964,2.2668,2.2771,2.275,2.2783,2.3018,2.2758,2.2337,2.2381,2.2614,2.2993,2.3649,2.4069,2.4595,2.5853,2.6496,2.701,2.7935,2.8439,2.861,2.8259,2.7473,2.6597,2.5725,2.4782,2.3568,0.0,0.0,0.0,0.0,0.0,1.8664,1.807,0.0,0.0,1.7635,1.7608,1.7608,1.7608,1.7608,1.7608,1.7608,1.7849,1.8289,1.8876,1.977,2.0681,2.1582,2.2151,2.2592,2.2893,2.2893,2.3033,2.3305,2.3634,2.3964,2.4222,2.4479,2.4452,2.4249,2.4249,2.4088,2.391,2.4142,2.4422,2.4706,2.5304,2.5705,2.6038,3.3984,3.4844,3.5703,3.6738,3.8125,3.9492,4.0605,4.1367,4.1894,4.2148,4.2168,4.2246,4.2362,4.1894,4.1621,4.1777,4.1426,4.0996,4.0449,3.9414,3.8516,3.7832,3.6816,3.5703,3.4473,3.3359,3.1992,0.0,0.0,0.0,0.0,2.5324,2.4837,2.4732,2.5395,2.6256,2.7232,2.7168,2.7177,2.7163,2.6525,2.5432,2.4131,2.3371,2.2637,2.2006,2.191,2.1824,2.1738,2.1922,2.2203,2.2476,2.2233,2.2,2.1818,2.1791,2.1884,2.2104,2.2574,2.3074,2.3666,2.4409,2.5302,2.6116,2.6511,2.7003,2.7248,2.6697,2.6291,2.5748,2.4832,2.4055,2.3083,2.1586,0.0,0.0,0.0,0.0,0.0,1.8036,0.0,1.7714,1.7608,1.7608,1.7608,1.7608,1.7608,1.7608,1.7608,1.7849,1.8289,1.8876,1.9947,2.0842,2.1582,2.2331,2.2773,2.2893,2.2893,2.3033,2.3305,2.3634,2.4022,2.4426,2.4359,2.4315,2.4195,2.4022,2.391,2.3817,2.3937,2.4115,2.4449,2.5037,2.5438,2.5758,3.6313,3.7031,3.7656,3.8379,3.9492,4.041,4.084,4.1406,4.1914,4.2207,4.1991,4.1913,4.2207,4.1875,4.1621,4.1621,4.123,4.0664,3.9941,3.8945,3.8066,3.7324,3.6484,0.0,3.4757,3.361,3.2354,3.0974,2.934,0.0,2.6415,2.5793,2.5251,2.4889,2.5481,2.6318,2.7276,2.7076,2.6842,2.6537,2.5659,2.4487,2.3199,2.2292,2.1727,2.1425,2.1172,2.1109,2.1149,2.1381,2.1757,2.2022,2.1687,2.1529,2.144,2.1448,2.1457,2.152,2.1866,2.2292,2.2793,2.3324,2.4255,2.5057,2.5257,2.5747,2.6022,2.5549,2.5304,2.4898,2.41,2.3377,2.2541,2.1408,0.0,0.0,0.0,1.8684,0.0,1.8009,1.7769,1.7608,1.7608,1.7608,1.7622,1.7716,1.7716,1.7716,1.7716,1.7902,1.8329,1.9025,2.0027,2.09,2.1582,2.2372,2.2853,2.3027,2.3027,2.3166,2.3474,2.3768,2.4115,2.4466,2.4289,2.4102,2.3928,2.3728,2.3629,2.3549,2.3607,2.3821,2.4142,2.473,2.5184,2.5585,3.7855,3.8594,3.9316,3.9785,4.0586,4.1348,4.1719,4.1797,4.1797,4.1816,4.1074,4.0859,4.1719,4.1426,4.1211,4.1211,4.0781,4.0351,3.9922,3.8652,3.7734,0.0,0.0,3.5617,3.4801,3.3989,3.2772,3.111,0.0,0.0,2.7456,2.6399,2.546,2.4736,2.5532,2.6298,2.6992,2.6797,2.6405,2.5837,2.4959,2.3806,2.2543,2.1853,2.1393,2.1109,2.1109,2.1109,2.1109,2.1109,2.1122,2.1162,2.1489,2.1381,2.1109,2.1109,2.1109,2.1172,2.152,2.1614,2.1866,2.2856,2.3355,2.379,2.4456,2.4857,2.5103,2.5103,2.4579,2.4009,2.3657,2.2841,2.1978,2.1304,0.0,0.0,0.0,1.8888,0.0,1.8049,1.7769,1.7608,1.7608,1.7608,1.7716,1.7996,1.8009,1.8009,1.8009,1.7995,1.8423,1.9361,1.9933,2.0655,2.1582,2.2138,2.2692,2.3292,2.3292,2.3474,2.3803,2.4062,2.4209,2.4209,2.4209,2.3875,2.3305,2.3305,2.3153,2.2934,2.3207,2.3514,2.3884,2.4422,2.4973,2.5558,3.9474,3.9687,3.9902,4.0683,4.1035,4.125,4.1348,4.088,4.0492,4.0492,3.9779,3.9376,3.9644,3.9836,3.9797,3.951,3.9089,3.8553,3.7826,3.7136,3.6428,3.5685,3.5398,3.5005,3.4484,3.3416,3.23,3.1246,2.9733,2.8193,2.6609,2.5336,2.473,2.4698,2.5023,2.5453,2.5951,2.5927,2.5406,2.4591,2.3854,2.2918,2.1853,2.1425,2.1204,2.1109,2.1109,2.1109,2.1109,2.1109,2.1109,2.1122,2.1216,2.1189,2.1109,2.1109,2.1109,2.1109,2.1235,2.1425,2.1677,2.201,2.2512,2.2981,2.3199,2.3324,2.3386,2.3386,2.323,2.291,2.2344,2.1845,2.1292,2.0699,1.9985,0.0,1.9411,0.0,1.8716,1.8623,1.8384,1.8196,1.8196,1.8196,1.8237,1.8343,1.8343,1.8343,1.8343,1.8731,1.9172,1.9653,2.0646,2.1395,2.1877,2.2465,2.2926,2.3292,2.3292,2.3581,2.4075,2.4155,2.4209,2.4182,2.3781,2.3465,2.3278,2.31,2.2987,2.2934,2.3207,2.3514,2.387,2.4386,2.4973,2.5558,4.0156,4.0078,4.0021,4.0394,4.0491,4.0453,4.0299,3.9798,3.9376,3.9223,3.8633,3.8027,3.7591,3.7632,3.7821,3.8217,3.7746,3.7071,3.6227,3.576,3.5201,3.4527,3.4508,3.424,3.3705,3.2805,3.1769,3.0538,2.872,2.7036,2.5524,2.4672,2.4409,2.4642,2.4666,2.5005,2.5493,2.5121,2.4545,2.3837,2.3043,2.2261,2.1551,2.1235,2.1109,2.1109,2.1109,2.1109,2.1109,2.1109,2.1109,2.1109,2.1109,2.1109,2.1109,2.1109,2.1109,2.1109,2.1109,2.1267,2.1457,2.1583,2.1915,2.2261,2.2386,2.2418,2.2418,2.2418,2.2418,2.2267,2.1852,2.1352,2.0884,2.0495,1.9861,1.9401,1.9401,0.0,1.889,0.0,0.0,1.849,1.849,1.849,1.8544,1.8651,1.8651,1.8744,1.8971,1.9254,1.9629,2.012,2.1087,2.1783,2.2151,2.2739,2.3193,2.35,2.3679,2.3972,2.4369,2.4249,2.4142,2.4022,2.3647,2.3434,2.3292,2.3268,2.3241,2.3255,2.342,2.3674,2.3981,2.4342,2.4917,2.5545,3.9905,3.9788,3.9675,3.9316,3.9241,3.907,3.8728,3.8538,3.8329,3.7986,3.7444,3.6639,3.5524,3.4998,3.5322,3.6885,3.6366,3.565,3.4865,3.4374,3.3956,3.3573,3.3555,3.3242,3.2561,3.2086,3.0959,2.906,2.6937,2.5386,2.4409,2.4404,2.4421,2.4411,2.4428,2.4761,2.5329,2.4377,2.379,2.3386,2.2449,2.1853,2.152,2.1235,2.1109,2.1109,2.1109,2.1109,2.1109,2.1109,2.1109,2.1109,2.1109,2.1109,2.1109,2.1109,2.1109,2.1109,2.1109,2.1109,2.1172,2.1488,2.1583,2.1646,2.1961,2.201,2.201,2.201,2.201,2.201,2.201,2.1262,2.0681,2.0681,1.9953,1.9401,1.9401,1.9132,1.893,1.893,1.8731,1.8584,1.8584,1.8584,1.8704,1.897,1.8956,1.9199,1.9773,1.9589,1.9843,2.0686,2.1274,2.185,2.2378,2.2972,2.3487,2.3843,2.4332,2.4599,2.4586,2.4315,2.4035,2.383,2.379,2.3594,2.3345,2.3661,2.3803,2.3803,2.383,2.3968,2.4209,2.4249,2.4796,2.5518,3.9013,3.8689,3.8537,3.8785,3.8576,3.8329,3.8252,3.7174,3.6288,3.6212,3.4812,3.3719,3.3419,3.2537,3.1976,3.2053,3.2699,3.276,3.2028,3.1582,3.1309,3.1224,3.1189,3.1118,3.0941,2.9994,2.8619,2.6759,2.5495,2.4726,2.4467,2.3935,2.3694,2.3728,2.3485,2.3339,2.3287,2.3063,2.2606,2.2041,2.179,2.152,2.1204,2.1141,2.1109,2.1109,2.1109,2.1109,2.1109,2.1109,2.1109,2.1109,2.1109,2.1109,2.1109,2.1109,2.1109,2.1109,2.1109,2.1109,2.1109,2.1204,2.1235,2.1235,2.133,2.133,2.133,2.133,2.133,2.133,2.133,2.0783,2.0318,2.0318,1.9805,1.9401,1.9401,1.9334,1.9294,1.9294,1.9399,1.9492,1.9492,1.9492,1.9613,1.9877,1.9506,1.9426,1.9786,1.9947,2.0227,2.0699,2.1274,2.1756,2.2084,2.2913,2.3581,2.4102,2.4426,2.4599,2.4586,2.4102,2.3955,2.4075,2.3634,2.3514,2.371,2.3777,2.3803,2.383,2.4022,2.4142,2.4262,2.4703,2.5144,2.5545,3.7614,3.7371,3.7129,3.7051,3.6823,3.652,3.5932,3.507,3.4346,3.3778,3.2818,3.194,3.1456,3.0814,3.015,2.942,3.0389,3.0831,3.0254,3.0023,2.9803,2.9624,2.9624,2.9445,2.9071,2.8453,2.7292,2.5482,2.4626,2.4058,2.3747,2.3372,2.329,2.345,2.3112,2.2906,2.2762,2.2486,2.2086,2.1583,2.1425,2.1267,2.1109,2.1109,2.1109,2.1109,2.1109,2.1109,2.1109,2.1109,2.1109,2.1109,2.1109,2.1109,2.1136,2.1269,2.1216,2.1109,2.1109,2.1109,2.1149,2.1283,2.1341,2.1349,2.1483,2.1403,2.1341,2.1341,2.1203,2.1109,2.1109,2.0597,2.0197,2.0197,1.9746,1.9401,1.9401,1.9401,1.9441,1.9575,1.9706,1.9853,1.9987,1.997,1.9983,2.004,1.9867,1.9826,1.9987,2.0117,2.0344,2.0699,2.1408,2.1984,2.2412,2.3273,2.3955,2.4359,2.4519,2.4532,2.4386,2.3981,2.3897,2.3981,2.3674,2.3701,2.3981,2.4115,2.4168,2.4182,2.4342,2.4489,2.4636,2.4957,2.5382,2.5732,3.5877,3.5678,3.5438,3.4782,3.4576,3.42,3.3196,3.293,3.2456,3.1453,3.1184,3.0686,2.9666,2.944,2.8989,2.7999,2.8777,2.9148,2.8882,2.8866,2.8671,2.8259,2.8259,2.7934,2.7245,2.7128,2.6315,2.4734,2.4113,2.35,2.2893,2.2893,2.3065,2.3324,2.2991,2.2838,2.2887,2.2322,2.192,2.1642,2.1316,2.1176,2.1176,2.1122,2.1109,2.1109,2.1109,2.1109,2.1109,2.1109,2.1109,2.1122,2.1162,2.1176,2.1229,2.1569,2.1475,2.1243,2.1243,2.1243,2.1309,2.1582,2.1649,2.1716,2.1957,2.1823,2.1649,2.1649,2.1408,2.1176,2.1176,2.0664,2.025,2.021,1.9786,1.9441,1.9401,1.9428,1.9548,1.9773,1.992,2.0094,2.0317,2.037,2.0317,2.0147,2.0241,2.029,2.033,2.029,2.0414,2.0699,2.1515,2.2278,2.296,2.3741,2.4289,2.4532,2.4532,2.4399,2.4195,2.3901,2.383,2.387,2.387,2.3995,2.4289,2.4492,2.4599,2.4599,2.4653,2.4863,2.5128,2.5222,2.5569,2.5998,3.3602,3.3305,3.3125,3.2973,3.2669,3.2419,3.2228,3.1616,3.1006,3.0546,2.9661,2.8867,2.8422,2.7806,2.7371,2.7181,2.702,2.6918,2.6874,2.6859,2.6677,2.6276,2.6261,2.6202,2.6093,2.5497,2.4809,2.3981,2.3579,2.3236,2.2893,2.2893,2.2928,2.2948,2.2619,2.2492,2.2459,2.2143,2.1996,2.1929,2.1609,2.1515,2.1489,2.1203,2.1109,2.1109,2.1109,2.1109,2.1109,2.1109,2.1109,2.1149,2.1435,2.1515,2.1569,2.1863,2.1884,2.1844,2.1844,2.1844,2.1857,2.1911,2.1957,2.197,2.1977,2.1984,2.1957,2.1957,2.1716,2.1515,2.1515,2.1034,2.0521,2.0237,1.9947,1.9653,1.9428,1.9615,1.9746,1.98,2.0454,2.0922,2.0975,2.1234,2.1462,2.163,2.1002,2.0708,2.0962,2.0735,2.0659,2.0712,2.1328,2.2184,2.3247,2.3647,2.3981,2.4275,2.4275,2.4249,2.4195,2.3901,2.3901,2.4142,2.4142,2.4302,2.4532,2.4586,2.4599,2.4626,2.4917,2.5037,2.5181,2.5677,2.5917,2.6038,3.2475,3.2272,3.2072,3.1686,3.1462,3.1209,3.0747,3.0322,2.9906,2.9343,2.867,2.8132,2.7807,2.7298,2.691,2.6692,2.6509,2.6217,2.5777,2.596,2.591,2.5483,2.5483,2.5373,2.5139,2.4707,2.4228,2.3803,2.3474,2.3166,2.2893,2.2893,2.2893,2.2893,2.2746,2.2565,2.2371,2.2271,2.2124,2.1977,2.1877,2.1729,2.1569,2.1435,2.1256,2.1109,2.1109,2.1109,2.1109,2.1109,2.1216,2.1408,2.1542,2.1689,2.1877,2.2138,2.2111,2.1991,2.1991,2.1991,2.2017,2.2178,2.2218,2.2258,2.2452,2.2338,2.2218,2.2218,2.1991,2.177,2.1609,2.1234,2.0815,2.0521,2.0227,1.9957,1.9853,2.0094,2.0334,2.0481,2.1002,2.1448,2.1563,2.1596,2.1636,2.1783,2.1229,2.0962,2.1096,2.0989,2.0909,2.0909,2.163,2.2365,2.3073,2.3576,2.387,2.3968,2.3968,2.3968,2.3968,2.387,2.3964,2.4209,2.4209,2.4332,2.4599,2.4599,2.4599,2.4626,2.497,2.517,2.5371,2.5837,2.6091,2.6252,3.1464,3.123,3.0965,3.0446,3.0361,3.0129,2.9446,2.9368,2.9133,2.8476,2.8174,2.7882,2.7562,2.7173,2.6815,2.6436,2.6253,2.5887,2.5373,2.5433,2.5359,2.5079,2.5042,2.4931,2.4599,2.4428,2.417,2.391,2.3614,2.3305,2.2996,2.2928,2.2893,2.2893,2.2893,2.2773,2.2512,2.2411,2.2325,2.2211,2.2077,2.193,2.1783,2.1716,2.1502,2.1216,2.1216,2.1216,2.1216,2.1216,2.1435,2.1703,2.177,2.1943,2.2151,2.2432,2.2365,2.2224,2.2224,2.2224,2.2245,2.2458,2.2525,2.2579,2.284,2.2686,2.2525,2.2525,2.2285,2.2017,2.1823,2.151,2.1189,2.0842,2.0588,2.0384,2.0317,2.0588,2.0882,2.1176,2.1569,2.1877,2.2071,2.1984,2.189,2.189,2.1577,2.139,2.1323,2.1243,2.1216,2.1216,2.1937,2.2498,2.2893,2.3429,2.3736,2.3803,2.3803,2.3843,2.391,2.391,2.3995,2.4209,2.4275,2.4399,2.4599,2.4599,2.4599,2.4639,2.5037,2.5317,2.5558,2.5957,2.6238,2.6386,3.0038,2.9537,2.911,2.9056,2.9042,2.9003,2.8964,2.8925,2.8822,2.8437,2.8379,2.8131,2.7539,2.7155,2.6751,2.6414,2.5704,2.541,2.5726,2.5079,2.4673,2.4636,2.4636,2.4636,2.4599,2.4634,2.453,2.4266,2.3987,2.3707,2.3372,2.3065,2.2893,2.2893,2.2893,2.288,2.284,2.2539,2.2565,2.2786,2.2238,2.2138,2.2325,2.2058,2.181,2.1555,2.1555,2.1555,2.1555,2.1555,2.1743,2.2004,2.2271,2.2331,2.2445,2.2773,2.2853,2.2827,2.2827,2.2827,2.284,2.2853,2.2867,2.2867,2.2893,2.288,2.2867,2.2867,2.2592,2.2345,2.2352,2.2124,2.1737,2.1162,2.1056,2.0949,2.0712,2.0895,2.1189,2.1515,2.2017,2.2365,2.2392,2.2619,2.28,2.28,2.2485,2.2205,2.1937,2.1703,2.1555,2.1555,2.1877,2.2318,2.2893,2.3193,2.35,2.3803,2.3803,2.395,2.4168,2.4168,2.4182,2.4222,2.4452,2.4586,2.4599,2.4599,2.4599,2.4653,2.5226,2.5491,2.5585,2.6146,2.6373,2.6386,2.9335,2.9222,2.9134,2.893,2.8886,2.8886,2.8886,2.8725,2.8525,2.8423,2.8095,2.7744,2.7547,2.6959,2.6455,2.607,2.552,2.5152,2.5065,2.5005,2.4857,2.4599,2.4821,2.4887,2.4661,2.4759,2.4656,2.4351,2.4081,2.3756,2.3406,2.327,2.3099,2.2893,2.2893,2.2893,2.288,2.2539,2.2485,2.2552,2.2151,2.197,2.1903,2.1796,2.1689,2.1582,2.1582,2.1703,2.185,2.185,2.2017,2.2271,2.2378,2.2539,2.2746,2.2867,2.2893,2.2893,2.2893,2.2893,2.2893,2.2893,2.2893,2.2893,2.2893,2.2893,2.2893,2.2893,2.2813,2.2632,2.2458,2.2325,2.2124,2.1724,2.1657,2.1617,2.151,2.1737,2.1964,2.2071,2.2445,2.2733,2.2733,2.2632,2.2659,2.288,2.2452,2.2098,2.2024,2.1743,2.1756,2.2084,2.2191,2.2365,2.2579,2.2886,2.3193,2.35,2.35,2.3741,2.4209,2.4209,2.4302,2.4439,2.4559,2.4599,2.4599,2.4599,2.4599,2.4639,2.509,2.5358,2.5558,2.5972,2.6279,2.6386,2.8798,2.8842,2.8856,2.8637,2.8593,2.8593,2.8593,2.8379,2.8247,2.8247,2.7868,2.7583,2.7533,2.6819,2.6243,2.5836,2.5336,2.4931,2.4784,2.5152,2.5263,2.5005,2.5263,2.5222,2.4883,2.4901,2.4722,2.4414,2.4003,2.3679,2.3406,2.3304,2.3133,2.2893,2.2893,2.2893,2.288,2.2539,2.2385,2.2392,2.2098,2.1903,2.1729,2.1823,2.1796,2.1729,2.1823,2.1984,2.2124,2.2124,2.2311,2.2565,2.2565,2.2699,2.2893,2.2893,2.2893,2.2893,2.2893,2.2893,2.2893,2.2893,2.2893,2.2893,2.2893,2.2893,2.2893,2.2893,2.2893,2.284,2.2592,2.2565,2.2458,2.2164,2.2124,2.2124,2.2124,2.2298,2.2458,2.2552,2.2773,2.2893,2.2893,2.2672,2.2645,2.288,2.2519,2.2251,2.2124,2.197,2.2004,2.2371,2.2512,2.2565,2.2565,2.28,2.3094,2.3474,2.3474,2.3768,2.4342,2.4342,2.4412,2.4599,2.4599,2.4599,2.4599,2.4599,2.4599,2.4626,2.497,2.5197,2.5424,2.585,2.6118,2.6305,2.8394,2.8131,2.7911,2.7911,2.7911,2.7911,2.7911,2.7911,2.7911,2.7911,2.7911,2.778,2.751,2.6783,2.6173,2.5828,2.5065,2.4784,2.5203,2.558,2.58,2.58,2.58,2.5646,2.5302,2.503,2.4722,2.4414,2.3729,2.3406,2.3406,2.3065,2.2893,2.2893,2.2893,2.2893,2.288,2.2539,2.2385,2.2392,2.2098,2.1991,2.2017,2.2298,2.2231,2.2017,2.2311,2.2418,2.2418,2.2385,2.2619,2.2893,2.2893,2.2893,2.2893,2.2893,2.2893,2.2893,2.2893,2.2893,2.2893,2.2893,2.2893,2.2893,2.2893,2.2893,2.2893,2.2893,2.2893,2.2893,2.2893,2.2893,2.28,2.2472,2.2432,2.2432,2.2432,2.2432,2.2539,2.2867,2.2893,2.2893,2.2893,2.2893,2.2893,2.2893,2.2893,2.276,2.2432,2.2385,2.2385,2.2385,2.2746,2.2893,2.2893,2.2893,2.3201,2.3803,2.3803,2.4075,2.4599,2.4599,2.4599,2.4599,2.4599,2.4599,2.4613,2.4599,2.4599,2.4639,2.4957,2.5115,2.5181,2.577,2.5998,2.6038,2.7759,2.7824,2.7911,2.7911,2.7911,2.7911,2.7911,2.7721,2.7613,2.7613,2.7422,2.7122,2.6763,2.6271,2.5787,2.541,2.4894,2.4894,2.558,2.5983,2.6363,2.6619,2.6363,2.5961,2.5385,2.5356,2.5043,2.4468,2.4028,2.3679,2.3406,2.3304,2.3133,2.2893,2.2893,2.2893,2.288,2.2539,2.2385,2.2392,2.2098,2.189,2.1729,2.181,2.1796,2.1729,2.181,2.197,2.2151,2.2352,2.2472,2.2592,2.2827,2.2893,2.2893,2.2893,2.2893,2.2893,2.2893,2.2893,2.2893,2.2893,2.2893,2.2893,2.2893,2.2893,2.2893,2.2893,2.2893,2.2893,2.2893,2.2893,2.2867,2.2773,2.2913,2.3025,2.3025,2.3025,2.3052,2.318,2.2993,2.2893,2.2893,2.2893,2.2893,2.2893,2.2672,2.2605,2.276,2.2539,2.2512,2.276,2.2853,2.3,2.3193,2.3,2.3201,2.3803,2.3803,2.4075,2.4599,2.4599,2.4719,2.4943,2.4943,2.5064,2.5237,2.5024,2.4943,2.493,2.481,2.489,2.5104,2.5315,2.5636,2.6011,2.7291,2.7437,2.7531,2.7531,2.7531,2.7531,2.7531,2.7408,2.7291,2.7291,2.7005,2.6655,2.6436,2.591,2.5446,2.5226,2.4968,2.5189,2.5983,2.6239,2.6582,2.6998,2.6765,2.6373,2.5854,2.5441,2.4987,2.4442,2.3837,2.3441,2.3201,2.3201,2.3099,2.2893,2.2893,2.2893,2.288,2.2672,2.2525,2.2405,2.2231,2.1943,2.1596,2.1716,2.1689,2.1596,2.1716,2.1877,2.2031,2.2325,2.2498,2.2619,2.284,2.2893,2.2893,2.2893,2.2893,2.2893,2.2893,2.2893,2.292,2.302,2.2987,2.2893,2.2893,2.2987,2.3046,2.3046,2.3174,2.3215,2.3073,2.3046,2.3006,2.292,2.3054,2.314,2.314,2.314,2.314,2.314,2.3014,2.2893,2.2893,2.2893,2.2893,2.2893,2.2699,2.2672,2.288,2.2733,2.2672,2.2893,2.3014,2.314,2.3292,2.326,2.3496,2.3977,2.3977,2.4182,2.4599,2.4756,2.4917,2.5128,2.5197,2.5344,2.5491,2.5197,2.5115,2.5088,2.4719,2.4706,2.4917,2.5037,2.5422,2.5837,2.6983,2.6983,2.6983,2.6983,2.6983,2.6983,2.6983,2.6983,2.6983,2.6983,2.6655,2.6385,2.6363,2.5667,2.5189,2.5189,2.5263,2.563,2.6363,2.6436,2.6619,2.6998,2.6947,2.6815,2.6523,2.5477,2.475,2.4344,2.3412,2.292,2.2893,2.2893,2.2893,2.2893,2.2893,2.2893,2.2893,2.2893,2.2712,2.2425,2.2425,2.2111,2.1649,2.1917,2.1823,2.1582,2.185,2.1924,2.1991,2.2311,2.2619,2.2893,2.2893,2.2893,2.2893,2.2893,2.292,2.2934,2.2934,2.296,2.3041,2.33,2.3153,2.2974,2.2974,2.3166,2.3332,2.3292,2.3541,2.3647,2.3305,2.3252,2.3207,2.2974,2.2934,2.2947,2.2974,2.296,2.2934,2.2934,2.292,2.2893,2.2893,2.2893,2.2893,2.2893,2.2893,2.2893,2.2893,2.292,2.2934,2.2934,2.3207,2.3345,2.3372,2.3674,2.3977,2.4209,2.4209,2.4356,2.4613,2.4943,2.509,2.513,2.5424,2.5558,2.5531,2.5237,2.5104,2.5088,2.4719,2.4599,2.4639,2.4943,2.5224,2.5518,2.6983,2.6983,2.6983,2.6983,2.6983,2.6983,2.6983,2.6983,2.6983,2.6983,2.6655,2.6276,2.5946,2.5483,2.5189,2.5189,2.5777,2.6217,2.6385,2.6692,2.691,2.6983,2.6692,2.6517,2.6408,2.5696,2.4867,2.3997,2.3456,2.31,2.2893,2.2893,2.2893,2.2893,2.2893,2.2893,2.2893,2.2893,2.2853,2.28,2.28,2.2452,2.193,2.1997,2.1657,2.1216,2.1283,2.1456,2.1756,2.2245,2.2619,2.2893,2.2893,2.2893,2.2893,2.2893,2.3033,2.322,2.322,2.3394,2.3629,2.3696,2.3656,2.3616,2.3616,2.3656,2.3607,2.3345,2.3345,2.3327,2.3054,2.3,2.3054,2.3193,2.322,2.3313,2.3576,2.338,2.322,2.322,2.3041,2.2893,2.2893,2.2893,2.2893,2.2893,2.2893,2.2893,2.2893,2.31,2.322,2.322,2.3514,2.3781,2.4008,2.4075,2.4142,2.4209,2.4209,2.4356,2.4613,2.4943,2.5197,2.5438,2.5732,2.5904,2.5877,2.5545,2.5291,2.5088,2.4719,2.4599,2.4613,2.4679,2.4917,2.5251,2.6983,2.6983,2.6983,2.6983,2.6983,2.6983,2.6983,2.6983,2.6983,2.6983,2.6473,2.6019,2.5836,2.5263,2.4968,2.5203,2.5593,2.5924,2.6093,2.6312,2.6436,2.6436,2.6239,2.6019,2.5814,2.5463,2.4908,2.4098,2.3555,2.3166,2.2893,2.2893,2.2893,2.2893,2.2893,2.2893,2.2893,2.2893,2.2893,2.2893,2.2893,2.2546,2.1991,2.1991,2.1617,2.1122,2.1269,2.1636,2.2004,2.2311,2.2619,2.2893,2.2893,2.2893,2.292,2.3046,2.3193,2.3292,2.3292,2.3541,2.3777,2.3594,2.3768,2.3977,2.3843,2.391,2.3888,2.3594,2.3754,2.3821,2.3415,2.3335,2.33,2.3292,2.3207,2.3166,2.3348,2.3207,2.31,2.31,2.3,2.2893,2.2893,2.2893,2.2893,2.2893,2.2893,2.296,2.3073,2.3233,2.3359,2.3527,2.3821,2.4048,2.4209,2.4342,2.4372,2.4372,2.4372,2.4452,2.4613,2.509,2.5371,2.5531,2.5864,2.5998,2.5957,2.5491,2.5224,2.5088,2.4719,2.4599,2.4599,2.4599,2.4879,2.5358,2.6983,2.6983,2.6983,2.6983,2.6983,2.6983,2.6983,2.6983,2.6983,2.6983,2.6312,2.58,2.58,2.5139,2.4821,2.5152,2.5317,2.5515,2.5833,2.5926,2.5926,2.587,2.581,2.5598,2.5203,2.5115,2.4843,2.4285,2.3682,2.3247,2.2974,2.292,2.2893,2.2893,2.2893,2.2893,2.2893,2.2893,2.2867,2.2827,2.288,2.2546,2.2024,2.2044,2.1724,2.1296,2.1569,2.1964,2.2432,2.2472,2.2659,2.2893,2.2893,2.2893,2.2947,2.318,2.3252,2.3292,2.3292,2.3541,2.3728,2.3527,2.3808,2.4075,2.3924,2.4035,2.4115,2.387,2.4155,2.4329,2.3794,2.3688,2.3634,2.3434,2.31,2.292,2.2974,2.2934,2.2893,2.2893,2.2893,2.2893,2.2893,2.2893,2.292,2.2974,2.2974,2.3073,2.338,2.3412,2.3594,2.387,2.4128,2.4275,2.4275,2.4479,2.4599,2.4599,2.4599,2.4599,2.4613,2.5197,2.5438,2.5451,2.5758,2.5891,2.581,2.5315,2.5088,2.4983,2.4693,2.4599,2.4599,2.4599,2.4933,2.5478,2.6983,2.6983,2.6983,2.6983,2.6983,2.6983,2.6983,2.6983,2.6983,2.6983,2.6312,2.58,2.58,2.541,2.5152,2.5189,2.5718,2.608,2.6154,2.6406,2.6472,2.6168,2.587,2.5537,2.5203,2.4857,2.4549,2.4214,2.3884,2.3554,2.3225,2.3027,2.2893,2.2893,2.2893,2.2893,2.2893,2.2893,2.2712,2.2498,2.2786,2.2546,2.2017,2.2258,2.2151,2.1871,2.1943,2.2138,2.2425,2.2712,2.2867,2.2893,2.2893,2.2893,2.2907,2.2947,2.3113,2.3292,2.3292,2.3541,2.3857,2.4035,2.3955,2.3924,2.4102,2.4168,2.4115,2.387,2.387,2.3781,2.3412,2.338,2.346,2.3674,2.3268,2.2987,2.322,2.3033,2.2893,2.2893,2.2893,2.2893,2.2893,2.2893,2.3014,2.3247,2.326,2.3394,2.3688,2.3955,2.4102,2.4142,2.4422,2.4546,2.4546,2.4586,2.4599,2.4599,2.4599,2.4599,2.4613,2.4983,2.5144,2.5157,2.5451,2.5438,2.5235,2.5117,2.493,2.4653,2.4613,2.4599,2.4599,2.4599,2.485,2.5144,2.6749,2.6866,2.6939,2.6749,2.6866,2.6983,2.6983,2.6983,2.6983,2.6983,2.6509,2.6056,2.5836,2.5263,2.4857,2.4857,2.5313,2.5589,2.5589,2.5875,2.5902,2.5602,2.5452,2.5205,2.4871,2.4673,2.4532,2.4412,2.3995,2.3621,2.3278,2.3041,2.2893,2.2893,2.2686,2.2619,2.2605,2.2479,2.2392,2.2398,2.2565,2.2458,2.2245,2.2331,2.2231,2.2004,2.2164,2.2418,2.2686,2.2853,2.2893,2.2893,2.2893,2.2893,2.2934,2.3073,2.322,2.3292,2.3292,2.3541,2.375,2.3549,2.3741,2.4008,2.3968,2.4209,2.4315,2.3897,2.3937,2.3968,2.3848,2.3688,2.3621,2.379,2.3295,2.2947,2.3046,2.2987,2.2893,2.2893,2.2893,2.296,2.31,2.3126,2.3247,2.3554,2.3581,2.3701,2.3995,2.4142,2.4275,2.4399,2.4532,2.4599,2.4599,2.4599,2.4599,2.4599,2.4599,2.4599,2.4613,2.4943,2.5115,2.5128,2.5224,2.5197,2.5101,2.4903,2.4663,2.4396,2.4396,2.4396,2.4396,2.4396,2.469,2.5115]},{"header":{"parameterUnit":"m.s-1","parameterCategory":1,"la1":30.6,"la2":28.766,"lo1":-90.7593,"lo2":-88.6598,"dy":0.0162,"dx":0.0183,"nx":116,"ny":114,"refTime":"2023-09-27T00:00:00:Z","depth":0,"parameterNumber":3,"parameterNumberName":"V-component_of_WINDS"},"data":[0.0,0.0,0.0,0.0,0.0,0.0,0.0,0.0,0.0,0.0,0.0,0.0,0.0,0.0,0.0,0.0,0.0,0.0,0.0,0.0,0.0,0.0,0.0,0.0,0.0,0.0,0.0,0.0,0.0,0.0,0.0,0.0,0.0,0.0,0.0,0.0,0.0,0.0,0.0,0.0,0.0,0.0,0.0,0.0,0.0,0.0,0.0,0.0,0.0,0.0,0.0,0.0,0.0,0.0,0.0,0.0,0.0,0.0,0.0,0.0,0.0,0.0,0.0,0.0,0.0,0.0,0.0,0.0,0.0,0.0,0.0,0.0,0.0,0.0,0.0,0.0,0.0,0.0,0.0,0.0,0.0,0.0,0.0,0.0,0.0,0.0,0.0,0.0,0.0,0.0,0.0,0.0,0.0,0.0,0.0,0.0,0.0,0.0,0.0,0.0,0.0,0.0,0.0,0.0,0.0,0.0,0.0,0.0,0.0,0.0,0.0,0.0,0.0,0.0,0.0,0.0,0.0,0.0,0.0,0.0,0.0,0.0,0.0,0.0,0.0,0.0,0.0,0.0,0.0,0.0,0.0,0.0,0.0,0.0,0.0,0.0,0.0,0.0,0.0,0.0,0.0,0.0,0.0,0.0,0.0,0.0,0.0,0.0,0.0,0.0,0.0,0.0,0.0,0.0,0.0,0.0,0.0,0.0,0.0,0.0,0.0,0.0,0.0,0.0,0.0,0.0,0.0,0.0,0.0,0.0,0.0,0.0,0.0,0.0,0.0,0.0,0.0,0.0,0.0,0.0,0.0,0.0,0.0,0.0,0.0,0.0,0.0,0.0,0.0,0.0,0.0,0.0,0.0,0.0,0.0,0.0,0.0,0.0,0.0,0.0,0.0,0.0,0.0,0.0,0.0,0.0,0.0,0.0,0.0,0.0,0.0,0.0,0.0,0.0,0.0,0.0,0.0,0.0,0.0,0.0,0.0,0.0,0.0,0.0,0.0,0.0,0.0,0.0,0.0,0.0,0.0,0.0,0.0,0.0,0.0,0.0,0.0,0.0,0.0,0.0,0.0,0.0,0.0,0.0,0.0,0.0,0.0,0.0,0.0,0.0,0.0,0.0,0.0,0.0,0.0,0.0,0.0,0.0,0.0,0.0,0.0,0.0,0.0,0.0,0.0,0.0,0.0,0.0,0.0,0.0,0.0,0.0,0.0,0.0,0.0,0.0,0.0,0.0,0.0,0.0,0.0,0.0,0.0,0.0,0.0,0.0,0.0,0.0,0.0,0.0,0.0,0.0,0.0,0.0,0.0,0.0,0.0,0.0,0.0,0.0,0.0,0.0,0.0,0.0,0.0,0.0,0.0,0.0,0.0,0.0,0.0,0.0,0.0,0.0,0.0,0.0,0.0,0.0,0.0,0.0,0.0,0.0,0.0,0.0,0.0,0.0,0.0,0.0,0.0,0.0,0.0,0.0,0.0,0.0,0.0,0.0,0.0,0.0,0.0,0.0,0.0,0.0,0.0,0.0,0.0,0.0,0.0,0.0,0.0,0.0,0.0,0.0,0.0,0.0,0.0,0.0,0.0,0.0,0.0,0.0,0.0,0.0,0.0,0.0,0.0,0.0,0.0,0.0,0.0,0.0,0.0,0.0,0.0,0.0,0.0,0.0,0.0,0.0,0.0,0.0,0.0,0.0,0.0,0.0,0.0,0.0,0.0,0.0,0.0,0.0,0.0,0.0,0.0,0.0,0.0,0.0,0.0,0.0,0.0,0.0,0.0,0.0,0.0,0.0,0.0,0.0,0.0,0.0,0.0,0.0,0.0,0.0,0.0,0.0,0.0,0.0,0.0,0.0,0.0,0.0,0.0,0.0,0.0,0.0,0.0,0.0,0.0,0.0,0.0,0.0,0.0,0.0,0.0,0.0,0.0,0.0,0.0,0.0,0.0,0.0,0.0,0.0,0.0,0.0,0.0,0.0,0.0,0.0,0.0,0.0,0.0,0.0,0.0,0.0,0.0,0.0,0.0,0.0,0.0,0.0,0.0,0.0,0.0,0.0,0.0,0.0,0.0,0.0,0.0,0.0,0.0,0.0,0.0,0.0,0.0,0.0,0.0,0.0,0.0,0.0,0.0,0.0,0.0,0.0,0.0,0.0,0.0,0.0,0.0,0.0,0.0,0.0,0.0,0.0,0.0,0.0,0.0,0.0,0.0,0.0,0.0,0.0,0.0,0.0,0.0,0.0,0.0,0.0,0.0,0.0,0.0,0.0,0.0,0.0,0.0,0.0,0.0,0.0,0.0,0.0,0.0,0.0,0.0,0.0,0.0,0.0,0.0,0.0,0.0,0.0,0.0,0.0,0.0,0.0,0.0,0.0,0.0,0.0,0.0,0.0,0.0,0.0,0.0,0.0,0.0,0.0,0.0,0.0,0.0,0.0,0.0,0.0,0.0,0.0,0.0,0.0,0.0,0.0,0.0,0.0,0.0,0.0,0.0,0.0,0.0,0.0,0.0,0.0,0.0,0.0,0.0,0.0,0.0,0.0,0.0,0.0,0.0,0.0,0.0,0.0,0.0,0.0,0.0,0.0,0.0,0.0,0.0,0.0,0.0,0.0,0.0,0.0,0.0,0.0,0.0,0.0,0.0,0.0,0.0,0.0,0.0,0.0,0.0,0.0,0.0,0.0,0.0,0.0,0.0,0.0,0.0,0.0,0.0,0.0,0.0,0.0,0.0,0.0,0.0,0.0,0.0,0.0,0.0,0.0,0.0,0.0,0.0,0.0,0.0,0.0,0.0,0.0,0.0,0.0,0.0,0.0,0.0,0.0,0.0,0.0,0.0,0.0,0.0,0.0,0.0,0.0,0.0,0.0,0.0,0.0,0.0,0.0,0.0,0.0,0.0,0.0,0.0,0.0,0.0,0.0,0.0,0.0,0.0,0.0,0.0,0.0,0.0,0.0,0.0,0.0,0.0,0.0,0.0,0.0,0.0,0.0,0.0,0.0,0.0,0.0,0.0,0.0,0.0,0.0,0.0,0.0,0.0,0.0,0.0,0.0,0.0,0.0,0.0,0.0,0.0,0.0,0.0,0.0,0.0,0.0,0.0,0.0,0.0,0.0,0.0,0.0,0.0,0.0,0.0,0.0,0.0,0.0,0.0,0.0,0.0,0.0,0.0,0.0,0.0,0.0,0.0,0.0,0.0,0.0,0.0,0.0,0.0,0.0,0.0,0.0,0.0,0.0,0.0,0.0,0.0,0.0,0.0,0.0,0.0,0.0,0.0,0.0,0.0,0.0,0.0,0.0,0.0,0.0,0.0,0.0,0.0,0.0,0.0,0.0,0.0,0.0,0.0,0.0,0.0,0.0,0.0,0.0,0.0,0.0,0.0,0.0,0.0,0.0,0.0,0.0,0.0,0.0,0.0,0.0,0.0,0.0,0.0,0.0,0.0,0.0,0.0,0.0,0.0,0.0,0.0,0.0,0.0,0.0,0.0,0.0,0.0,0.0,0.0,0.0,0.0,0.0,0.0,0.0,0.0,0.0,0.0,0.0,0.0,0.0,0.0,0.0,0.0,0.0,0.0,0.0,0.0,0.0,0.0,0.0,0.0,0.0,0.0,0.0,0.0,0.0,0.0,0.0,0.0,0.0,0.0,0.0,0.0,0.0,0.0,0.0,0.0,0.0,0.0,0.0,0.0,0.0,0.0,0.0,0.0,0.0,0.0,0.0,0.0,0.0,0.0,0.0,0.0,0.0,0.0,0.0,0.0,0.0,0.0,0.0,0.0,0.0,0.0,0.0,0.0,0.0,0.0,0.0,0.0,0.0,0.0,0.0,0.0,0.0,0.0,0.0,0.0,0.0,0.0,0.0,0.0,0.0,0.0,0.0,0.0,0.0,0.0,0.0,0.0,0.0,0.0,0.0,0.0,0.0,0.0,0.0,0.0,0.0,0.0,0.0,0.0,0.0,0.0,0.0,0.0,0.0,0.0,0.0,0.0,0.0,0.0,0.0,0.0,0.0,0.0,0.0,0.0,0.0,0.0,0.0,0.0,0.0,0.0,0.0,0.0,0.0,0.0,0.0,0.0,0.0,0.0,0.0,0.0,0.0,0.0,0.0,0.0,0.0,0.0,0.0,0.0,0.0,0.0,0.0,0.0,0.0,0.0,0.0,0.0,0.0,0.0,0.0,0.0,0.0,0.0,0.0,0.0,0.0,0.0,0.0,0.0,0.0,0.0,0.0,0.0,0.0,0.0,0.0,0.0,0.0,0.0,0.0,0.0,0.0,0.0,0.0,0.0,0.0,0.0,0.0,0.0,0.0,0.0,0.0,0.0,0.0,0.0,0.0,0.0,0.0,0.0,0.0,0.0,0.0,0.0,0.0,0.0,0.0,0.0,0.0,0.0,0.0,0.0,0.0,0.0,0.0,0.0,0.0,0.0,0.0,0.0,0.0,0.0,0.0,0.0,0.0,0.0,0.0,0.0,0.0,0.0,0.0,0.0,0.0,0.0,0.0,0.0,0.0,0.0,0.0,0.0,0.0,0.0,0.0,0.0,0.0,0.0,0.0,0.0,0.0,0.0,0.0,0.0,0.0,0.0,0.0,0.0,0.0,0.0,0.0,0.0,0.0,0.0,0.0,0.0,0.0,0.0,0.0,0.0,0.0,0.0,0.0,0.0,0.0,0.0,0.0,0.0,0.0,0.0,0.0,0.0,0.0,0.0,0.0,0.0,0.0,0.0,0.0,0.0,0.0,0.0,0.0,0.0,0.0,0.0,0.0,0.0,0.0,0.0,0.0,0.0,0.0,0.0,0.0,0.0,0.0,0.0,0.0,0.0,0.0,0.0,0.0,0.0,0.0,0.0,0.0,0.0,0.0,0.0,0.0,0.0,0.0,0.0,0.0,0.0,0.0,0.0,0.0,0.0,0.0,0.0,0.0,0.0,0.0,0.0,0.0,0.0,0.0,0.0,0.0,0.0,0.0,0.0,0.0,0.0,0.0,0.0,0.0,0.0,0.0,0.0,0.0,0.0,0.0,0.0,0.0,0.0,0.0,0.0,0.0,0.0,0.0,0.0,0.0,0.0,0.0,0.0,0.0,0.0,0.0,0.0,0.0,0.0,0.0,0.0,0.0,0.0,0.0,0.0,0.0,0.0,0.0,0.0,0.0,0.0,0.0,0.0,0.0,0.0,0.0,0.0,0.0,0.0,0.0,0.0,0.0,0.0,0.0,0.0,0.0,0.0,0.0,0.0,0.0,0.0,0.0,0.0,0.0,0.0,0.0,0.0,0.0,0.0,0.0,0.0,0.0,0.0,0.0,0.0,0.0,0.0,0.0,0.0,0.0,0.0,0.0,0.0,0.0,0.0,0.0,0.0,0.0,0.0,0.0,0.0,0.0,0.0,0.0,0.0,0.0,0.0,0.0,0.0,0.0,0.0,0.0,0.0,0.0,0.0,0.0,0.0,0.0,0.0,0.0,0.0,0.0,0.0,0.0,0.0,0.0,0.0,0.0,0.0,0.0,0.0,0.0,0.0,0.0,0.0,0.0,0.0,0.0,0.0,0.0,0.0,0.0,0.0,0.0,0.0,0.0,0.0,0.0,0.0,0.0,0.0,0.0,0.0,0.0,0.0,0.0,0.0,0.0,0.0,0.0,0.0,0.0,0.0,0.0,0.0,0.0,0.0,0.0,0.0,0.0,0.0,0.0,0.0,0.0,0.0,0.0,0.0,0.0,0.0,0.0,0.0,0.0,0.0,0.0,0.0,0.0,0.0,0.0,0.0,0.0,0.0,0.0,0.0,0.0,0.0,0.0,0.0,0.0,0.0,0.0,0.0,0.0,0.0,0.0,0.0,0.0,0.0,0.0,0.0,0.0,0.0,0.0,0.0,0.0,0.0,0.0,0.0,0.0,0.0,0.0,0.0,0.0,0.0,0.0,0.0,0.0,0.0,0.0,0.0,0.0,0.0,0.0,0.0,0.0,0.0,0.0,0.0,0.0,0.0,0.0,0.0,0.0,0.0,0.0,0.0,0.0,0.0,0.0,0.0,0.0,0.0,0.0,0.0,0.0,0.0,0.0,0.0,0.0,0.0,0.0,0.0,0.0,3.4921,0.0,0.0,0.0,0.0,0.0,0.0,0.0,0.0,0.0,0.0,0.0,0.0,0.0,0.0,0.0,0.0,0.0,0.0,0.0,0.0,0.0,0.0,0.0,0.0,0.0,0.0,0.0,0.0,0.0,0.0,0.0,0.0,0.0,0.0,0.0,0.0,0.0,0.0,3.0861,3.1551,3.2766,3.4398,3.4059,3.372,3.3412,0.0,0.0,0.0,0.0,0.0,0.0,0.0,0.0,0.0,0.0,0.0,0.0,0.0,0.0,0.0,0.0,0.0,0.0,0.0,0.0,0.0,0.0,0.0,0.0,0.0,0.0,0.0,0.0,0.0,0.0,0.0,0.0,0.0,0.0,0.0,0.0,0.0,0.0,0.0,0.0,0.0,0.0,0.0,0.0,0.0,0.0,0.0,0.0,0.0,0.0,0.0,0.0,0.0,0.0,0.0,0.0,0.0,0.0,0.0,0.0,0.0,0.0,0.0,0.0,0.0,0.0,0.0,0.0,0.0,0.0,0.0,3.6245,0.0,0.0,0.0,0.0,0.0,0.0,0.0,0.0,0.0,0.0,0.0,0.0,0.0,0.0,0.0,0.0,0.0,0.0,0.0,0.0,0.0,0.0,0.0,2.8553,2.8615,2.8738,2.8738,2.8738,0.0,0.0,0.0,0.0,0.0,0.0,2.9606,2.9755,3.0428,3.1645,3.2818,3.4422,3.6368,3.6554,3.6446,3.6043,3.5227,0.0,0.0,0.0,0.0,0.0,0.0,0.0,0.0,0.0,0.0,0.0,0.0,0.0,0.0,0.0,0.0,0.0,0.0,0.0,0.0,0.0,0.0,0.0,0.0,0.0,0.0,0.0,0.0,0.0,0.0,0.0,0.0,0.0,0.0,0.0,0.0,0.0,0.0,0.0,0.0,0.0,0.0,0.0,0.0,0.0,0.0,0.0,0.0,0.0,0.0,0.0,0.0,0.0,0.0,0.0,0.0,0.0,0.0,0.0,0.0,0.0,0.0,0.0,4.3217,4.3728,4.5022,4.5576,4.5915,4.5823,4.2448,4.0139,3.8662,3.7615,0.0,0.0,0.0,0.0,0.0,0.0,0.0,0.0,0.0,0.0,0.0,0.0,0.0,0.0,0.0,0.0,0.0,0.0,0.0,2.7765,2.9107,2.9261,2.9507,3.0079,3.014,3.014,3.014,0.0,0.0,0.0,0.0,0.0,3.0425,3.113,3.1893,3.2712,3.5753,3.8122,3.9768,4.0843,4.1656,4.2137,3.8056,3.6245,3.6215,0.0,0.0,0.0,0.0,0.0,0.0,0.0,0.0,0.0,0.0,0.0,0.0,0.0,0.0,0.0,0.0,0.0,0.0,0.0,0.0,0.0,0.0,0.0,0.0,0.0,0.0,0.0,0.0,0.0,0.0,0.0,0.0,0.0,0.0,0.0,0.0,0.0,0.0,0.0,0.0,0.0,3.5044,3.4566,0.0,0.0,0.0,0.0,0.0,0.0,0.0,0.0,0.0,0.0,0.0,0.0,0.0,4.2448,4.379,4.5033,4.6388,4.7814,4.8358,4.9312,5.0636,5.0728,5.1097,5.1621,5.1045,0.0,4.3482,4.0984,0.0,0.0,0.0,0.0,0.0,0.0,0.0,0.0,0.0,0.0,0.0,0.0,0.0,0.0,0.0,0.0,0.0,0.0,0.0,0.0,0.0,3.0074,3.0628,3.0936,3.1305,3.1353,3.0997,3.0966,0.0,0.0,3.0528,3.0791,3.1163,3.2052,3.3899,3.6668,3.9502,4.2053,4.4297,4.5239,4.623,4.7087,4.4109,4.1576,3.9477,3.8649,0.0,0.0,0.0,0.0,0.0,0.0,0.0,0.0,0.0,0.0,0.0,0.0,0.0,0.0,0.0,0.0,0.0,0.0,0.0,0.0,0.0,0.0,0.0,0.0,0.0,0.0,0.0,0.0,0.0,0.0,0.0,0.0,0.0,0.0,0.0,0.0,0.0,0.0,0.0,3.5445,3.6353,3.7215,3.6307,3.5783,0.0,0.0,0.0,0.0,0.0,0.0,0.0,0.0,0.0,4.443,4.6603,4.8358,4.9712,5.1045,5.2421,5.3775,5.4106,5.4753,5.5684,5.6084,5.6423,5.67,5.67,5.4914,5.1643,4.6973,4.3968,4.2202,0.0,0.0,0.0,0.0,4.0355,4.108,0.0,0.0,0.0,0.0,0.0,0.0,0.0,0.0,0.0,0.0,0.0,0.0,3.0307,3.1643,3.2642,3.3166,3.3675,3.3675,3.3012,3.2796,3.2287,3.1297,3.1561,3.1942,3.2364,3.4121,3.7049,4.1231,4.3553,4.6161,4.9052,4.9662,5.0506,5.149,5.0136,4.7196,4.3189,4.1837,3.9787,3.7342,0.0,0.0,0.0,0.0,0.0,0.0,0.0,0.0,0.0,0.0,0.0,0.0,0.0,0.0,0.0,0.0,0.0,0.0,0.0,0.0,0.0,0.0,0.0,0.0,0.0,0.0,0.0,0.0,0.0,0.0,0.0,0.0,0.0,0.0,0.0,0.0,0.0,3.7046,3.8415,4.0091,3.9019,3.8544,0.0,0.0,0.0,0.0,0.0,0.0,4.4007,4.6222,4.8316,5.025,5.2692,5.4607,5.5871,5.6961,5.8183,5.9568,5.9458,5.9786,6.0442,6.0828,6.0983,6.0983,6.0983,6.0327,5.8776,5.2687,4.8696,4.6284,4.4941,4.3987,4.3464,4.4172,4.4875,4.5673,0.0,0.0,0.0,0.0,0.0,0.0,0.0,0.0,0.0,0.0,0.0,3.1045,3.2998,3.4459,3.6061,3.7968,3.8153,3.7923,3.7246,3.6599,3.5412,3.3593,3.4404,3.4746,3.4459,3.8241,4.1999,4.5682,4.7842,5.0544,5.3743,5.4053,5.4663,5.5465,5.4739,5.1692,4.6853,4.4396,4.2009,3.9825,3.8639,0.0,0.0,0.0,0.0,0.0,0.0,0.0,0.0,0.0,0.0,0.0,0.0,0.0,0.0,0.0,0.0,0.0,0.0,0.0,0.0,0.0,0.0,0.0,0.0,0.0,0.0,0.0,0.0,0.0,0.0,0.0,0.0,0.0,0.0,0.0,0.0,0.0,0.0,4.2355,4.2504,0.0,0.0,0.0,0.0,4.3908,4.6391,4.8798,5.0892,5.3581,5.5858,5.7604,5.9356,6.0758,6.1851,6.2197,6.3043,6.4447,6.399,6.4151,6.4868,6.4441,6.4259,6.4259,6.4259,6.3849,6.2725,5.6822,5.3199,5.1221,4.9887,4.8881,4.8337,4.9066,4.9943,5.0836,0.0,0.0,0.0,0.0,0.0,0.0,0.0,0.0,2.6956,2.8239,3.032,3.2475,3.4521,3.7123,3.9235,4.056,4.1086,4.0786,3.9465,3.8294,3.7027,3.5571,3.5542,3.651,3.857,4.2862,4.67,5.0004,5.3335,5.6335,5.8887,5.9272,5.9778,6.0309,5.885,5.714,5.5066,5.0503,4.6834,4.391,4.1972,3.9062,0.0,0.0,0.0,0.0,0.0,0.0,0.0,0.0,0.0,0.0,0.0,0.0,0.0,0.0,0.0,0.0,0.0,0.0,0.0,0.0,0.0,0.0,0.0,0.0,0.0,0.0,0.0,0.0,0.0,0.0,0.0,0.0,0.0,0.0,0.0,0.0,0.0,4.7139,4.7388,0.0,4.9188,4.9182,4.9718,5.1331,5.3207,5.5177,5.724,5.9965,6.1943,6.2984,6.5329,6.6721,6.7117,6.7198,6.7557,6.8251,6.7599,6.7568,6.7949,6.7799,6.7698,6.7698,6.7698,6.7086,6.5848,6.3746,6.0706,5.7275,5.6355,5.5539,5.5005,5.5727,5.6235,5.664,0.0,0.0,0.0,0.0,0.0,0.0,0.0,2.6271,2.7168,2.9163,3.1565,3.4151,3.6876,4.0201,4.2785,4.4167,4.475,4.4237,4.2321,4.0734,3.9153,3.7532,3.8076,4.0033,4.3563,4.7688,5.1399,5.4708,5.7883,6.0458,6.2472,6.2957,6.3333,6.3559,6.2485,6.195,6.1535,5.7238,5.263,4.8061,4.5772,4.2451,3.878,0.0,0.0,0.0,0.0,0.0,0.0,0.0,0.0,0.0,0.0,0.0,0.0,0.0,0.0,0.0,0.0,0.0,0.0,0.0,0.0,0.0,0.0,0.0,0.0,0.0,0.0,0.0,0.0,0.0,0.0,0.0,0.0,0.0,0.0,4.5928,4.9117,5.2691,5.3616,5.4686,5.6623,5.6742,5.7343,5.8957,6.0385,6.1996,6.3836,6.6115,6.7604,6.8176,7.0271,7.1388,7.1278,7.1328,7.147,7.1662,7.114,7.0973,7.1126,7.0857,7.0734,7.0701,7.0448,6.98,6.895,6.895,6.7148,6.4175,6.1957,6.0684,6.0143,6.0875,6.1177,6.1383,0.0,0.0,0.0,0.0,0.0,0.0,2.6442,2.6525,2.7623,3.0949,3.3258,3.6122,4.0153,4.3679,4.663,4.8882,4.9261,4.8334,4.5882,4.3959,4.1901,3.9601,4.2172,4.5468,4.9277,5.26,5.6109,5.9759,6.1254,6.2831,6.4461,6.4992,6.5188,6.5146,6.5633,6.5879,6.5757,6.413,5.9198,5.232,4.9969,4.6525,4.2573,0.0,0.0,0.0,0.0,0.0,0.0,0.0,0.0,0.0,0.0,0.0,0.0,0.0,0.0,0.0,0.0,0.0,0.0,0.0,0.0,0.0,0.0,0.0,0.0,0.0,0.0,0.0,0.0,0.0,0.0,0.0,0.0,0.0,4.7551,5.0879,5.496,5.8908,6.1098,6.2932,6.4585,6.5254,6.589,6.6525,6.7898,6.9271,7.0675,7.2045,7.2956,7.3278,7.4262,7.4678,7.4402,7.4618,7.4755,7.475,7.4574,7.4504,7.4465,7.3589,7.321,7.3177,7.2456,7.2124,7.2124,7.2124,7.2091,7.1547,6.6477,6.4095,6.3605,6.4255,6.4626,6.4964,0.0,0.0,0.0,0.0,0.0,0.0,2.5692,2.6562,2.798,3.0368,3.4168,3.8247,4.2312,4.638,4.9357,5.0767,5.0772,4.9559,4.6878,4.4902,4.3725,4.3436,4.622,4.9326,5.2684,5.6939,6.0395,6.3,6.5164,6.6753,6.7775,6.7728,6.7687,6.7687,6.768,6.7692,6.7625,6.6622,6.4506,6.1376,5.6077,5.1738,4.8257,0.0,0.0,0.0,0.0,0.0,0.0,0.0,0.0,0.0,0.0,0.0,0.0,0.0,0.0,0.0,0.0,0.0,0.0,0.0,0.0,0.0,0.0,0.0,0.0,0.0,0.0,0.0,0.0,0.0,0.0,0.0,5.2832,5.5389,5.4029,5.7312,6.1216,6.4818,6.7143,6.9051,7.0524,7.1458,7.2361,7.3255,7.4208,7.5207,7.6314,7.7204,7.7711,7.78,7.8607,7.9002,7.8919,7.8475,7.805,7.7709,7.7172,7.6757,7.6404,7.5623,7.5564,7.6032,7.5297,7.4963,7.4954,7.4395,7.3861,7.3086,7.0187,6.8974,6.8777,6.8424,6.8469,6.864,0.0,0.0,0.0,0.0,0.0,0.0,2.5412,2.6571,2.8319,3.0892,3.5138,3.9619,4.4106,4.8188,5.1048,5.2219,5.203,5.0698,4.7937,4.637,4.5974,4.6933,5.0475,5.3846,5.6924,6.0916,6.3897,6.58,6.7526,6.8639,6.9113,6.9252,6.9512,6.9793,6.9996,7.0254,7.0489,6.9659,6.892,6.7858,6.3328,5.8451,5.3689,5.1263,4.8772,4.6543,4.5744,4.4718,4.3525,4.2417,0.0,0.0,0.0,0.0,0.0,0.0,0.0,0.0,0.0,0.0,0.0,0.0,0.0,0.0,0.0,0.0,0.0,0.0,0.0,0.0,0.0,0.0,0.0,0.0,5.9047,6.274,6.3775,6.5174,6.7376,7.0785,7.2971,7.4733,7.6088,7.6854,7.755,7.8272,7.873,7.9242,7.9835,8.0208,8.0441,8.0441,8.084,8.1073,8.1073,8.0641,8.0288,8.0048,7.9745,7.9474,7.9193,7.8556,7.8337,7.8405,7.7665,7.7194,7.6849,7.6445,7.5839,7.495,0.0,0.0,0.0,0.0,7.049,7.0273,0.0,0.0,0.0,0.0,0.0,0.0,2.5391,2.6652,2.8688,3.1951,3.6045,4.0471,4.5327,4.9083,5.1706,5.2856,5.2665,5.1413,4.8889,4.8144,4.8612,5.0423,5.4778,5.8523,6.1489,6.4519,6.6745,6.8166,6.8977,6.9383,6.9485,7.0128,7.0838,7.1582,7.2326,7.3003,7.3578,7.2829,7.2477,7.2296,7.0425,6.5521,5.9025,5.5932,5.3406,5.1382,5.0268,4.8893,4.7433,4.65,0.0,0.0,0.0,0.0,0.0,0.0,0.0,0.0,0.0,0.0,0.0,0.0,0.0,0.0,0.0,0.0,0.0,0.0,0.0,0.0,0.0,0.0,0.0,0.0,6.5804,7.0466,7.4447,7.3625,7.364,7.6431,7.8244,7.9721,8.0918,8.1258,8.1557,8.1886,8.1886,8.1913,8.194,8.194,0.0,0.0,0.0,8.194,8.194,8.194,8.1906,8.1805,8.2045,8.2143,8.2042,8.1526,8.1012,8.0412,7.96,7.8889,7.8373,7.8179,7.7638,7.6642,7.4018,7.2887,7.2686,7.2039,7.1278,7.0608,0.0,0.0,0.0,0.0,0.0,0.0,2.5253,2.6965,2.9212,3.2026,3.643,4.0793,4.4688,4.8146,5.0414,5.0905,5.0552,4.9877,4.8852,4.9829,5.1964,5.5291,5.8638,6.1767,6.4742,6.7197,6.8876,6.9777,7.05,7.1176,7.1751,7.1921,7.236,7.3105,7.3849,7.4255,7.44,7.4816,7.4901,7.4632,7.3057,6.9369,6.4612,6.2925,6.0493,5.7756,5.5997,5.4554,5.3157,5.0568,4.9179,4.8071,4.5434,4.379,0.0,0.0,0.0,0.0,0.0,0.0,0.0,0.0,0.0,0.0,0.0,0.0,0.0,0.0,0.0,0.0,0.0,0.0,0.0,6.6508,7.1385,7.5665,7.8849,8.0475,8.1086,8.0318,8.124,8.2264,8.3108,8.323,8.3394,8.3665,8.3692,8.38,8.4014,8.4014,8.4014,8.4014,8.4014,8.4014,8.4014,8.4014,8.3737,8.3129,8.3182,0.0,8.2296,8.1604,8.1528,8.19,8.0581,8.0242,8.0572,7.9363,7.8111,7.6724,7.4948,7.354,7.246,7.2325,7.1784,7.1154,0.0,0.0,0.0,0.0,0.0,0.0,2.5221,2.7076,2.9366,3.2044,3.6338,4.0425,4.3782,4.6792,4.8775,4.9273,4.9177,4.9476,5.0385,5.2336,5.5124,5.8896,6.1907,6.4715,6.732,6.9248,7.0567,7.1278,7.2022,7.2597,7.2969,7.3341,7.3883,7.4627,7.5777,7.6521,7.6903,7.7638,7.7868,7.7702,7.6588,7.4489,7.1547,6.7805,6.482,6.2405,6.0796,5.8914,5.6898,5.4939,5.3345,5.1867,4.9805,4.7742,4.5834,0.0,0.0,0.0,0.0,0.0,0.0,0.0,0.0,0.0,0.0,0.0,0.0,0.0,0.0,5.586,5.8722,0.0,6.7745,7.2496,7.6533,8.0035,8.279,8.444,8.4781,8.3236,8.382,8.4561,8.5034,8.5101,8.5239,8.5513,8.554,8.5594,8.573,8.573,8.573,8.573,8.5384,8.5215,8.5215,8.4783,8.4411,8.4065,8.4065,8.3836,8.3464,8.3118,8.2949,8.2881,8.1799,8.1291,8.1215,7.9701,7.845,7.7333,7.6217,7.483,7.3477,7.3071,7.2496,7.1819,0.0,0.0,0.0,0.0,0.0,0.0,0.0,2.7057,2.9212,3.2026,3.5657,3.9101,4.204,4.4502,4.6213,4.691,4.765,4.9165,5.1764,5.47,5.8032,6.1772,6.4783,6.7354,6.9485,7.0816,7.1954,7.2834,7.3409,7.3872,7.4177,7.4931,7.5642,7.642,7.7807,7.8822,7.9566,8.0175,8.0513,8.0547,7.9837,7.8909,7.7463,7.2135,6.8642,6.6331,6.4707,6.2398,5.9923,5.8869,5.7174,5.531,5.4097,5.1911,4.9459,4.7977,4.5631,0.0,0.0,0.0,0.0,0.0,0.0,0.0,0.0,5.2716,5.5183,5.6561,5.9751,6.3034,6.5512,6.9477,7.3711,7.7782,8.0915,8.3583,8.5696,8.6636,8.6647,8.5403,8.5812,8.6265,8.6487,8.6515,8.6598,8.6879,8.6907,8.6907,8.6907,8.6907,8.6907,8.6907,8.6332,8.5926,8.5817,8.5182,8.4749,8.4614,8.4614,8.4614,8.4614,8.4614,8.4275,8.3659,8.2949,8.2103,8.1215,8.0006,7.9025,7.8145,7.757,7.6386,7.4965,7.4052,7.3138,7.2326,0.0,0.0,0.0,0.0,0.0,0.0,0.0,0.0,2.8688,3.1951,3.4004,3.6039,3.8341,4.0022,4.1443,4.2504,4.5005,4.7884,5.1085,5.5902,6.0317,6.4072,6.7117,6.9451,7.1019,7.1853,7.2969,7.4356,7.4458,7.5202,7.6555,7.7266,7.801,7.8788,7.9566,8.0344,8.108,8.1148,8.1562,8.2103,8.1359,8.0462,7.9305,7.7061,7.3882,7.0202,6.7444,6.5066,6.3055,6.1512,5.9852,5.8318,5.7636,5.5775,5.344,5.1474,4.8916,4.6677,4.6272,4.6866,4.793,4.9369,5.1115,5.3016,0.0,5.7587,6.0218,6.287,6.6808,7.0301,7.1892,7.6366,8.0164,8.1335,8.3677,8.5696,8.667,8.7414,8.759,8.6763,8.673,8.6825,8.6852,8.6852,8.6852,8.6907,8.6907,8.6907,8.6907,8.6907,8.6907,8.6907,8.6839,8.6467,8.5817,8.5689,8.5317,8.4614,8.4614,8.4614,8.4614,8.4614,8.4546,8.4444,8.3693,8.2577,8.1283,8.1114,8.0209,7.8991,7.8889,7.7942,7.6454,7.5033,7.3612,7.2394,0.0,0.0,0.0,0.0,0.0,0.0,0.0,0.0,2.8319,3.0892,3.2664,3.4347,3.6163,3.8092,3.992,4.153,4.4555,4.8086,5.2167,5.7387,6.2009,6.573,6.8753,7.0872,7.1921,7.351,7.4627,7.5236,7.6149,7.713,7.8213,7.8923,7.9667,8.0412,8.1596,8.2272,8.2611,8.305,8.3422,8.3599,8.2881,8.1815,8.0403,7.7791,7.4302,7.0494,6.8055,6.5094,0.0,6.0382,5.9384,5.8721,5.7909,5.6451,5.4743,5.331,5.0477,4.7789,4.7858,4.9443,5.154,5.3318,5.6275,5.9376,6.1851,6.4858,6.7866,7.0521,7.3641,7.6525,7.8618,8.1653,8.4304,8.5891,8.7021,8.7955,8.8734,8.8361,8.7719,8.7008,8.6907,8.7076,8.7516,8.7922,8.8158,8.8158,8.8158,8.8158,8.8158,8.8158,8.8158,8.8158,8.7753,8.7177,8.6433,8.5993,8.5384,8.4614,8.4614,8.4614,8.4614,8.4614,8.4377,8.3964,8.3625,8.2915,8.19,8.1486,8.0682,7.9701,7.9295,7.8213,7.6758,7.5642,7.4593,7.3612,0.0,0.0,0.0,0.0,0.0,0.0,0.0,0.0,0.0,0.0,3.1189,3.2631,3.4338,3.6216,3.8145,4.013,4.3418,4.7487,5.2337,5.7839,6.268,6.6622,6.97,7.1751,7.2665,7.4661,7.5912,7.6318,7.7638,7.8788,7.9735,8.0479,8.119,8.1934,8.3016,8.3625,8.3828,8.4167,8.4411,8.4546,8.3795,8.2475,8.0623,7.7165,7.3312,6.9398,6.7175,6.376,6.0071,5.8591,5.7763,5.7333,5.7031,5.6103,5.4857,5.3808,5.1411,4.929,5.0029,5.2641,5.5718,5.8254,6.1952,6.5746,6.8654,7.1666,7.4456,7.6641,7.9213,8.1562,8.316,8.5256,8.7239,8.8863,8.91,8.9275,8.9816,8.8632,8.7347,8.6399,8.6271,8.6501,8.7008,8.8091,8.8795,8.8795,8.8998,8.91,8.91,8.91,8.91,8.91,8.8564,8.7955,8.7211,8.6467,8.5723,8.4945,8.4715,8.4614,8.4614,8.4614,8.4309,8.3795,8.3795,8.3389,8.2644,8.19,8.1156,8.0412,7.9701,7.8619,7.7401,7.6623,7.5608,7.4525,0.0,0.0,0.0,0.0,0.0,0.0,0.0,0.0,0.0,0.0,0.0,3.0473,3.2569,3.3639,3.5067,3.7056,4.0706,4.5239,5.0703,5.6617,6.1987,6.6588,6.97,7.1988,7.3432,7.4931,7.642,7.7933,7.8686,7.9803,8.1249,8.2002,8.2746,8.3422,8.349,8.3896,8.4512,8.3828,8.3964,8.4546,8.3795,8.2171,7.9811,7.5792,7.1522,6.7351,6.4579,6.1073,5.7602,5.6843,5.5351,5.4085,5.5435,5.5109,5.3966,5.2566,5.194,5.2005,5.3442,5.6933,6.1045,6.471,6.8004,7.1355,7.5067,7.7053,7.8536,8.0051,8.2939,8.5012,8.4278,8.6816,8.9032,8.91,8.91,8.9134,8.9134,8.7854,8.6372,8.485,8.4681,8.4681,8.4715,8.6738,8.8023,8.8023,8.87,8.91,8.91,8.91,8.91,8.91,8.91,8.87,8.7955,8.7245,8.6501,8.5723,8.4952,8.4614,8.4614,8.4614,8.458,8.458,8.458,8.4167,8.3422,8.2678,8.1934,8.1215,8.0445,7.9701,7.8957,7.8179,7.6521,7.4603,0.0,0.0,0.0,0.0,0.0,0.0,0.0,0.0,0.0,0.0,0.0,0.0,0.0,0.0,0.0,0.0,3.9169,4.3279,4.815,5.38,5.8995,6.3485,6.7121,6.9519,7.0567,7.2496,7.3984,7.5023,7.6251,7.7604,7.9151,8.0378,8.1325,8.2035,8.2543,8.2915,8.3092,8.234,8.19,8.1562,8.0344,7.8213,7.5337,7.1492,6.6922,6.204,0.0,5.5682,5.4855,5.2606,5.1769,5.1629,5.1488,5.1876,5.2331,5.184,5.306,5.5051,5.7148,6.128,6.5916,6.9782,7.3749,7.7479,8.0393,8.1802,8.2922,8.444,8.4419,8.4372,8.5115,8.5331,8.5858,8.738,8.7211,8.7273,8.8226,8.6636,8.4986,8.3998,8.3456,8.2949,8.2441,8.4911,8.6941,8.7922,8.8226,8.8564,8.9066,8.91,8.91,8.91,8.91,8.8734,8.7989,8.7753,8.7008,8.579,8.4979,8.4614,8.4614,8.4614,8.4614,8.4614,8.4614,8.4444,8.4106,8.2915,8.2272,8.19,8.0682,7.9431,7.8348,7.8077,7.686,7.5337,0.0,0.0,0.0,0.0,0.0,0.0,0.0,0.0,0.0,0.0,0.0,0.0,0.0,0.0,0.0,0.0,0.0,4.1617,4.6047,5.0928,5.5696,6.0319,6.3694,6.6073,6.7455,6.9147,7.0635,7.1921,7.2868,7.439,7.641,7.7333,7.8348,7.9295,7.9803,8.0006,7.9972,7.9228,7.8483,7.7671,7.6183,7.3646,7.0331,6.6846,6.2448,0.0,5.2807,5.1257,5.1077,4.8879,4.8596,4.9136,4.909,5.0426,5.2144,5.2662,5.5357,5.8815,6.1723,6.632,7.1219,7.5123,7.8825,8.2064,8.4242,8.508,8.5459,8.5655,8.4302,8.3186,8.3355,8.2611,8.2678,8.4945,8.5114,8.5486,8.6974,8.5723,8.4309,8.3592,8.2847,8.234,8.2103,8.3828,8.5587,8.7076,8.7685,8.8429,8.9444,8.9269,8.9207,8.9478,8.9269,8.8869,8.8395,8.8125,8.7245,8.579,8.5283,8.4884,8.4614,8.4614,8.4614,8.4614,8.4614,8.4614,8.4478,8.299,8.2408,8.2272,8.0784,7.9464,7.8348,7.8102,7.7198,7.6082,0.0,0.0,0.0,0.0,0.0,0.0,0.0,0.0,0.0,0.0,0.0,0.0,0.0,0.0,0.0,0.0,0.0,0.0,4.4284,4.7882,5.2095,5.7,5.9309,6.1596,6.3951,6.4749,6.6237,6.8538,6.8571,7.006,7.2935,7.3003,7.3792,7.5178,7.5212,7.5212,7.5178,7.44,7.3623,7.28,7.1255,6.8415,6.4816,6.1921,5.8066,5.3788,5.0119,4.7936,4.6631,4.594,4.6142,4.6967,4.8599,5.1026,5.356,5.5154,5.8877,6.3343,6.7131,7.2054,7.6995,8.0682,8.3253,8.5189,8.6609,8.6839,8.6061,8.3761,8.2543,8.1257,7.9067,7.8662,7.9372,8.1697,8.2746,8.3828,8.5486,8.508,8.4343,8.3693,8.2949,8.2813,8.349,8.3592,8.4234,8.575,8.7144,8.8598,9.0121,8.9478,8.9444,9.0188,8.9478,8.91,8.91,8.8361,8.7279,8.5885,8.5817,8.5384,8.4614,8.4614,8.4614,8.4614,8.4614,8.458,8.4411,8.299,8.2408,8.2205,8.0716,7.9701,7.8957,7.8213,7.7468,7.6724,0.0,0.0,0.0,0.0,0.0,0.0,0.0,0.0,0.0,0.0,0.0,0.0,0.0,0.0,0.0,0.0,0.0,0.0,4.0787,4.3152,4.6257,5.0393,5.2368,5.4254,5.6149,5.6892,5.8432,6.0757,6.1332,6.2741,6.5016,6.6129,6.711,6.7889,6.8449,6.8684,6.8617,6.7339,6.6091,6.4814,6.2636,5.9963,5.7076,5.5046,5.227,4.9167,4.708,4.6161,4.594,4.5771,4.7229,4.9648,5.2284,5.475,5.7265,6.0454,6.4579,6.9069,7.3373,7.7985,8.2272,8.5486,8.711,8.7888,8.7753,8.5993,8.3592,8.0818,7.7401,7.4627,7.3487,7.2834,7.3544,7.686,7.8991,8.1325,8.4444,8.4715,8.4749,8.5148,8.4539,8.4106,8.4275,8.4843,8.5587,8.6569,8.6974,8.8057,9.0087,8.9478,8.9444,9.0188,8.9478,8.91,8.91,8.8361,8.755,8.6602,8.6061,8.5384,8.4614,8.4614,8.4614,8.4614,8.4614,8.4275,8.3727,8.278,8.2069,8.1426,7.9972,7.8923,7.8179,7.7435,7.669,7.598,0.0,0.0,0.0,0.0,0.0,0.0,0.0,0.0,0.0,0.0,0.0,0.0,0.0,0.0,0.0,0.0,0.0,0.0,0.0,3.9841,4.2339,4.539,4.7133,4.8873,5.0641,5.0791,5.2017,5.4292,5.4376,5.5537,5.7652,5.8459,5.9209,5.9884,6.0609,6.0944,6.0877,5.9736,5.8599,0.0,0.0,5.3126,5.0807,5.0205,4.8359,4.607,4.5576,4.6146,4.7462,4.9409,5.1623,5.4042,5.707,6.0235,6.3429,6.6508,7.0804,7.5337,7.8855,8.2813,8.6433,8.8463,8.8767,8.8158,8.6399,8.3456,7.9972,7.6014,7.2124,6.9147,6.8076,6.8064,6.9553,7.3578,7.6995,8.0513,8.4573,8.5689,8.6399,8.7171,8.7144,8.6941,8.6602,8.7279,8.7888,8.8328,8.7753,8.8226,9.0121,8.9478,8.9444,9.0188,8.9478,8.91,8.91,8.8666,8.7955,8.6907,8.6467,8.5689,8.4614,8.4614,8.4614,8.4614,8.4614,8.42,8.3422,8.2712,8.1968,8.1215,8.004,7.9126,7.8416,7.801,7.7367,7.6657,0.0,0.0,0.0,0.0,0.0,0.0,0.0,0.0,0.0,0.0,0.0,0.0,0.0,0.0,0.0,0.0,0.0,0.0,0.0,0.0,3.9345,4.1264,4.2658,4.4251,4.6127,4.5681,4.6508,4.8766,4.8028,4.8783,5.0911,5.0827,5.1212,5.2016,5.2634,5.2919,5.2868,5.2115,5.143,5.0643,4.9254,4.7461,4.5686,0.0,4.5526,4.3901,4.511,4.7158,4.9968,5.4583,5.7205,5.9084,6.2516,6.6508,7.0466,7.3003,7.7232,8.1596,8.3896,8.711,8.9951,9.0527,8.9309,8.7144,8.3828,7.9904,7.5496,7.0251,6.6698,6.414,6.2835,6.3971,6.6576,7.1075,7.5743,8.0378,8.4843,8.6941,8.8328,8.9303,9.0053,9.029,8.9777,9.0188,9.0493,9.0493,8.9207,8.9004,9.029,8.9647,8.9478,9.0053,8.941,8.91,8.91,8.91,8.8361,8.6907,8.6907,8.6068,8.4614,8.4614,8.4614,8.4614,8.4614,8.42,8.3422,8.2712,8.1968,8.1215,8.0378,7.9667,7.9092,7.8991,7.8551,7.7933,0.0,0.0,0.0,0.0,0.0,0.0,0.0,0.0,0.0,0.0,3.0012,2.9889,0.0,0.0,0.0,0.0,0.0,0.0,0.0,0.0,0.0,3.6846,3.733,3.8432,4.0311,4.024,4.1371,4.382,4.3088,4.378,4.575,4.5218,4.5604,4.6715,4.6684,4.6668,4.6602,4.588,4.5301,4.479,4.3932,4.2715,4.1573,4.2741,0.0,0.0,4.5272,4.8195,5.1443,5.6678,5.9844,6.257,6.803,7.1954,7.5371,7.9464,8.3084,8.6366,8.9173,9.1812,9.3605,9.3131,9.0459,8.6738,8.1866,7.598,7.0082,6.4837,6.0858,5.8254,5.8017,6.0216,6.3531,6.7963,7.351,7.8822,8.3253,8.6264,8.8734,9.0696,9.1575,9.2252,9.2788,9.2319,9.202,9.202,9.1237,9.0831,9.1102,9.0425,8.9782,8.9337,8.9168,8.91,8.91,8.91,8.8361,8.6907,8.6907,8.6068,8.4614,8.4614,8.4614,8.4614,8.4614,8.42,8.3422,8.2712,8.1968,8.1181,7.9837,7.9228,7.9025,7.8416,7.8111,7.8,0.0,0.0,0.0,0.0,0.0,0.0,0.0,2.883,3.0522,3.2228,3.189,3.1582,3.1903,3.168,3.1769,0.0,0.0,0.0,0.0,0.0,0.0,3.4872,3.5445,3.641,3.7848,3.7917,3.8786,4.0404,0.0,4.0394,4.1336,4.1063,4.1249,4.1772,4.2113,4.22,4.2015,4.1751,4.1501,4.1167,4.058,4.0006,3.9635,4.1066,0.0,0.0,4.5053,4.7564,5.0636,5.5612,5.9825,6.414,7.0883,7.5608,7.9329,8.3084,8.6535,8.9681,9.188,9.3842,9.489,9.3368,8.9579,8.4674,7.8653,7.1515,6.4668,5.9422,5.5953,5.389,5.389,5.6968,6.0858,6.4952,7.0973,7.6961,8.2205,8.6196,8.9545,9.2184,9.3503,9.418,9.418,9.3842,9.347,9.3064,9.2692,9.1981,9.0797,9.0019,8.9444,8.9134,8.91,8.91,8.91,8.91,8.8361,8.6907,8.6907,8.6068,8.4614,8.4614,8.4614,8.4614,8.4614,8.42,8.3422,8.2712,8.1968,8.1215,8.0107,7.9667,7.9634,7.9261,7.9126,7.9092,0.0,0.0,0.0,0.0,0.0,0.0,0.0,2.9445,3.1568,3.3583,3.3983,3.386,3.3351,3.2427,3.1996,0.0,0.0,0.0,0.0,0.0,0.0,0.0,0.0,0.0,3.6298,0.0,0.0,3.7965,3.7951,0.0,0.0,0.0,0.0,0.0,3.8872,3.9011,3.8777,3.8941,3.8941,0.0,0.0,3.8511,3.8845,0.0,0.0,0.0,0.0,4.6554,4.9173,5.3669,5.8352,6.3477,7.0308,7.6183,8.1283,8.4802,8.8294,9.1474,9.3334,9.4789,9.5195,9.2793,8.7995,8.2103,7.5236,6.732,5.9979,5.4905,5.1961,5.0356,5.066,5.4126,5.8186,6.1921,6.803,7.4255,7.9938,8.4742,8.8835,9.2015,9.3977,9.4958,9.4721,9.4721,9.4451,9.3876,9.3368,9.2319,9.0527,8.9579,8.91,8.91,8.91,8.91,8.91,8.91,8.8361,8.6907,8.6907,8.6068,8.4614,8.4614,8.4614,8.4614,8.4614,8.4275,8.3659,8.278,8.2069,8.1426,8.0547,8.0209,8.0209,8.0209,8.0209,8.0107,0.0,0.0,0.0,0.0,0.0,0.0,0.0,3.0535,3.2967,3.5044,3.5845,3.6168,3.6122,3.4383,3.2998,0.0,0.0,0.0,0.0,0.0,0.0,0.0,0.0,0.0,0.0,0.0,0.0,3.657,3.6573,0.0,0.0,0.0,0.0,0.0,0.0,3.7407,3.7378,3.7392,0.0,0.0,0.0,0.0,0.0,0.0,0.0,0.0,0.0,4.596,4.8127,5.2085,5.5661,5.9235,6.4005,7.1379,7.9286,8.4328,8.7922,9.0932,9.3842,9.5195,9.5093,9.215,8.6467,7.9667,7.2315,6.4208,5.7002,5.2452,4.9221,4.7597,4.8951,5.1792,5.5108,5.881,6.4478,7.0026,7.4695,7.9769,8.437,8.8091,9.1,9.3237,9.4586,9.4721,9.4687,9.462,9.2692,9.1406,9.1203,8.985,8.91,8.91,8.91,8.91,8.91,8.91,8.8361,8.6907,8.6907,8.6068,8.4614,8.4614,8.4614,8.4614,8.4614,8.4546,8.4377,8.2956,8.2374,8.2171,8.075,8.0209,8.0209,8.0209,8.0209,8.0175,0.0,0.0,0.0,0.0,0.0,0.0,2.8184,3.0689,3.3166,3.5229,3.6091,3.6523,3.6523,3.5044,3.3782,3.3059,0.0,0.0,0.0,0.0,0.0,0.0,0.0,0.0,0.0,0.0,3.489,3.6176,3.6161,0.0,0.0,0.0,0.0,0.0,0.0,3.7073,3.6922,3.7029,0.0,0.0,0.0,0.0,0.0,0.0,0.0,0.0,0.0,0.0,4.6468,4.9023,5.1982,5.5074,5.8254,6.3565,7.0251,7.8643,8.4471,8.8869,9.1846,9.3876,9.4315,9.0831,8.4945,7.801,7.0534,6.211,5.4786,5.071,4.7902,4.6447,4.7496,5.0101,5.3027,5.5886,6.0994,6.6305,7.1244,7.6454,8.1291,8.5486,8.9004,9.1508,9.2556,9.3503,9.4045,9.4045,9.2319,9.1305,9.1305,8.9912,8.91,8.91,8.91,8.91,8.91,8.91,8.8361,8.6907,8.6907,8.6068,8.4614,8.4614,8.4614,8.4614,8.4614,8.4614,8.4478,8.299,8.2408,8.2272,8.0784,8.0209,8.0234,8.0385,8.046,8.0485,0.0,0.0,0.0,0.0,0.0,2.6333,2.7817,3.0368,3.2766,3.4644,3.5999,3.663,3.6245,3.5352,3.4336,3.3213,3.2659,0.0,0.0,0.0,0.0,0.0,0.0,0.0,0.0,0.0,3.4476,3.5571,3.5961,3.6396,0.0,0.0,3.6938,3.6862,0.0,0.0,0.0,0.0,0.0,0.0,0.0,0.0,0.0,0.0,0.0,0.0,0.0,0.0,0.0,0.0,0.0,5.1014,5.3061,5.6494,6.1806,7.2293,7.9431,8.4674,8.8057,9.0324,9.0932,8.7617,8.19,7.5202,6.7929,6.0047,5.3213,4.9458,4.6921,4.5669,4.6616,4.8849,5.137,5.3856,5.8287,6.3057,6.7861,7.3037,7.7908,8.2171,8.6366,8.9342,9.0527,9.2421,9.347,9.3267,9.2049,9.1203,9.1,8.9782,8.91,8.91,8.91,8.91,8.91,8.8897,8.8125,8.6907,8.667,8.5892,8.4614,8.4614,8.4614,8.4614,8.4614,8.4614,8.4478,8.299,8.2408,8.2272,8.0784,8.0209,8.0234,8.051,8.061,8.0659,0.0,0.0,0.0,0.0,0.0,0.0,2.6994,2.961,3.1903,3.3244,3.5799,3.6969,3.566,3.5506,3.4675,3.2598,3.2382,0.0,0.0,0.0,0.0,0.0,0.0,0.0,0.0,0.0,3.4505,3.4505,3.5845,3.6492,3.6523,3.6523,3.6523,3.6523,0.0,0.0,0.0,0.0,0.0,0.0,0.0,0.0,0.0,0.0,0.0,0.0,0.0,0.0,0.0,0.0,0.0,0.0,0.0,5.115,5.5649,6.6136,7.2902,7.7976,8.2374,8.4133,8.4174,8.1934,7.6893,7.0703,6.3991,5.7814,5.2469,4.8698,4.6143,4.5041,4.653,4.8003,4.9999,5.301,5.663,6.0332,6.414,6.9147,7.3849,7.7628,8.2644,8.6731,8.8931,9.1841,9.3267,9.2459,9.1711,9.0966,9.0256,8.9478,8.91,8.91,8.91,8.91,8.91,8.8361,8.7651,8.6907,8.6163,8.5384,8.4614,8.4614,8.4614,8.4614,8.4614,8.4614,8.4478,8.299,8.2408,8.2272,8.0784,8.0209,8.0234,8.051,8.061,8.0659,0.0,0.0,0.0,0.0,0.0,0.0,0.0,2.8369,3.026,3.1217,3.2906,3.386,3.3443,3.3381,3.3135,3.2458,3.2382,0.0,0.0,0.0,0.0,0.0,0.0,0.0,0.0,0.0,3.4213,3.5168,3.6061,3.6969,3.7861,3.7861,3.7615,3.7153,3.6692,3.6245,0.0,0.0,0.0,0.0,0.0,0.0,3.8122,0.0,0.0,0.0,0.0,0.0,0.0,0.0,0.0,0.0,0.0,0.0,0.0,5.619,6.3869,7.1515,7.4965,7.7604,7.8788,7.6521,7.2597,6.7827,6.211,5.6596,5.1758,4.8563,4.6143,4.4905,4.5872,4.7244,4.924,5.2282,5.5412,5.9167,6.3937,6.8233,7.2462,7.6724,8.3186,8.8361,9.1102,9.2725,9.3267,9.2459,9.1711,9.0966,9.0256,8.9478,8.91,8.91,8.91,8.8863,8.8328,8.8125,8.738,8.6129,8.5892,8.5384,8.4614,8.4614,8.4614,8.4614,8.4614,8.4309,8.3761,8.2813,8.2103,8.1528,8.0581,8.0209,8.0259,8.0709,8.0946,8.1131,0.0,0.0,0.0,0.0,0.0,0.0,0.0,2.6937,2.8462,2.9525,3.0799,3.1643,3.1643,3.2105,3.2198,3.1705,3.2105,0.0,0.0,0.0,0.0,0.0,0.0,0.0,0.0,3.332,3.4367,3.5506,3.6677,3.78,3.8861,3.8861,3.8522,3.7861,3.7184,3.6369,0.0,0.0,0.0,0.0,0.0,0.0,3.7716,0.0,0.0,0.0,0.0,0.0,0.0,0.0,0.0,0.0,0.0,0.0,0.0,0.0,5.5412,6.2212,6.6914,6.9789,7.1075,6.9676,6.6677,6.299,5.8626,5.4194,5.0304,4.7616,4.5737,4.4905,4.594,4.7312,4.9323,5.23,5.5277,5.8863,6.3531,6.7895,7.3003,7.9498,8.508,8.9444,9.2121,9.3131,9.3131,9.2083,9.1575,9.0865,8.985,8.9072,8.8666,8.8666,8.8666,8.8463,8.7989,8.7448,8.6704,8.5817,8.5486,8.508,8.4614,8.4614,8.4614,8.458,8.4309,8.393,0.0,8.2408,8.1697,8.1249,8.0479,8.0209,8.0284,8.0808,8.1117,8.1397,0.0,0.0,0.0,0.0,0.0,0.0,0.0,2.5413,2.66,2.7975,2.9341,3.0171,3.0171,3.1415,3.1767,3.0509,0.0,0.0,0.0,0.0,0.0,0.0,0.0,0.0,3.2334,3.3765,3.4844,3.5568,3.7584,3.8922,3.9661,3.9661,3.9261,3.8522,3.7831,3.6769,0.0,0.0,0.0,0.0,0.0,0.0,0.0,0.0,0.0,0.0,0.0,0.0,0.0,0.0,0.0,0.0,0.0,0.0,0.0,0.0,0.0,0.0,0.0,6.1028,6.1859,6.1859,5.9693,5.6851,5.3923,5.1014,0.0,4.6143,4.5094,4.5041,4.6462,4.7868,4.983,5.2841,5.5818,5.9066,6.2868,6.8178,7.5202,8.4573,8.7746,8.9951,9.2087,9.3098,9.2962,9.1406,9.1305,9.0628,8.9072,8.8361,8.7989,8.7922,8.7854,8.7854,8.7854,8.6467,8.5757,8.5716,8.4979,8.4614,8.4614,8.4614,8.458,8.4478,8.3795,8.3422,8.3219,8.1892,8.1308,8.1207,8.0521,8.0284,8.0326,8.0906,8.1214,8.1517,0.0,0.0,0.0,0.0,0.0,0.0,0.0,0.0,0.0,0.0,2.7226,2.8104,2.8104,2.9753,3.0725,0.0,0.0,0.0,0.0,0.0,0.0,0.0,0.0,0.0,3.1626,3.3519,3.509,3.6276,3.8292,3.9907,4.1124,4.1124,4.0447,3.9199,3.8046,3.6769,0.0,0.0,0.0,0.0,0.0,0.0,0.0,0.0,0.0,0.0,3.8721,3.9814,0.0,0.0,0.0,0.0,0.0,0.0,0.0,0.0,4.6346,4.7259,4.956,0.0,5.6427,5.6427,5.548,5.389,0.0,4.9492,4.7684,4.6027,4.5094,4.4871,4.5805,4.6684,4.8274,5.1269,5.4245,5.7746,6.2042,7.0128,7.7908,8.414,8.738,8.9748,9.1406,9.2793,9.2962,9.1406,9.1305,9.0391,8.8361,8.8091,8.7753,8.7177,8.6602,8.6298,8.6298,8.5987,8.5486,8.4884,8.4681,8.4614,8.4614,8.4614,8.4275,8.3761,8.3592,8.2847,8.1791,8.1656,8.1282,8.0764,8.099,8.1034,8.1107,8.1636,8.2106,8.244,0.0,0.0,0.0,0.0,0.0,0.0,0.0,0.0,0.0,0.0,0.0,0.0,0.0,0.0,0.0,0.0,0.0,0.0,0.0,0.0,0.0,0.0,0.0,3.1089,3.138,3.3457,3.5168,3.6523,3.883,4.0676,4.2078,4.2078,4.1494,4.0368,3.8077,3.6646,0.0,0.0,0.0,0.0,3.6585,0.0,0.0,0.0,0.0,0.0,3.8637,3.9665,0.0,4.1715,4.2617,4.349,0.0,0.0,0.0,0.0,4.4384,4.4877,4.6007,4.8849,5.1623,5.1961,5.1488,5.0592,4.9357,4.797,4.6568,4.5432,4.5142,4.5432,4.65,4.7868,4.9796,5.279,5.5767,6.0013,6.6596,7.3781,8.0209,8.5053,8.7685,8.9816,9.1643,9.2252,9.2184,9.1372,9.1,8.9985,8.8091,8.7685,8.7177,8.6433,8.5655,8.5418,8.5817,8.5418,8.5046,8.4614,8.4614,8.4614,8.458,8.4242,8.3915,8.364,8.2962,8.2293,8.1664,8.1449,8.1272,8.1107,8.1397,8.1636,8.1827,8.1955,8.2257,8.255,0.0,0.0,0.0,0.0,0.0,0.0,0.0,0.0,0.0,0.0,0.0,0.0,0.0,0.0,0.0,0.0,0.0,0.0,0.0,0.0,0.0,0.0,0.0,3.0707,3.138,3.355,3.5322,3.663,3.9353,4.1322,4.2602,4.2602,4.2078,4.1001,3.7892,3.6523,0.0,0.0,0.0,0.0,3.6723,0.0,0.0,0.0,0.0,0.0,0.0,0.0,0.0,4.1594,4.2436,4.3085,4.3186,0.0,0.0,0.0,0.0,0.0,4.5148,4.6602,4.7954,4.8781,4.8529,4.8056,4.7921,4.6838,4.5703,4.5074,4.5447,4.6331,4.7954,4.9848,5.2216,5.5361,5.8829,6.4072,7.2462,7.7333,8.1663,8.6027,8.7955,8.9748,9.1851,9.1609,9.1203,9.0966,9.0391,8.9342,8.7753,8.7076,8.6399,8.5621,8.4979,8.4945,8.5587,8.4945,8.4614,8.4614,8.4614,8.4546,8.4411,8.3821,8.3538,8.35,8.2343,8.188,8.1933,8.144,8.1469,8.1885,8.1886,8.214,8.2502,8.2159,8.2199,8.2388,0.0,0.0,0.0,0.0,0.0,0.0,0.0,0.0,0.0,0.0,0.0,0.0,0.0,0.0,0.0,0.0,0.0,0.0,0.0,0.0,0.0,2.9415,3.0048,3.0707,3.138,3.3997,3.5999,3.7338,4.0108,4.1832,4.2602,4.2602,4.1291,3.8891,3.7246,3.6523,3.6492,0.0,0.0,0.0,3.6892,0.0,0.0,0.0,0.0,0.0,0.0,0.0,0.0,4.0666,4.1336,4.1644,4.2252,0.0,0.0,0.0,0.0,0.0,4.4533,4.5853,4.7293,4.8646,4.8917,4.8665,4.8056,4.7259,4.6583,4.6496,4.6549,4.7259,4.9372,5.0541,5.2385,5.6055,6.1752,6.7806,7.3612,7.7232,8.0657,8.4512,8.6873,8.8801,9.0391,9.1,9.0763,8.9512,8.9337,8.8328,8.6257,8.6027,8.5587,8.4817,8.4647,8.4647,8.4783,8.4647,8.4614,8.4614,8.4614,8.4275,8.3659,8.3794,8.3176,8.2029,8.2275,8.2017,8.1472,8.1977,8.2349,8.2656,8.2692,8.2891,8.3111,8.2731,8.2705,8.2886,0.0,0.0,0.0,0.0,0.0,0.0,0.0,0.0,0.0,0.0,0.0,0.0,0.0,0.0,0.0,0.0,0.0,0.0,0.0,0.0,0.0,2.9938,3.0922,3.1613,3.1934,3.4644,3.6692,3.8046,4.0416,4.2109,4.3143,4.2386,4.0786,3.8461,3.7492,3.6862,3.66,3.66,0.0,0.0,0.0,0.0,0.0,0.0,0.0,0.0,0.0,0.0,0.0,0.0,4.1152,4.1271,4.161,0.0,0.0,0.0,0.0,0.0,4.3741,4.5635,4.7564,4.8225,4.8714,4.8917,4.8563,4.8545,4.8594,4.8594,4.9221,5.0338,5.2181,5.4126,5.7288,6.3091,6.7963,7.254,7.6995,7.987,8.2577,8.5493,8.711,8.8564,9.0087,8.9782,8.941,8.9134,8.8361,8.7279,8.5885,8.5817,8.5418,8.4614,8.4614,8.4614,8.4614,8.4367,8.4129,8.4031,8.4031,8.3704,8.3089,8.2836,8.2537,8.2276,8.2311,8.2241,8.2107,8.2282,8.2572,8.287,8.2704,8.2863,8.3125,8.2733,8.2432,8.2249,0.0,0.0,0.0,0.0,0.0,0.0,0.0,0.0,0.0,0.0,0.0,0.0,0.0,0.0,0.0,0.0,0.0,0.0,0.0,0.0,3.0307,3.0615,3.1921,3.2721,3.2889,3.5553,3.7707,3.9247,4.1278,4.2743,4.3562,4.2048,4.0324,3.8477,3.7678,3.711,3.677,3.6846,3.721,0.0,0.0,0.0,0.0,0.0,0.0,0.0,0.0,0.0,0.0,0.0,0.0,0.0,0.0,0.0,0.0,4.0506,4.1284,4.2455,4.3186,4.535,4.7481,4.7819,4.8834,4.9763,4.9763,5.0608,5.1454,5.1623,5.2706,5.4093,5.5615,5.8727,6.326,6.9913,7.3443,7.6589,7.9972,8.2374,8.4471,8.6399,8.7448,8.8429,8.9579,8.8666,8.8091,8.8322,8.7279,8.6359,8.5661,8.5627,8.5383,8.4826,8.4826,8.4725,8.4529,8.4188,8.3856,8.3595,8.3478,8.3133,8.2624,8.2162,8.2208,8.263,8.2419,8.2485,8.2702,8.2594,8.2663,8.2862,8.2538,8.2622,8.2849,8.2536,8.2162,8.1768,0.0,0.0,0.0,0.0,0.0,0.0,0.0,0.0,0.0,0.0,0.0,0.0,0.0,0.0,0.0,0.0,0.0,0.0,0.0,0.0,3.0043,3.1287,3.2598,3.3644,3.432,3.6969,3.9339,4.137,4.339,4.4129,4.3562,4.1524,3.9845,3.8446,3.7265,3.6847,3.6984,3.7223,3.7565,3.79,0.0,0.0,0.0,0.0,0.0,0.0,0.0,0.0,0.0,0.0,0.0,0.0,0.0,0.0,4.1204,4.1136,4.1677,4.2455,4.3186,4.4606,4.6196,4.7549,4.9984,5.2063,5.2063,5.3737,5.5496,5.619,5.6934,5.7949,5.9438,6.3835,6.8571,7.262,7.5777,7.8576,8.0911,8.3152,8.4877,8.5757,8.711,8.8023,8.8158,8.8057,8.7448,8.6156,8.5953,8.5688,8.5173,8.5165,8.5236,8.5437,8.5463,8.5061,8.4344,8.4276,8.414,8.3882,8.3432,8.2843,8.2166,8.2565,8.2503,8.2176,8.2829,8.2853,8.2466,8.3084,8.3009,8.2519,8.2485,8.2402,8.2235,8.2231,8.2174,8.2154,0.0,0.0,0.0,0.0,0.0,0.0,0.0,0.0,0.0,0.0,0.0,0.0,0.0,0.0,0.0,0.0,0.0,0.0,0.0,2.9784,3.043,3.1349,3.3135,3.4613,3.5722,3.7954,3.9955,4.1586,4.3205,4.3636,4.291,4.083,3.9434,3.864,3.7437,3.7105,3.745,3.7623,3.8059,3.8595,3.8692,0.0,0.0,0.0,0.0,0.0,0.0,0.0,0.0,0.0,4.0113,4.0248,4.0967,4.1204,4.1305,4.1745,4.2422,4.3051,4.3321,4.4843,4.6616,4.765,5.0845,5.3856,5.4312,5.6883,5.9674,6.1298,6.2245,6.3348,6.5324,6.8436,7.209,7.6318,7.872,8.1012,8.3719,8.4809,8.5621,8.6399,8.6974,8.7313,8.7313,8.6907,8.6427,8.5851,8.5351,8.5078,8.5097,8.5281,8.5249,8.5001,8.5144,8.4867,8.4052,8.4397,8.4519,8.4387,8.3306,8.2864,8.3026,8.2707,8.2753,8.3169,8.3103,8.2847,8.247,8.2503,8.2435,8.2283,8.219,8.2161,8.2186,8.2186,8.2186,8.2186,0.0,0.0,0.0,0.0,0.0,0.0,0.0,0.0,0.0,0.0,0.0,0.0,0.0,0.0,0.0,0.0,0.0,0.0,2.9353,2.9845,3.0461,3.1349,3.295,3.4582,3.6153,3.7954,3.9985,4.225,4.3359,4.3359,4.2232,4.042,3.9228,3.8508,3.7637,3.7465,3.7845,3.813,3.8581,3.9107,3.9202,3.9455,0.0,0.0,0.0,0.0,0.0,0.0,0.0,0.0,4.0113,4.0282,4.1238,4.1542,4.1677,4.2422,4.2983,4.3389,4.3389,4.4877,4.6752,4.7954,5.1623,5.5446,5.7374,6.0351,6.3396,6.5865,6.7151,6.8267,6.9857,7.1954,7.4695,7.8459,8.0547,8.2509,8.508,8.5621,8.5993,8.6501,8.6771,8.6805,8.6569,8.6095,8.5614,8.5114,8.4573,8.4325,8.4479,8.4737,8.4879,8.4826,8.5059,8.4895,8.4203,8.4344,8.4341,8.4129,8.2859,8.2708,8.355,8.3161,8.3077,8.3244,8.2974,8.26,8.2222,8.2061,8.1979,8.1995,8.1936,8.2002,8.2186,8.2186,8.2186,8.2186,0.0,0.0,0.0,0.0,0.0,0.0,0.0,0.0,0.0,0.0,0.0,0.0,0.0,0.0,0.0,0.0,0.0,0.0,2.9353,2.9415,3.0012,3.1318,3.2057,3.3381,3.5445,3.6815,3.951,4.3562,4.4221,4.3544,4.1555,4.0371,3.916,3.8013,3.7826,3.786,3.8159,3.878,3.9121,3.9342,3.9599,3.9781,0.0,0.0,0.0,0.0,0.0,0.0,0.0,0.0,4.0113,4.035,4.1826,4.23,4.2469,4.3186,4.3423,4.3423,4.3423,4.4539,4.623,4.8477,5.2418,5.6916,6.14,6.416,6.6596,6.9642,7.1413,7.2428,7.2428,7.4255,7.6487,7.8754,8.0961,8.2923,8.4377,8.5283,8.5784,8.5784,8.6433,8.6602,8.5885,8.5784,8.5114,8.3592,8.349,8.3412,8.32,8.3441,8.4081,8.5077,8.5296,8.5214,8.4888,8.4144,8.3529,8.3013,8.2196,8.2409,8.3524,8.3996,8.3421,8.2108,8.2401,8.2186,8.1714,8.1901,8.1834,8.1613,8.1818,8.2002,8.2186,8.2186,8.2186,8.2186,0.0,0.0,0.0,0.0,0.0,0.0,0.0,0.0,0.0,0.0,0.0,0.0,0.0,0.0,0.0,0.0,0.0,0.0,2.8676,2.9138,2.9784,3.0645,3.1797,3.3381,3.5445,3.7738,3.9722,4.1414,4.1599,4.1414,4.0799,3.9646,3.9338,3.9771,3.9465,3.9671,4.0263,4.0023,4.012,4.05,4.0579,4.0697,4.0801,0.0,0.0,0.0,0.0,0.0,0.0,0.0,0.0,0.0,4.1826,4.23,4.257,4.3856,4.4228,4.4364,4.4891,4.6094,4.7887,5.0642,5.4702,5.9201,6.37,6.6867,7.0014,7.4086,7.527,7.5574,7.5574,7.6961,7.8653,8.0378,8.2069,8.3524,8.4478,8.4783,8.4979,8.4979,8.5155,8.5189,8.4979,8.4505,8.3998,8.3524,8.3199,8.3049,8.3191,8.3924,8.4401,8.4525,8.4555,8.4315,8.3848,8.3779,8.3631,8.3497,8.3546,8.3574,8.3616,8.3187,8.291,8.2773,8.2346,8.1812,8.1292,8.1596,8.1765,8.1835,8.2038,8.2154,8.2186,8.2186,8.2186,8.2186,0.0,0.0,0.0,0.0,0.0,0.0,0.0,0.0,0.0,0.0,0.0,0.0,0.0,0.0,0.0,0.0,0.0,0.0,0.0,2.9169,2.9692,3.0356,3.1674,3.3381,3.5445,3.7615,3.8645,3.8491,3.9667,4.0101,3.9826,3.9385,3.9755,4.0738,4.0545,4.0921,4.1673,4.0898,4.0903,4.1425,4.1175,4.1308,4.161,0.0,0.0,0.0,0.0,0.0,0.0,0.0,0.0,0.0,4.1474,4.2049,4.2536,4.3741,4.4364,4.4804,4.5872,4.7428,4.9627,5.3213,5.7457,6.2347,6.8301,7.1312,7.3781,7.7096,7.801,7.8213,7.8213,7.8957,7.9938,8.1088,8.2061,8.2881,8.3599,8.3734,8.3734,8.3734,8.3734,8.3734,8.3734,8.3697,8.3275,8.2393,8.2446,8.2271,8.1718,8.2439,8.3016,8.3277,8.3448,8.3497,8.3464,8.2915,8.2685,8.2649,8.2264,8.1957,8.1714,8.22,8.2244,8.1961,8.1871,8.1634,8.1304,8.1598,8.1802,8.1882,8.1754,8.1709,8.1709,8.1709,8.1709,8.1782,0.0,0.0,0.0,0.0,0.0,0.0,0.0,0.0,0.0,0.0,2.6837,0.0,0.0,0.0,0.0,0.0,0.0,0.0,0.0,0.0,2.963,3.0356,3.1828,3.3505,3.5445,3.6753,3.683,3.5614,3.8316,3.9296,3.8741,3.9519,4.0401,4.1339,4.1452,4.1956,4.2655,4.1573,4.1513,4.2166,4.1476,4.1644,4.2232,4.1474,0.0,0.0,0.0,0.0,0.0,0.0,0.0,0.0,4.0967,4.1644,4.2367,4.3152,4.3978,4.4939,4.6563,4.8661,5.1488,5.5987,6.067,6.625,7.4052,7.642,7.7435,7.8991,7.9837,8.031,8.031,8.0344,8.0581,8.1215,8.1384,8.1629,8.2306,8.2408,8.2408,8.2408,8.2408,8.2374,8.2332,8.3107,8.2752,8.0718,8.1399,8.1149,7.9431,7.9872,8.0616,8.1592,8.2036,8.2541,8.3157,8.1672,8.0857,8.0857,7.9318,7.8593,7.8666,8.0983,8.1307,8.0174,8.1,8.1377,8.1411,8.1616,8.1683,8.1643,8.1094,8.0901,8.0901,8.0901,8.0901,8.1012,0.0,0.0,0.0,0.0,0.0,0.0,0.0,0.0,0.0,0.0,0.0,0.0,0.0,0.0,0.0,0.0,0.0,0.0,0.0,0.0,2.9138,3.0356,3.2721,3.449,3.5476,3.6307,3.6631,3.6445,3.7575,3.8166,3.8231,3.9882,4.1549,4.3153,4.3539,4.4044,4.4511,4.2648,4.2341,4.301,4.1732,4.1644,4.2232,4.1474,4.1204,0.0,0.0,0.0,0.0,0.0,0.0,0.0,4.0967,4.1305,4.1711,4.3017,4.3978,4.5176,4.78,5.0608,5.3822,5.8287,6.4546,7.085,7.5574,7.7198,7.8348,8.0378,8.0953,8.108,8.108,8.1528,8.1799,8.1359,8.1799,8.2238,8.2408,8.2408,8.2408,8.2408,8.2408,8.2282,8.1911,8.1511,8.1056,8.0354,8.029,7.9936,7.9042,7.9951,8.0395,8.023,8.0233,8.037,8.0694,7.9716,7.9209,7.9209,7.8231,7.776,7.7796,7.9111,7.9592,7.9417,7.9649,7.9822,7.9934,8.0003,8.0101,8.023,8.0131,8.0073,8.0073,8.0073,8.0073,8.0073,0.0,0.0,0.0,0.0,0.0,0.0,0.0,0.0,0.0,0.0,0.0,0.0,0.0,0.0,0.0,0.0,0.0,0.0,0.0,0.0,2.9753,3.1753,3.3566,3.4952,3.5968,3.6338,3.64,3.6212,3.7452,3.8356,3.8904,4.065,4.2597,4.4622,4.4805,4.505,4.5171,4.3089,4.2456,4.2794,4.1644,4.1644,4.2232,4.1474,4.1204,4.1102,4.0371,0.0,0.0,0.0,0.0,0.0,0.0,0.0,4.1428,4.2544,4.3436,4.4756,4.8105,5.1217,5.5277,6.2584,6.8402,7.3138,7.6217,7.7198,7.8077,8.031,8.1054,8.1418,8.1765,8.1832,8.1731,8.1384,8.1325,8.1359,8.1359,8.1054,8.0818,8.0818,8.0513,8.0242,8.0084,8.0287,7.9977,7.8994,7.9411,7.9177,7.7958,7.8665,7.9037,7.8968,7.8999,7.9124,7.9318,7.8521,7.8122,7.8122,7.7289,7.7028,7.7179,7.8115,7.8761,7.9208,7.9409,7.954,7.9636,7.9636,7.97,7.9779,7.9376,7.9229,7.9229,7.9229,7.9229,7.9302,0.0,0.0,0.0,0.0,0.0,0.0,0.0,0.0,0.0,0.0,0.0,0.0,0.0,0.0,0.0,0.0,0.0,0.0,0.0,0.0,0.0,3.2936,3.3751,3.4767,3.6122,3.6276,3.6153,3.579,3.7614,3.91,4.022,4.1789,4.3639,4.5623,4.5589,4.5505,4.5255,4.3165,4.23,4.2232,4.1339,4.1441,4.2029,4.1305,4.1001,4.0933,4.0303,4.0113,4.0113,4.0113,0.0,0.0,0.0,0.0,4.1339,4.2083,4.2929,4.4404,4.8173,5.2063,5.7273,6.6576,7.1109,7.3883,7.6183,7.6792,7.7468,7.9431,8.0513,8.1325,8.2069,8.1697,8.1283,8.1148,8.0479,8.0006,8.0006,7.9397,7.8923,7.8923,7.8382,7.7997,7.8006,7.8982,7.8959,7.7358,7.8411,7.8436,7.6811,7.7127,7.7483,7.7721,7.7935,7.8111,7.8267,7.7649,7.7268,7.7123,7.6359,7.6125,7.64,7.7089,7.796,7.8869,7.9212,7.9376,7.9376,7.9376,7.9376,7.9286,7.8626,7.8369,7.8369,7.8369,7.8369,7.8479,0.0,0.0,0.0,0.0,0.0,0.0,0.0,0.0,0.0,0.0,0.0,0.0,0.0,0.0,0.0,0.0,0.0,0.0,2.8522,0.0,0.0,3.1595,3.2334,3.3351,3.4751,3.5322,3.5794,3.6113,3.7822,3.9747,4.1844,4.3444,4.4749,4.5781,4.6188,4.5995,4.5255,4.3165,4.23,4.2198,4.0811,4.0709,4.1271,4.054,4.0248,4.0235,4.0146,4.0113,4.0113,4.0113,4.0113,0.0,0.0,0.0,4.1339,4.2083,4.3315,4.5244,4.8966,5.5446,6.2313,6.6914,7.0331,7.3138,7.5337,7.6386,7.7164,7.8077,7.9397,8.0581,8.1291,8.1384,8.1088,8.0445,7.9735,7.9261,7.9261,7.8619,7.817,7.817,7.8044,7.7663,7.6812,7.7056,7.6959,7.6161,7.6841,7.7008,7.6397,7.6913,7.6945,7.6312,7.6465,7.6584,7.6618,7.668,7.6363,7.5673,7.4981,7.4676,7.4707,7.5024,7.6041,7.7557,7.7604,7.7619,7.7619,7.7619,7.7619,7.7619,7.7509,7.7472,7.7472,7.7472,7.7472,7.7509,0.0,0.0,0.0,0.0,0.0,0.0,0.0,0.0,0.0,0.0,0.0,0.0,0.0,0.0,0.0,2.8387,2.8411,2.8411,2.8411,2.9015,3.0012,3.1349,3.2057,3.3074,3.4474,3.4856,3.5432,3.6217,3.8106,4.008,4.2172,4.4851,4.6391,4.6879,4.7154,4.6634,4.5486,4.4153,4.2841,4.1644,4.0967,4.0899,4.1157,0.0,0.0,0.0,0.0,0.0,4.1318,4.1318,4.1318,4.1318,4.1318,0.0,0.0,0.0,4.3403,4.4925,4.9492,5.5513,6.14,6.5121,6.8639,7.1751,7.395,7.5067,7.5946,7.713,7.7908,7.8585,7.932,7.9456,7.9329,7.9025,7.8686,7.8483,7.8483,7.7841,7.7198,7.6758,7.6472,7.6077,7.5492,7.5748,7.5919,7.5796,7.626,7.6453,7.6141,7.651,7.6519,7.6193,7.6242,7.6362,7.6462,7.6109,7.5572,7.4831,7.453,7.4478,7.457,7.4647,7.5382,7.6542,7.6598,7.6885,7.7289,7.7289,7.7289,7.7289,7.7289,7.7289,7.7289,7.7289,7.7289,7.7289,0.0,0.0,0.0,0.0,0.0,0.0,0.0,0.0,0.0,0.0,0.0,0.0,0.0,0.0,0.0,0.0,2.8411,2.8411,2.8411,2.9015,2.9907,3.1089,3.178,3.2735,3.395,3.428,3.4957,3.605,3.8232,4.0416,4.2613,4.5675,4.745,4.802,4.8112,4.7346,4.594,4.4973,4.3382,4.1474,4.1474,4.1474,4.1474,0.0,0.0,0.0,0.0,0.0,0.0,4.23,4.23,4.23,4.23,4.2435,0.0,0.0,0.0,4.5181,4.9476,5.4177,5.8709,6.2313,6.6,6.935,7.1548,7.2935,7.4153,7.5473,7.6048,7.6487,7.7029,7.7604,7.8,7.8,7.7696,7.7425,7.7425,7.6695,7.5906,7.5296,7.5011,7.4787,7.4522,7.4916,7.528,7.5459,7.5936,7.6177,7.6074,7.6292,7.6409,7.6409,7.6228,7.6185,7.6336,7.5402,7.4676,7.4226,7.3992,7.3995,7.4152,7.4152,7.4592,7.5361,7.5666,7.6261,7.6995,7.6995,7.7105,7.7289,7.7289,7.7289,7.7289,7.7289,7.7289,7.7289,0.0,0.0,0.0,0.0,0.0,0.0,0.0,0.0,0.0,0.0,0.0,0.0,2.7753,2.8039,2.8247,2.8399,2.8411,2.8411,2.8411,2.9015,2.9722,3.0417,3.1089,0.0,3.2475,3.3321,3.4352,3.5645,3.8076,4.0852,4.3846,4.5544,4.7295,4.8935,4.8951,4.8105,4.6665,4.521,4.3687,4.2232,4.2232,0.0,0.0,0.0,0.0,0.0,0.0,0.0,0.0,0.0,0.0,4.23,4.23,4.2794,4.3355,0.0,0.0,0.0,4.8646,5.1894,5.5547,5.854,6.211,6.5459,6.7692,6.9891,7.1695,7.2462,7.3747,7.4728,7.4796,7.6555,7.8,7.8,7.6758,7.5811,7.5811,7.4804,7.4025,7.3991,7.4297,7.4419,7.4168,7.4668,7.496,7.4855,7.5567,7.6074,7.6258,7.659,7.6769,7.6769,7.6024,7.5623,7.566,7.4299,7.364,7.3729,7.2944,7.2614,7.2628,7.2628,7.3032,7.3854,7.461,7.5432,7.6166,7.6166,7.6592,7.7289,7.7289,7.7289,7.7289,7.7289,7.7289,7.7289,0.0,0.0,0.0,0.0,0.0,0.0,0.0,0.0,0.0,0.0,0.0,0.0,0.0,2.821,2.8363,2.8411,2.8799,2.9045,2.9045,2.9679,3.0338,3.0997,3.1354,3.1826,3.2492,3.3674,3.475,3.5733,3.8497,4.1012,4.3256,4.5947,4.7839,4.9018,4.9018,4.8443,4.7447,4.6428,4.5142,4.3721,4.32,0.0,0.0,0.0,0.0,0.0,0.0,0.0,0.0,0.0,0.0,0.0,0.0,0.0,4.4181,4.4181,4.506,4.6312,4.7327,4.9965,5.3044,5.5547,5.8964,6.2415,6.5155,6.7523,6.962,7.1345,7.2496,7.3341,7.3815,7.4965,7.5811,7.5811,7.4965,7.4119,7.3646,7.3311,7.2835,7.2003,7.248,7.2776,7.2455,7.3069,7.3865,7.4724,7.4689,7.4952,7.5827,7.5482,7.5254,7.5254,7.4962,7.4645,7.4242,7.3838,7.3392,7.2936,7.2642,7.2496,7.2496,7.2496,7.2679,7.2936,7.323,7.4096,7.538,7.5909,7.6276,7.6592,7.7105,7.7289,7.7289,7.7289,7.7289,7.7289,0.0,0.0,0.0,0.0,0.0,0.0,0.0,0.0,0.0,0.0,0.0,0.0,0.0,0.0,2.883,2.9045,2.9476,2.9753,2.9753,3.0368,3.0936,3.138,3.1734,3.2292,3.3029,3.4058,3.5176,3.6304,3.8676,4.0741,4.2559,4.5282,4.7057,4.7902,4.8139,4.8139,4.7853,4.7124,4.5954,4.4567,4.4282,0.0,4.4268,0.0,0.0,0.0,0.0,0.0,0.0,0.0,0.0,0.0,0.0,0.0,0.0,0.0,4.4939,4.55,4.621,4.8037,5.027,5.2536,5.531,5.8287,6.1298,6.37,6.5933,6.8212,6.9857,7.1131,7.1966,7.2711,7.3343,7.3781,7.3309,7.261,7.1864,7.1859,7.1618,7.0826,7.1472,7.1937,7.185,7.2549,7.3413,7.443,7.4256,7.444,7.526,7.4847,7.444,7.4184,7.4184,7.3842,7.3178,7.3245,7.3046,7.2496,7.2496,7.2496,7.2496,7.2496,7.2496,7.2496,7.2496,7.3266,7.4551,7.5065,7.5616,7.6166,7.6702,7.7069,7.7289,7.7289,7.7289,7.7289,0.0,0.0,0.0,0.0,0.0,0.0,0.0,0.0,0.0,2.8025,0.0,0.0,0.0,0.0,0.0,3.0356,3.0448,3.0448,3.0417,3.1059,3.1411,3.1411,3.2197,3.3043,3.3907,3.4438,3.5553,3.7315,3.8542,4.0099,4.1895,4.353,4.4783,4.5703,4.6447,4.7158,4.7785,4.7056,4.5954,4.4736,4.5432,4.5722,4.5838,0.0,0.0,0.0,4.6902,4.6887,0.0,4.6007,0.0,0.0,0.0,0.0,0.0,0.0,0.0,4.477,0.0,0.0,0.0,4.9474,5.1116,5.301,5.5987,5.8389,6.0622,6.2902,6.5696,6.8027,6.9054,6.9811,7.0731,7.1966,7.1796,7.1272,7.0512,7.0372,7.0386,7.0485,7.1272,7.1932,7.2316,7.3038,7.3579,7.3832,7.429,7.462,7.4656,7.4755,7.4441,7.3634,7.3597,7.323,7.2459,7.2422,7.2422,7.2422,7.2422,7.2422,7.2422,7.2459,7.2459,7.2459,7.2496,7.2936,7.3685,7.367,7.4625,7.6019,7.6093,7.6592,7.7289,7.7289,7.7289,7.7289,0.0,0.0,0.0,0.0,0.0,0.0,2.8241,2.8651,2.8957,0.0,0.0,0.0,3.0109,3.0566,3.0918,3.1103,3.1582,3.1643,3.1164,3.1749,3.2119,3.2119,3.3142,3.3872,3.427,3.5999,3.7227,3.782,3.9608,4.0748,4.1271,4.2908,4.4105,4.4939,4.5669,4.6109,4.6297,4.6109,4.6075,4.6157,4.5838,4.6331,0.0,0.0,0.0,0.0,0.0,4.8849,4.8274,0.0,4.6955,4.6278,0.0,0.0,0.0,0.0,0.0,0.0,4.4838,0.0,0.0,0.0,0.0,0.0,5.3162,5.5344,5.7559,5.9791,6.1806,6.3551,6.4878,6.5711,6.6396,6.6907,6.8795,6.9816,6.8651,6.8702,6.8605,6.7856,6.8593,6.9238,6.9511,7.0256,7.1208,7.2434,7.2328,7.2753,7.3905,7.2907,7.2188,7.1967,7.1394,7.0991,7.077,7.077,7.077,7.077,7.077,7.077,7.077,7.138,7.1637,7.1674,7.2261,7.2642,7.2899,7.345,7.3964,7.4478,7.5652,7.624,7.6481,7.7105,7.7289,7.7289,0.0,0.0,0.0,0.0,0.0,2.8799,2.8799,2.9384,2.9815,0.0,0.0,0.0,3.1599,3.2259,3.2673,3.2673,3.2766,3.2687,3.2369,3.2448,3.2674,3.3105,3.3881,3.47,3.5505,3.7055,3.8084,3.8547,3.9865,4.0536,4.057,4.1882,4.2895,4.3653,4.4418,4.4925,4.5229,4.5229,4.5669,4.6346,4.6534,0.0,0.0,4.9864,5.0371,0.0,0.0,0.0,5.071,4.9645,4.8157,0.0,0.0,0.0,0.0,0.0,0.0,0.0,0.0,0.0,0.0,4.6143,0.0,0.0,5.0168,5.1758,5.3534,5.5733,5.7442,5.9084,6.092,6.1908,6.2717,6.3621,6.5407,6.675,6.7015,6.7503,6.7556,6.6778,6.7323,6.7776,6.7629,6.8506,6.9486,7.0434,7.0674,7.1211,7.2129,7.1321,7.0807,7.0807,7.033,7.011,7.011,7.011,7.011,7.011,7.011,7.011,7.011,7.0587,7.0807,7.083,7.1651,7.2004,7.2041,7.2863,7.3377,7.3817,7.5102,7.5799,7.6203,7.6995,7.7289,7.7289,0.0,0.0,2.9029,2.9287,2.937,2.9445,2.9599,3.0184,3.0632,0.0,3.1397,3.2334,3.3614,3.4336,0.0,0.0,3.4088,3.3683,3.3743,3.3153,3.3152,3.3985,3.4501,3.5481,3.7007,3.7786,3.854,3.9322,3.9716,3.9977,4.0044,4.0835,4.1644,4.2455,4.3118,0.0,4.4615,4.4615,4.5074,4.594,4.7346,4.8496,0.0,0.0,5.2536,5.2773,5.3484,5.3754,5.3467,5.1776,4.9357,0.0,0.0,0.0,0.0,0.0,4.4615,0.0,0.0,0.0,0.0,0.0,4.5635,0.0,4.7346,4.8225,4.9357,5.1386,5.2976,5.4703,5.6996,5.8087,5.9286,6.1222,6.1733,6.2846,6.5502,6.6493,6.6792,6.6403,6.6797,6.6865,6.6346,6.7346,6.8055,6.8165,6.9186,6.9853,6.9963,6.9889,6.9853,6.9963,6.9889,6.9816,6.9816,6.9816,6.9816,6.9816,6.9816,6.9816,6.9816,6.9926,6.9963,7.0,7.083,7.116,7.1233,7.2041,7.2826,7.3634,7.4441,7.5249,7.6056,7.6885,7.7215,7.7289,0.0,0.0,2.9348,3.0058,2.974,2.9753,3.0856,3.1582,3.2198,3.2752,3.3936,3.5014,3.5814,3.6014,0.0,0.0,3.5656,3.4906,3.4081,3.3971,3.3855,3.3617,3.508,3.6114,3.6625,3.8329,3.9335,3.9612,3.9922,4.0366,4.0962,4.1123,4.1901,4.3186,4.3355,4.3842,4.4615,4.4615,4.5379,4.665,4.7549,4.9409,5.1758,5.2841,5.4008,5.5056,5.5192,5.5259,5.4853,5.2114,5.0017,4.824,0.0,0.0,0.0,4.477,0.0,0.0,0.0,0.0,0.0,0.0,0.0,0.0,4.6061,4.6684,4.753,4.8563,4.9476,5.059,5.2265,5.3312,5.4719,5.709,5.779,5.9596,6.3952,6.4619,6.4713,6.4892,6.4975,6.4968,6.4966,6.541,6.5929,6.6573,6.7593,6.8471,6.9119,6.8531,6.8458,6.9119,6.8495,6.8178,6.8178,6.8178,6.8178,6.8178,6.8178,6.8178,6.8178,6.8825,6.9119,6.9192,7.0,7.033,7.0403,7.1197,7.2004,7.2826,7.3634,7.4441,7.5234,7.6056,7.6738,7.7289,2.962,2.9447,2.9444,2.9833,3.0461,3.112,3.1811,3.2766,3.3566,3.3905,3.5226,3.6538,3.7558,0.0,0.0,0.0,0.0,0.0,0.0,3.5828,3.5741,3.5654,3.658,3.7373,3.7979,3.9481,4.0266,4.0344,4.0923,4.1386,4.1745,4.1745,4.2354,4.3389,4.3389,4.3842,4.4615,4.4615,4.5447,4.6853,4.7582,4.9442,5.1911,5.345,5.4735,5.58,5.6528,5.6308,5.5395,5.3551,5.1386,0.0,4.78,4.6853,4.6177,0.0,4.5447,4.5244,0.0,0.0,0.0,4.5616,0.0,0.0,0.0,4.5703,4.592,4.665,4.7124,4.7785,4.9273,4.9974,5.1181,5.3655,5.4431,5.6053,5.979,6.1594,6.2668,6.3063,6.2859,6.259,6.2325,6.2827,6.3567,6.4438,6.5372,6.6085,6.6476,6.6512,6.688,6.7687,6.732,6.7297,6.77,6.77,6.77,6.77,6.77,6.77,6.77,6.8141,6.8311,6.8348,6.9155,6.9486,6.9559,7.0367,7.116,7.2004,7.323,7.4184,7.5014,7.5799,7.6592,7.7289,2.939,2.9415,2.9476,2.9753,3.1243,3.2475,3.2766,3.3874,3.4782,3.5044,3.6414,3.784,3.9098,0.0,0.0,0.0,0.0,0.0,0.0,0.0,3.7864,3.811,3.8388,3.8924,3.9721,4.0708,4.121,4.121,4.1963,4.2354,4.2489,4.2489,4.2929,4.3626,4.3626,4.3978,4.4615,4.4615,4.5447,4.6868,4.7462,4.9172,5.1641,5.3619,5.5006,5.6071,5.7408,5.6934,5.5597,5.4837,5.2688,5.0168,4.9458,4.8206,0.0,0.0,0.0,0.0,0.0,0.0,0.0,0.0,0.0,4.5703,0.0,0.0,0.0,4.5365,4.55,4.5906,4.7244,4.7596,4.8454,5.0784,5.1567,5.2725,5.5169,5.7677,5.9688,6.0816,6.0579,6.0116,5.9625,6.0285,6.1068,6.1826,6.2658,6.3282,6.3589,6.4383,6.5251,6.6256,6.6256,6.6659,6.748,6.748,6.7554,6.77,6.77,6.77,6.77,6.77,6.77,6.7737,6.8385,6.8678,6.8752,6.9522,7.033,7.1197,7.2679,7.3927,7.4977,7.5616,7.6481,7.7289,2.9494,2.9415,2.9753,3.0979,3.1828,3.2827,3.4073,3.489,3.5814,3.6999,3.8486,3.9813,0.0,0.0,0.0,0.0,0.0,0.0,4.0682,0.0,0.0,3.9328,4.0054,4.0548,4.0628,4.15,4.1971,4.1971,4.2186,4.2625,4.3288,4.3288,4.3707,4.4465,4.4465,4.4499,4.4615,4.4615,4.5447,4.68,4.6887,4.9068,5.235,5.3281,5.4905,5.6799,5.7629,5.6934,5.5597,0.0,5.3044,5.093,0.0,4.8951,4.7785,4.7785,0.0,0.0,0.0,0.0,0.0,0.0,4.6244,0.0,0.0,0.0,4.4601,4.4702,0.0,4.4973,4.5805,0.0,0.0,4.8529,4.9274,5.0279,5.2067,5.2465,5.4014,5.786,5.8006,5.7886,5.8019,5.8234,5.8425,5.8547,5.9306,6.037,6.1814,6.2658,6.382,6.5398,6.5435,6.5815,6.6623,6.6623,6.7003,6.77,6.77,6.77,6.77,6.77,6.77,6.77,6.7811,6.7847,6.7921,6.8715,6.9522,7.033,7.1197,7.2922,7.4903,7.5014,7.6004,7.7289,3.0048,3.0276,3.0733,3.1287,3.2642,3.3813,3.4412,3.5722,3.7047,3.8115,3.9694,4.1223,0.0,0.0,0.0,0.0,0.0,4.5318,0.0,0.0,0.0,0.0,4.1372,4.1574,4.1667,4.2436,4.2868,4.2868,4.3375,4.3789,4.4079,4.4079,4.4296,4.4615,4.4615,4.4838,4.5229,4.5229,4.6075,4.7481,4.7902,4.9526,5.1792,5.2536,5.4465,5.69,5.7645,5.7239,5.6224,0.0,5.4025,0.0,0.0,0.0,0.0,4.9323,0.0,0.0,0.0,0.0,0.0,0.0,0.0,0.0,4.6346,0.0,4.4615,0.0,0.0,0.0,0.0,0.0,0.0,0.0,4.7493,4.8255,4.9484,4.9785,5.116,5.4681,5.4772,5.4661,5.497,5.5085,5.5141,5.5196,5.6381,5.7593,5.8767,6.0444,6.2169,6.3783,6.4347,6.5007,6.5815,6.5802,6.6219,6.699,6.699,6.726,6.77,6.77,6.77,6.77,6.77,6.77,6.7737,6.8068,6.8935,7.011,7.0477,7.2092,7.4258,7.472,7.5601,7.6665,3.1199,0.0,3.1472,3.1626,3.3227,3.4704,3.5304,3.697,3.8455,3.9397,4.1198,0.0,4.4935,4.6848,0.0,0.0,5.0067,4.941,0.0,0.0,4.545,0.0,0.0,0.0,0.0,4.3775,4.393,4.3741,4.433,4.4615,4.4615,4.4615,4.4615,4.4615,4.4615,4.5007,4.5703,4.5703,4.6669,4.8259,4.8781,4.9984,5.1641,5.279,5.4735,5.69,5.7645,5.7408,5.6731,5.6172,5.4905,0.0,5.3044,5.2114,5.1133,0.0,0.0,0.0,5.027,0.0,0.0,0.0,0.0,0.0,0.0,0.0,0.0,0.0,4.5041,0.0,0.0,0.0,0.0,0.0,0.0,4.6677,4.7338,4.7751,4.8995,5.1701,5.1921,5.1939,5.2247,5.2311,5.2412,5.2543,5.3812,5.5071,5.6088,5.8205,6.026,6.2095,6.2952,6.3906,6.4971,6.4971,6.5375,6.6182,6.6402,6.6806,6.737,6.759,6.77,6.77,6.77,6.77,6.77,6.77,6.8508,6.9779,7.0,7.1321,7.3156,7.4184,7.5212,7.6166,3.3183,3.2273,3.1595,3.2242,3.3535,3.5211,3.7359,3.8863,4.0096,0.0,0.0,0.0,0.0,0.0,0.0,0.0,0.0,5.2382,5.1933,0.0,4.8409,0.0,0.0,4.6312,0.0,0.0,4.5263,4.4567,4.4581,4.4615,4.4615,4.4615,4.4615,4.4615,4.4615,4.5007,4.5703,4.5703,4.694,4.8984,4.8984,5.0304,5.2503,5.4752,5.6071,5.69,5.7645,0.0,5.6799,5.6765,5.531,5.3619,5.4296,0.0,0.0,0.0,0.0,0.0,0.0,0.0,0.0,5.027,0.0,0.0,0.0,0.0,4.6733,0.0,0.0,0.0,0.0,0.0,0.0,0.0,0.0,0.0,0.0,4.6025,4.7009,4.8981,4.9788,5.0261,5.0476,5.0613,5.0727,5.0865,5.1646,5.2831,5.4399,5.6051,5.8022,6.0419,6.1263,6.2487,6.4139,6.4139,6.453,6.5362,6.6145,6.6512,6.6549,6.7333,6.77,6.77,6.77,6.77,6.77,6.77,6.8201,6.9009,6.9816,7.0624,7.1564,7.3156,7.4735,7.6093,0.0,0.0,3.3633,3.378,3.4552,3.5952,3.8309,4.041,0.0,0.0,4.7366,0.0,0.0,5.4966,5.689,0.0,0.0,5.6792,5.5325,5.3129,0.0,0.0,0.0,4.7413,0.0,0.0,0.0,4.5331,4.4838,4.4615,4.4615,4.4615,4.4615,4.4615,4.4615,4.5277,4.6447,4.694,4.8157,4.9796,5.0777,5.2536,5.4617,5.5395,5.5922,5.6435,5.764,5.8035,5.7852,5.72,5.6519,5.5823,5.5447,5.4786,5.4042,5.3315,5.2942,5.2723,5.2723,5.1979,5.137,5.2164,0.0,0.0,0.0,0.0,0.0,0.0,0.0,0.0,0.0,0.0,0.0,0.0,0.0,0.0,0.0,4.5892,4.6575,4.7571,4.7989,4.8345,4.879,4.8871,4.8962,4.9131,4.9884,5.1069,5.2721,5.4851,5.7116,5.9526,6.0896,6.2108,6.3246,6.3233,6.3686,6.4494,6.4787,6.5191,6.5742,6.6549,6.6916,6.6953,6.748,6.77,6.77,6.77,6.8164,6.8921,6.9192,7.0132,7.149,7.312,7.4037,7.4661,3.499,3.5094,3.503,3.4798,3.5556,3.7123,3.9787,4.2387,0.0,0.0,5.1406,0.0,5.7172,0.0,6.1293,0.0,6.1923,6.0781,5.9284,5.6849,0.0,5.2959,5.1217,0.0,0.0,0.0,0.0,0.0,4.4973,4.4615,4.4615,4.4615,4.4615,4.4615,4.4615,4.5413,4.6834,4.7327,4.868,5.0608,5.2131,5.3754,5.5344,5.5597,5.6144,5.6914,5.792,5.8401,5.8422,5.7857,5.7445,5.7103,5.6487,5.6077,5.5618,5.4669,5.4347,5.4279,5.4279,5.3568,5.2926,5.3365,5.2063,0.0,4.9932,0.0,4.8391,0.0,0.0,0.0,0.0,0.0,0.0,0.0,0.0,0.0,0.0,4.5879,4.6362,4.694,4.7145,4.7428,4.7951,4.8002,4.8082,4.8287,4.8783,4.9664,5.1069,5.3162,5.5427,5.7838,5.9758,6.1263,6.2352,6.2646,6.3086,6.3649,6.3956,6.4347,6.4897,6.5999,6.6512,6.6549,6.737,6.77,6.77,6.77,6.8031,6.8495,6.8788,6.9692,7.1013,7.2349,7.3193,7.3905,3.5685,3.6019,3.6023,3.5611,3.6751,3.8783,4.1853,4.4841,4.8023,0.0,5.5476,5.886,6.1473,6.3229,6.4892,6.6495,6.527,6.4207,6.3646,6.0805,0.0,0.0,5.5903,5.3653,5.1404,0.0,0.0,0.0,4.5041,4.4649,4.4615,4.4615,4.4615,4.4615,4.4615,4.5413,4.6766,4.6819,4.8545,5.137,5.2892,5.3957,5.4685,5.5412,5.6738,5.8209,5.8421,5.8525,5.8578,5.8667,5.8169,5.7483,5.7483,5.6884,5.6132,5.6098,5.5925,5.5784,5.5784,5.5699,5.5327,5.3991,5.3585,5.3145,0.0,0.0,5.1333,0.0,0.0,0.0,0.0,0.0,0.0,0.0,0.0,0.0,0.0,0.0,4.6242,4.6929,4.7187,4.7515,4.7962,4.8002,4.8082,4.8287,4.8296,4.8673,4.9527,5.1143,5.3125,5.5511,5.7948,5.9967,6.1569,6.2401,6.2793,6.2793,6.3649,6.4066,6.4139,6.5742,6.6476,6.6549,6.737,6.77,6.77,6.77,6.77,6.7774,6.8531,6.9376,7.0183,7.105,7.2349,7.3817,3.7796,3.8917,3.9841,4.0239,4.078,4.1819,4.3816,4.7432,5.1257,0.0,5.9046,6.2485,6.4946,6.6577,6.7762,6.8384,6.7032,0.0,0.0,0.0,0.0,5.9573,5.7408,5.5446,5.3754,5.115,0.0,4.7346,0.0,4.5142,4.4615,4.4615,4.4615,4.4615,4.4615,4.5108,4.6041,4.7143,4.9307,5.208,5.3112,5.4008,5.4839,5.5637,5.6678,5.7843,5.8444,5.884,5.9132,5.9249,5.9144,5.8955,5.8821,5.8548,5.8084,5.7398,5.6969,5.6741,5.6741,5.5821,5.5074,5.5959,5.4839,5.3585,5.3872,5.3073,0.0,0.0,0.0,0.0,0.0,0.0,0.0,0.0,0.0,0.0,0.0,0.0,0.0,4.6952,4.7367,4.7684,4.7972,4.8002,4.8082,4.8287,4.8296,4.8673,4.9527,5.1143,5.3125,5.5511,5.7948,5.9967,6.1569,6.2401,6.2793,6.2793,6.3013,6.3466,6.4139,6.5154,6.5925,6.6549,6.737,6.77,6.77,6.77,6.77,6.7737,6.7921,6.8875,7.0257,7.1688,7.2826,7.3722,3.9311,4.0871,4.2422,4.355,4.5022,4.629,4.7161,5.0664,5.4763,5.9042,6.2742,0.0,6.8343,6.9343,7.0028,7.0478,6.9147,0.0,6.7713,0.0,0.0,6.3057,6.0283,5.7915,5.6072,5.3112,0.0,4.7921,0.0,4.5331,4.4615,4.4615,4.4615,4.4615,4.4615,4.5007,4.5838,4.7616,4.9713,5.1894,5.2738,5.3787,0.0,5.5468,5.6387,5.7478,5.8388,5.9007,5.9451,5.9746,5.986,5.9844,5.9746,5.9549,5.923,5.8596,5.7946,5.7432,5.7345,5.6406,5.557,5.6098,5.5451,5.472,5.4957,5.4599,5.4241,5.4307,5.3516,5.2548,0.0,0.0,0.0,0.0,0.0,0.0,0.0,0.0,0.0,0.0,4.7508,4.7804,4.8078,4.8108,4.8131,4.8287,4.8296,4.8526,4.9013,5.0582,5.2417,5.4473,5.7214,5.9465,6.1043,6.2205,6.2793,6.2793,6.2793,6.3282,6.4139,6.4934,6.5729,6.6549,6.737,6.77,6.77,6.77,6.77,6.7737,6.8104,6.8972,7.0257,7.149,7.2496,7.3193,4.0839,4.2553,4.4489,4.6269,4.9139,5.1397,5.1965,5.4688,5.826,6.2757,6.5964,6.8692,7.103,7.1289,7.1616,7.2326,7.1041,7.0217,7.0217,6.7578,6.617,6.6622,6.3396,6.0419,5.7967,5.5108,5.181,0.0,0.0,4.5399,4.4615,4.4499,4.4499,4.4615,4.4499,4.4973,4.5974,4.8003,4.9763,5.1317,5.2242,5.3495,5.4837,5.5238,5.6044,5.7123,5.8349,5.9131,5.9641,6.0227,6.0434,6.043,6.0309,6.007,5.9765,5.9467,5.8652,5.782,5.7636,5.7001,5.6247,5.5481,5.5688,5.5979,5.5534,5.5893,5.6354,5.6472,5.5372,5.42,5.3529,0.0,0.0,0.0,0.0,0.0,0.0,0.0,0.0,0.0,0.0,0.0,4.8168,4.8197,4.8236,4.8296,4.8296,4.8296,4.8296,4.9884,5.1526,5.3141,5.6308,5.8767,6.0382,6.1985,6.2793,6.2793,6.2793,6.3319,6.4273,6.4971,6.5802,6.6696,6.7407,6.77,6.77,6.77,6.77,6.7774,6.8605,6.9376,7.0183,7.1013,7.1821,7.2496,4.386,4.5666,4.7618,4.975,5.2236,5.5358,5.9663,6.0204,6.1068,6.3767,6.6867,6.9475,7.112,7.1289,7.1616,7.2326,7.1041,0.0,0.0,0.0,0.0,6.5933,6.4106,6.1501,5.7967,5.5632,5.257,0.0,0.0,4.592,4.4581,4.391,4.3944,4.4567,4.391,4.4722,4.665,4.765,4.94,5.1509,5.2307,5.3446,5.4815,5.5535,5.6241,5.7043,5.8698,5.9359,5.9567,6.0605,6.1102,6.1149,6.036,6.0073,5.9857,5.8893,5.8189,5.77,5.7492,5.6696,5.6021,5.6326,5.592,5.5752,5.6901,5.6798,5.6472,5.6488,5.5883,5.4996,5.3802,0.0,0.0,0.0,0.0,0.0,0.0,0.0,0.0,0.0,0.0,4.8002,4.8177,4.8197,4.8236,4.8296,4.8296,4.8296,4.8296,4.9884,5.1526,5.3141,5.6308,5.8767,6.0382,6.1985,6.2793,6.2793,6.2793,6.36,6.5081,6.5251,6.6109,6.7517,6.7627,6.77,6.77,6.77,6.77,6.7774,6.8605,6.9376,7.0183,7.1013,7.1821,7.2496,4.7586,4.9062,5.0687,5.2893,5.5949,5.9302,6.299,6.4823,6.6281,6.7745,6.9622,7.1379,7.2845,7.2326,7.2157,7.2902,7.1616,7.077,7.077,6.8605,6.7184,6.6846,6.4343,6.1704,5.9099,5.6494,5.3315,4.956,0.0,0.0,4.3978,4.3592,4.3592,4.3978,4.4012,4.506,4.6868,4.7687,4.9433,5.1681,5.2701,5.3848,5.5037,5.5754,5.6258,5.6815,5.8281,5.8892,5.9233,6.087,6.1565,6.1618,6.081,6.0502,6.0176,5.9101,5.8253,5.7665,5.7408,5.6621,5.5889,5.5993,5.5882,5.5899,5.666,5.6802,5.6804,5.6885,5.628,5.5252,5.3555,5.1906,0.0,0.0,0.0,0.0,0.0,0.0,0.0,0.0,0.0,0.0,0.0,4.8229,4.8285,4.8296,4.8296,4.8296,4.8296,4.9481,5.0912,5.2527,5.5684,5.8143,5.9747,6.1802,6.2793,6.2793,6.2793,6.3453,6.4677,6.5105,6.5962,6.7113,6.7517,6.77,6.77,6.77,6.77,6.7737,6.8128,6.8752,6.9596,7.0367,7.1211,7.1931,5.1212,5.2539,5.4039,5.6246,5.9749,6.3091,6.5628,6.8673,7.0872,7.1481,7.2056,7.2902,7.4221,7.3071,7.2462,7.3206,7.2056,7.1289,7.1289,6.8617,6.7218,6.7658,6.441,6.1772,5.9911,5.7288,5.4076,0.0,0.0,0.0,4.3896,4.3389,4.3152,4.322,4.4161,4.5413,4.6868,4.7791,4.96,5.1897,5.3164,5.4381,5.5476,5.5978,5.6393,5.6835,5.79,5.8422,5.8927,6.0751,6.1503,6.1514,6.0963,6.0583,6.0139,5.9091,5.8232,5.759,5.7317,5.6672,5.6,5.5592,5.5774,5.602,5.6133,5.6514,5.6886,5.7061,5.6453,5.5266,5.3355,5.224,5.1421,0.0,0.0,0.0,0.0,0.0,0.0,0.0,0.0,0.0,4.8287,4.8296,4.8296,4.8296,4.8296,4.8296,4.8296,4.9123,5.0335,5.195,5.495,5.7398,5.9196,6.1435,6.2646,6.2793,6.2793,6.3282,6.4139,6.4934,6.5729,6.6549,6.737,6.759,6.7444,6.7444,6.7333,6.7223,6.737,6.7944,6.8752,6.9743,7.0624,7.1417,5.4024,5.5936,5.8066,6.0366,6.326,6.6508,7.0106,7.1548,7.2225,7.2293,7.236,7.2699,7.3534,7.2293,7.1718,7.2428,7.1785,7.1289,7.1289,6.9113,6.7523,6.6927,6.4661,6.2057,5.9148,5.7543,5.4871,0.0,0.0,4.7008,4.5432,4.3369,4.2388,4.2469,4.3924,4.5413,4.6868,4.7791,4.9736,5.2268,5.3341,5.4737,5.6215,5.6407,5.6819,5.7435,5.8246,5.8674,5.8956,6.0004,6.0346,6.0334,6.0161,5.9675,5.8957,5.802,5.7594,5.736,5.7093,5.6875,5.6564,5.6,5.5785,5.5842,5.6259,5.6268,5.6225,5.6446,5.6095,5.5217,5.3556,5.3526,5.309,0.0,0.0,0.0,0.0,0.0,4.8861,4.8251,0.0,0.0,4.8287,4.8296,4.8296,4.8296,4.8296,4.8296,4.8296,4.9123,5.0335,5.195,5.441,5.6822,5.9196,6.086,6.2071,6.2793,6.2793,6.3282,6.4139,6.4934,6.5729,6.6549,6.737,6.7297,6.6623,6.6623,6.6182,6.5582,6.6329,6.71,6.7994,6.9522,7.0624,7.1417,5.8863,6.0351,6.1839,6.3632,6.6034,6.8402,7.0331,7.165,7.2563,7.3003,7.3037,7.3172,7.3466,7.2563,7.209,7.236,7.1751,7.0917,7.006,6.8267,6.6711,6.5527,6.3768,6.1839,5.9708,5.778,5.5412,0.0,0.0,0.0,0.0,4.4421,4.3844,4.3993,4.5637,4.7124,4.8503,4.9521,5.1247,5.3455,5.4688,5.5806,5.6763,5.7038,5.7375,5.7704,5.8116,5.8274,5.8431,5.9321,5.9883,6.0115,5.9664,5.9334,5.8943,5.7994,5.7667,5.7583,5.74,5.7201,5.6959,5.6644,5.6251,5.6007,5.621,5.6062,5.5944,5.6208,5.6141,5.5532,5.4019,5.4028,5.3728,5.2112,0.0,0.0,0.0,0.0,0.0,4.9055,0.0,4.8258,4.8296,4.8296,4.8296,4.8296,4.8296,4.8296,4.8296,4.9123,5.0335,5.195,5.4803,5.7262,5.9196,6.1251,6.2462,6.2793,6.2793,6.3282,6.4139,6.4934,6.5999,6.7223,6.704,6.6806,6.6476,6.5999,6.5582,6.5325,6.5655,6.6256,6.7173,6.8788,6.9889,7.077,6.2976,6.414,6.5222,6.6474,6.8402,6.9992,7.0737,7.1718,7.2597,7.3105,7.2823,7.2688,7.3105,7.2529,7.209,7.209,7.1413,7.0432,6.918,6.7455,6.5933,6.4647,6.3193,0.0,6.0581,5.8582,5.6465,5.433,5.1529,0.0,4.7349,4.6711,4.6206,4.5959,4.7548,4.8916,5.0041,5.1124,5.261,5.4334,5.5659,5.6568,5.715,5.751,5.7726,5.7881,5.7973,5.7997,5.8107,5.8646,5.9174,5.9492,5.9283,5.9049,5.8707,5.8039,5.7869,5.7845,5.7715,5.751,5.7313,5.71,5.671,5.6361,5.6314,5.6092,5.5964,5.6225,5.6336,5.6004,5.4691,5.4494,5.4169,5.3071,0.0,0.0,0.0,5.0731,0.0,4.9647,4.882,4.8296,4.8296,4.8296,4.8416,4.8673,4.8673,4.8673,4.8673,4.927,5.0445,5.227,5.5023,5.7324,5.9196,6.1361,6.2683,6.316,6.316,6.3649,6.4494,6.5301,6.6256,6.7333,6.6733,6.6219,6.5742,6.5191,6.4811,6.4591,6.4861,6.5448,6.6329,6.7944,6.9192,7.0293,6.5649,6.6846,6.8098,6.891,7.0297,7.1526,7.2259,7.2394,7.2394,7.2428,7.1142,7.077,7.2259,7.1751,7.1289,7.1289,7.0635,6.9891,6.9147,6.6948,6.5358,0.0,0.0,6.2159,6.159,6.0075,5.8294,5.6269,0.0,0.0,5.0832,5.0377,4.9368,4.8028,4.9507,5.0518,5.1168,5.2239,5.3398,5.4628,5.5977,5.6858,5.7412,5.7679,5.7892,5.7997,5.7997,5.7997,5.7997,5.7997,5.8033,5.8143,5.8939,5.8646,5.7997,5.7997,5.7997,5.7973,5.7845,5.781,5.7715,5.7289,5.7087,5.6907,5.6667,5.6492,5.6383,5.6383,5.6613,5.6561,5.5734,5.5144,5.4568,5.3912,0.0,0.0,0.0,5.1197,0.0,4.9674,4.882,4.8296,4.8296,4.8296,4.8673,4.9527,4.9564,4.9564,4.9564,4.961,5.0702,5.3104,5.4766,5.6748,5.9196,6.0823,6.245,6.4103,6.4103,6.4494,6.5288,6.6109,6.6512,6.6512,6.6512,6.5595,6.4139,6.4139,6.3613,6.2903,6.3759,6.4604,6.5508,6.71,6.8728,7.022,6.8458,6.8741,6.9113,7.0376,7.0985,7.1357,7.1616,7.1344,7.1116,7.1116,7.0398,7.0042,7.0519,7.0231,7.0073,7.0191,6.9531,6.8578,6.7284,6.6058,6.4798,6.3558,6.3047,6.2506,6.1813,6.044,5.9181,5.8152,5.5994,5.4375,5.3297,5.3568,5.3033,5.1926,5.2982,5.3513,5.3577,5.3979,5.4873,5.6054,5.6711,5.7264,5.7679,5.7881,5.7962,5.7997,5.7997,5.7997,5.7997,5.7997,5.7997,5.8033,5.829,5.8217,5.7997,5.7997,5.7997,5.7997,5.795,5.7881,5.7786,5.7619,5.7425,5.7239,5.715,5.71,5.7074,5.7074,5.7138,5.6972,5.6273,5.5546,5.484,5.4189,5.354,0.0,5.2794,0.0,5.151,5.1253,5.0508,4.9994,4.9994,4.9994,5.0105,5.0398,5.0398,5.0398,5.0398,5.1463,5.2674,5.3995,5.6627,5.8682,6.0003,6.1618,6.2989,6.4103,6.4103,6.4787,6.6145,6.6366,6.6512,6.6439,6.5338,6.458,6.4066,6.3466,6.305,6.2903,6.3759,6.4604,6.5472,6.7113,6.8728,7.022,6.9553,6.9417,6.9405,7.0407,7.0577,7.0599,7.0687,7.0432,7.0221,7.0307,6.9786,6.9495,6.9687,6.9399,6.9207,6.9391,6.8802,6.7747,6.6205,6.5436,6.4496,6.3261,6.3227,6.3062,6.2729,6.1616,6.0705,5.9934,5.7919,5.6523,5.5764,5.6488,5.6304,5.5348,5.5893,5.5999,5.5778,5.5604,5.6031,5.6845,5.7213,5.7522,5.7834,5.795,5.7997,5.7997,5.7997,5.7997,5.7997,5.7997,5.7997,5.7997,5.7997,5.7997,5.7997,5.7997,5.7997,5.7997,5.7997,5.7939,5.7869,5.7822,5.7655,5.7522,5.7474,5.7461,5.7461,5.7461,5.7461,5.7352,5.6926,5.5988,5.5122,5.4725,5.3836,5.3214,5.3214,0.0,5.1987,0.0,0.0,5.0802,5.0802,5.0802,5.0949,5.1242,5.1242,5.1499,5.2123,5.281,5.3838,5.528,5.7838,5.9747,6.086,6.2475,6.3723,6.4567,6.5167,6.5975,6.6953,6.6623,6.6329,6.5999,6.4971,6.4383,6.4103,6.382,6.3747,6.3783,6.4347,6.5044,6.5888,6.688,6.8458,7.0183,6.9292,6.9089,6.9154,6.9403,6.9446,6.9497,6.9688,6.9704,6.9775,6.9962,6.9323,6.9089,6.9625,6.906,6.8675,6.8736,6.8305,6.7403,6.5918,6.5161,6.4454,6.3728,6.3694,6.3858,6.4164,6.3485,6.2607,6.1616,5.9799,5.8733,5.8299,5.919,5.914,5.8214,5.8164,5.7981,5.765,5.7083,5.6907,5.7074,5.7449,5.7679,5.7845,5.795,5.7997,5.7997,5.7997,5.7997,5.7997,5.7997,5.7997,5.7997,5.7997,5.7997,5.7997,5.7997,5.7997,5.7997,5.7997,5.7997,5.7973,5.7857,5.7822,5.7798,5.7679,5.7619,5.7619,5.7619,5.7619,5.7619,5.7619,5.6399,5.5407,5.5407,5.4177,5.3214,5.3214,5.2564,5.2097,5.2097,5.1463,5.1059,5.1059,5.1059,5.1389,5.2207,5.2171,5.2747,5.4326,5.3728,5.4425,5.6737,5.8352,5.993,6.1484,6.3221,6.453,6.5398,6.6966,6.77,6.7664,6.6806,6.6035,6.5362,6.5251,6.4824,6.4249,6.5007,6.5288,6.5288,6.5362,6.5852,6.6512,6.6623,6.8128,7.011,6.9574,6.9084,6.89,6.9522,6.9772,6.9864,6.9906,6.9822,6.9802,6.9842,6.9066,6.8563,6.871,6.8311,6.7799,6.72,6.7323,6.7076,6.6216,6.5476,6.5001,6.4825,6.4842,6.4876,6.4961,6.4414,6.3625,6.2565,6.174,6.1294,6.123,6.1649,6.1324,6.043,5.9812,5.9156,5.8462,5.7626,5.7388,5.7607,5.7703,5.7845,5.7962,5.7985,5.7997,5.7997,5.7997,5.7997,5.7997,5.7997,5.7997,5.7997,5.7997,5.7997,5.7997,5.7997,5.7997,5.7997,5.7997,5.7997,5.7997,5.7962,5.795,5.795,5.7916,5.7916,5.7916,5.7916,5.7916,5.7916,5.7916,5.6619,5.5541,5.5541,5.4231,5.3214,5.3214,5.3031,5.292,5.292,5.3298,5.3555,5.3555,5.3555,5.3885,5.4704,5.3592,5.3371,5.4363,5.4803,5.5574,5.6774,5.8352,5.9673,6.0676,6.2952,6.4787,6.6219,6.7223,6.77,6.7664,6.6219,6.5815,6.6145,6.4934,6.4604,6.5031,6.5215,6.5288,6.5362,6.5999,6.6329,6.6659,6.7871,6.9082,7.0183,6.9097,6.8651,6.8561,6.9135,6.9345,6.9505,6.9767,6.9767,6.9648,6.9448,6.8999,6.8592,6.8429,6.8206,6.7818,6.7159,6.7069,6.6781,6.61,6.5691,6.5491,6.5572,6.5572,6.5652,6.5776,6.5535,6.4884,6.3769,6.3225,6.2774,6.2475,6.2616,6.2396,6.1794,6.1003,6.0162,5.9297,5.8482,5.8008,5.7822,5.7881,5.7939,5.7997,5.7997,5.7997,5.7997,5.7997,5.7997,5.7997,5.7997,5.7997,5.7997,5.7997,5.7997,5.807,5.8437,5.829,5.7997,5.7997,5.7997,5.8107,5.8474,5.8535,5.8657,5.9024,5.8804,5.8535,5.8535,5.8253,5.7997,5.7997,5.6686,5.5585,5.5585,5.4252,5.3214,5.3214,5.3214,5.3324,5.3691,5.4142,5.4546,5.4913,5.4961,5.4997,5.506,5.4583,5.4473,5.4913,5.5365,5.5989,5.6774,5.8719,6.0297,6.1471,6.3943,6.5815,6.704,6.748,6.7517,6.7113,6.5888,6.5545,6.5888,6.5044,6.5118,6.5888,6.6256,6.6402,6.6439,6.688,6.7283,6.7687,6.8568,6.9619,7.0697,6.8828,6.8447,6.844,6.8819,6.8879,6.9066,6.9598,6.9724,6.9601,6.9117,6.9025,6.882,6.833,6.8215,6.7984,6.7595,6.7182,6.6638,6.603,6.5994,6.6037,6.6172,6.6172,6.6309,6.6595,6.6517,6.596,6.4858,6.4174,6.3485,6.2793,6.2793,6.273,6.2592,6.1799,6.0981,6.0211,5.9505,5.8822,5.8175,5.817,5.818,5.818,5.8033,5.7997,5.7997,5.7997,5.7997,5.7997,5.7997,5.7997,5.8033,5.8143,5.818,5.8327,5.9159,5.8902,5.8364,5.8364,5.8364,5.8547,5.9196,5.938,5.9563,6.0224,5.9857,5.938,5.938,5.8719,5.818,5.818,5.687,5.5732,5.5622,5.4363,5.3324,5.3214,5.3287,5.3618,5.4326,5.473,5.5207,5.5915,5.6062,5.5915,5.5354,5.5611,5.5842,5.5952,5.5842,5.6088,5.6774,5.9013,6.1104,6.2976,6.5228,6.6733,6.7517,6.7517,6.715,6.6476,6.5668,6.5362,6.5472,6.5472,6.5925,6.6733,6.7407,6.77,6.77,6.7847,6.8311,6.8921,6.9178,7.0132,7.1307,7.0746,7.0022,6.9545,6.9617,6.976,6.992,7.0008,7.0287,7.0259,6.9523,6.9141,6.8629,6.7884,6.7336,6.7008,6.6959,6.6982,6.6939,6.683,6.6794,6.6867,6.7026,6.6989,6.7054,6.7097,6.6531,6.5915,6.5223,6.4455,6.3624,6.2793,6.2793,6.278,6.2731,6.1936,6.1484,6.1288,6.053,6.0126,5.9943,5.9269,5.9013,5.8939,5.8253,5.7997,5.7997,5.7997,5.7997,5.7997,5.7997,5.7997,5.8107,5.8792,5.9013,5.9159,5.9967,6.0126,6.0015,6.0015,6.0015,6.0052,6.0199,6.0224,6.026,6.0382,6.0297,6.0224,6.0224,5.9563,5.9013,5.9013,5.7691,5.6381,5.5695,5.4803,5.3995,5.3287,5.3801,5.4252,5.4399,5.6198,5.7483,5.7629,5.8242,5.8866,5.9428,5.7703,5.6895,5.7593,5.6969,5.6664,5.6811,5.8499,6.0848,6.387,6.4971,6.5888,6.6696,6.6696,6.6623,6.6476,6.5668,6.5668,6.6329,6.6329,6.6769,6.7517,6.7664,6.77,6.7774,6.8458,6.8788,6.9068,7.0426,7.1087,7.1417,7.157,7.1019,7.0681,7.0341,7.0356,7.0511,7.0714,7.0897,7.0777,7.0082,6.943,6.8765,6.7969,6.7249,6.6815,6.6903,6.6976,6.7091,6.7261,6.719,6.7168,6.7373,6.7373,6.7414,6.746,6.6746,6.6006,6.5288,6.4494,6.3649,6.2793,6.2793,6.2793,6.2793,6.2389,6.1998,6.1569,6.119,6.0786,6.0382,6.0003,5.96,5.9159,5.8792,5.84,5.7997,5.7997,5.7997,5.7997,5.7997,5.829,5.8719,5.9086,5.949,6.0003,6.0823,6.075,6.0419,6.0419,6.0419,6.0493,6.0933,6.1043,6.1153,6.1582,6.1374,6.1043,6.1043,6.0419,5.971,5.9269,5.8242,5.7189,5.6381,5.5574,5.4924,5.4546,5.5207,5.5868,5.6271,5.7703,5.8829,5.9245,5.9233,5.9343,5.9747,5.8327,5.7593,5.796,5.7666,5.7446,5.7446,5.9428,6.1447,6.3392,6.4664,6.5472,6.5852,6.5852,6.5852,6.5852,6.5472,6.5729,6.6512,6.6512,6.6966,6.77,6.77,6.77,6.7774,6.8605,6.9155,6.9706,7.0866,7.1564,7.2004,7.2362,7.1824,7.1428,7.0972,7.088,7.0979,7.1308,7.134,7.1099,7.048,6.9844,6.9119,6.8111,6.7468,6.7106,6.7005,6.7076,6.7219,6.7414,6.735,6.7378,6.7524,6.7538,6.7579,6.77,6.689,6.6069,6.5249,6.4442,6.3599,6.2755,6.278,6.2793,6.2793,6.2793,6.2462,6.1851,6.1679,6.1337,6.0921,6.0554,6.015,5.9747,5.9563,5.8976,5.829,5.829,5.829,5.829,5.829,5.8792,5.9526,5.971,6.0187,6.086,6.163,6.1447,6.0958,6.0958,6.0958,6.1117,6.1704,6.1887,6.2034,6.2646,6.2328,6.1887,6.1887,6.1227,6.0493,5.9857,5.9098,5.8217,5.7262,5.6565,5.6099,5.5915,5.6565,5.7373,5.818,5.9159,6.0003,6.0639,6.0297,6.004,6.004,5.9281,5.8767,5.8584,5.8364,5.829,5.829,6.0272,6.1814,6.2793,6.4261,6.5105,6.5288,6.5288,6.5398,6.5582,6.5582,6.5925,6.6512,6.6696,6.715,6.77,6.77,6.77,6.7811,6.8788,6.9559,7.022,7.1197,7.1967,7.2496,7.3767,7.2537,7.1488,7.1467,7.1431,7.1447,7.1463,7.1479,7.1225,7.0496,7.0351,6.9735,6.8162,6.8064,6.7804,6.7055,6.7289,6.74,6.7238,6.7524,6.7674,6.7687,6.7687,6.7687,6.77,6.6773,6.5936,6.5118,6.4263,6.3408,6.2616,6.273,6.2793,6.2793,6.2793,6.2756,6.2646,6.1924,6.1998,6.2499,6.0994,6.0823,6.1337,6.0603,5.982,5.9123,5.9123,5.9123,5.9123,5.9123,5.9636,6.0456,6.119,6.1459,6.1667,6.2462,6.2683,6.2609,6.2609,6.2609,6.2646,6.2683,6.2719,6.2719,6.2793,6.2756,6.2719,6.2719,6.2071,6.1496,6.141,6.0786,5.9722,5.8143,5.785,5.7556,5.6811,5.7409,5.8217,5.9013,6.0493,6.1447,6.152,6.2144,6.2536,6.2536,6.1777,6.1006,6.0272,5.9526,5.9123,5.9123,6.0003,6.1215,6.2793,6.3723,6.4567,6.5288,6.5288,6.5692,6.6402,6.6402,6.6439,6.6549,6.7297,6.7664,6.77,6.77,6.77,6.7847,6.9426,7.0036,7.0293,7.1835,7.2459,7.2496,7.2493,7.2327,7.211,7.1603,7.1494,7.1494,7.1494,7.1096,7.0713,7.046,6.9539,6.8669,6.8075,6.768,6.7375,6.7148,6.7359,6.7497,6.7488,6.7552,6.7606,6.77,6.762,6.7345,6.6846,6.5892,6.4971,6.4168,6.3351,6.2806,6.2603,6.2654,6.2717,6.2793,6.2793,6.2793,6.2756,6.1924,6.1777,6.1961,6.086,6.026,6.0077,5.9783,5.949,5.9196,5.9196,5.9526,5.993,5.993,6.0493,6.119,6.1484,6.1924,6.2389,6.2719,6.2793,6.2793,6.2793,6.2793,6.2793,6.2793,6.2793,6.2793,6.2793,6.2793,6.2793,6.2793,6.2572,6.2181,6.1704,6.1337,6.0786,5.9685,5.9501,5.9391,5.9098,5.9722,6.0346,6.0639,6.1667,6.2352,6.2352,6.2181,6.2254,6.2756,6.1582,6.0713,6.0407,5.9636,5.9673,6.0676,6.097,6.1447,6.2034,6.2879,6.3723,6.4567,6.4567,6.5228,6.6512,6.6512,6.6769,6.726,6.759,6.77,6.77,6.77,6.77,6.7811,6.8935,6.9669,7.022,7.1358,7.2078,7.2496,7.1277,7.1386,7.1422,7.0879,7.077,7.077,7.077,7.0351,7.0025,7.0025,6.9083,6.8271,6.8039,6.7651,6.7374,6.7196,6.7428,6.7579,6.7633,6.7497,6.7456,6.7552,6.7456,6.7012,6.6221,6.5296,6.4402,6.36,6.2837,6.25,6.2603,6.2641,6.2705,6.2793,6.2793,6.2793,6.2756,6.1924,6.1606,6.152,6.0713,6.0077,5.96,5.9857,5.9783,5.96,5.9857,6.0297,6.0786,6.0786,6.13,6.1998,6.1998,6.2365,6.2793,6.2793,6.2793,6.2793,6.2793,6.2793,6.2793,6.2793,6.2793,6.2793,6.2793,6.2793,6.2793,6.2793,6.2793,6.2646,6.2071,6.1998,6.1704,6.0896,6.0786,6.0786,6.0786,6.1263,6.1704,6.1961,6.2462,6.2793,6.2793,6.2291,6.2218,6.2756,6.1765,6.1031,6.0786,6.026,6.0456,6.1569,6.1851,6.1998,6.1998,6.2536,6.3343,6.4494,6.4494,6.5301,6.688,6.688,6.7187,6.77,6.77,6.77,6.77,6.77,6.77,6.7774,6.8605,6.9229,6.9853,7.0903,7.1637,7.2151,7.0387,6.9735,6.9192,6.9192,6.9192,6.9192,6.9192,6.9192,6.9192,6.9192,6.9192,6.8866,6.809,6.8211,6.8071,6.7283,6.7488,6.7633,6.752,6.7294,6.721,6.721,6.721,6.6809,6.6021,6.5205,6.4402,6.36,6.2941,6.2603,6.2603,6.273,6.2793,6.2793,6.2793,6.2793,6.2756,6.1924,6.1606,6.152,6.0713,6.0419,6.0493,6.1263,6.108,6.0493,6.13,6.1594,6.1594,6.1606,6.2144,6.2793,6.2793,6.2793,6.2793,6.2793,6.2793,6.2793,6.2793,6.2793,6.2793,6.2793,6.2793,6.2793,6.2793,6.2793,6.2793,6.2793,6.2793,6.2793,6.2793,6.2793,6.2536,6.1741,6.163,6.163,6.163,6.163,6.1924,6.2719,6.2793,6.2793,6.2793,6.2793,6.2793,6.2793,6.2793,6.2426,6.163,6.1606,6.1606,6.1606,6.2389,6.2793,6.2793,6.2793,6.3637,6.5288,6.5288,6.6145,6.77,6.77,6.77,6.77,6.77,6.77,6.7737,6.77,6.77,6.7811,6.8568,6.8885,6.9068,7.0683,7.1307,7.1417,6.8706,6.8974,6.9192,6.9192,6.9192,6.9192,6.9192,6.8721,6.8343,6.8343,6.7873,6.7446,6.7295,6.7447,6.7508,6.74,6.7593,6.7593,6.7294,6.714,6.7033,6.6932,6.7033,6.6436,6.5067,6.4785,6.3985,6.2616,6.2493,6.25,6.2603,6.2641,6.2705,6.2793,6.2793,6.2793,6.2756,6.1924,6.1606,6.152,6.0713,6.004,5.96,5.982,5.9783,5.96,5.982,6.026,6.086,6.141,6.1741,6.2071,6.2609,6.2793,6.2793,6.2793,6.2793,6.2793,6.2793,6.2793,6.2793,6.2793,6.2793,6.2793,6.2793,6.2793,6.2793,6.2793,6.2793,6.2793,6.2793,6.2793,6.2719,6.2462,6.2952,6.3368,6.3368,6.3368,6.3442,6.3686,6.3172,6.2793,6.2793,6.2793,6.2793,6.2793,6.2291,6.2108,6.2426,6.1924,6.1851,6.2426,6.2683,6.3086,6.3723,6.3086,6.3637,6.5288,6.5288,6.6145,6.77,6.77,6.8031,6.8531,6.8531,6.8862,6.9339,6.8752,6.8531,6.8495,6.8164,6.8385,6.8972,6.9435,7.0316,7.1344,6.7547,6.7909,6.825,6.825,6.825,6.825,6.825,6.7836,6.7547,6.7547,6.7156,6.6918,6.7005,6.7168,6.7387,6.747,6.7565,6.7483,6.714,6.704,6.6947,6.6822,6.6874,6.6315,6.5008,6.4793,6.4048,6.2751,6.2608,6.259,6.2679,6.2679,6.2717,6.2793,6.2793,6.2793,6.2756,6.2291,6.1887,6.1557,6.108,6.0187,5.9233,5.9563,5.949,5.9233,5.9563,6.0003,6.0529,6.1337,6.1814,6.2144,6.2646,6.2793,6.2793,6.2793,6.2793,6.2793,6.2793,6.2793,6.2866,6.3246,6.305,6.2793,6.2793,6.305,6.3319,6.3319,6.3563,6.3673,6.3392,6.3319,6.3209,6.2866,6.3233,6.3576,6.3576,6.3576,6.3576,6.3576,6.3123,6.2793,6.2793,6.2793,6.2793,6.2793,6.2365,6.2291,6.2756,6.2352,6.2291,6.2793,6.3123,6.3576,6.4103,6.3906,6.4444,6.5765,6.5765,6.6439,6.77,6.8017,6.8458,6.8921,6.9229,6.9633,7.0036,6.9229,6.8885,6.8811,6.8031,6.7994,6.8458,6.8788,6.9729,7.0866,6.6786,6.6786,6.6786,6.6786,6.6786,6.6786,6.6786,6.6786,6.6786,6.6786,6.6918,6.6983,6.7033,6.7303,6.7483,6.7483,6.7456,6.7317,6.7033,6.7005,6.6932,6.6822,6.6801,6.6475,6.575,6.5199,6.4475,6.3627,6.3143,6.2866,6.2793,6.2793,6.2793,6.2793,6.2793,6.2793,6.2793,6.2793,6.2401,6.1716,6.1716,6.075,5.938,6.0114,5.9857,5.9196,5.993,6.0236,6.0419,6.13,6.2144,6.2793,6.2793,6.2793,6.2793,6.2793,6.2866,6.2903,6.2903,6.2976,6.3196,6.4016,6.3613,6.3013,6.3013,6.3649,6.4213,6.4103,6.4677,6.4971,6.4139,6.3992,6.3759,6.3013,6.2903,6.2939,6.3013,6.2976,6.2903,6.2903,6.2866,6.2793,6.2793,6.2793,6.2793,6.2793,6.2793,6.2793,6.2793,6.2866,6.2903,6.2903,6.3759,6.4249,6.4323,6.5044,6.5765,6.6512,6.6512,6.6916,6.7737,6.8531,6.8935,6.9045,6.9853,7.022,7.0146,6.9339,6.8972,6.8811,6.8031,6.77,6.7811,6.8531,6.9302,7.011,6.6786,6.6786,6.6786,6.6786,6.6786,6.6786,6.6786,6.6786,6.6786,6.6786,6.6918,6.7026,6.7154,6.7373,6.7483,6.7483,6.7261,6.7091,6.6983,6.6903,6.6815,6.6786,6.6903,6.6889,6.6721,6.6078,6.51,6.3758,6.3793,6.3466,6.2793,6.2793,6.2793,6.2793,6.2793,6.2793,6.2793,6.2793,6.2683,6.2536,6.2536,6.1582,6.015,6.0334,5.9501,5.829,5.8474,5.8951,5.9673,6.1117,6.2144,6.2793,6.2793,6.2793,6.2793,6.2793,6.3282,6.3796,6.3796,6.4273,6.4811,6.4995,6.4884,6.4774,6.4774,6.4884,6.4861,6.4249,6.4249,6.409,6.3233,6.3086,6.3233,6.3723,6.3796,6.4053,6.4664,6.4237,6.3796,6.3796,6.3196,6.2793,6.2793,6.2793,6.2793,6.2793,6.2793,6.2793,6.2793,6.3466,6.3796,6.3796,6.4604,6.5338,6.5962,6.6145,6.6329,6.6512,6.6512,6.6916,6.7737,6.8531,6.9229,6.9889,7.0697,7.105,7.0977,7.0183,6.9486,6.8811,6.8031,6.77,6.7737,6.7921,6.8458,6.9376,6.6786,6.6786,6.6786,6.6786,6.6786,6.6786,6.6786,6.6786,6.6786,6.6786,6.699,6.7126,6.7196,6.7456,6.7565,6.752,6.7331,6.7204,6.7097,6.7011,6.7005,6.7005,6.704,6.7126,6.7247,6.6879,6.5961,6.4346,6.4173,6.3649,6.2793,6.2793,6.2793,6.2793,6.2793,6.2793,6.2793,6.2793,6.2793,6.2793,6.2793,6.1838,6.0419,6.0419,5.9391,5.8033,5.8437,5.9343,6.0456,6.13,6.2144,6.2793,6.2793,6.2793,6.2866,6.3319,6.3723,6.4103,6.4103,6.4677,6.5215,6.4824,6.5301,6.5765,6.5398,6.5582,6.5632,6.4824,6.5264,6.5448,6.4224,6.4004,6.4016,6.4103,6.3759,6.3649,6.404,6.3759,6.3466,6.3466,6.3086,6.2793,6.2793,6.2793,6.2793,6.2793,6.2793,6.2976,6.3392,6.3833,6.4286,6.464,6.5448,6.6072,6.6512,6.688,6.7076,6.7076,6.7076,6.7297,6.7737,6.8935,6.9706,7.0146,7.094,7.1307,7.1197,7.0036,6.9302,6.8811,6.8031,6.77,6.77,6.77,6.8471,6.9669,6.6786,6.6786,6.6786,6.6786,6.6786,6.6786,6.6786,6.6786,6.6786,6.6786,6.7011,6.721,6.721,6.746,6.762,6.7497,6.7602,6.7569,6.7407,6.7539,6.7539,6.7393,6.7457,6.7454,6.752,6.7511,6.6778,6.5277,6.4626,6.387,6.3013,6.2866,6.2793,6.2793,6.2793,6.2793,6.2793,6.2793,6.2719,6.2609,6.2756,6.1838,6.0407,6.0566,5.9685,5.851,5.9159,6.0346,6.163,6.1741,6.2254,6.2793,6.2793,6.2793,6.2939,6.3686,6.3992,6.4103,6.4103,6.4677,6.5191,6.464,6.5411,6.6145,6.5618,6.6035,6.6256,6.5472,6.6366,6.6843,6.5375,6.5081,6.4934,6.4383,6.3466,6.2866,6.3013,6.2903,6.2793,6.2793,6.2793,6.2793,6.2793,6.2793,6.2866,6.3013,6.3013,6.3392,6.4237,6.4433,6.4824,6.5472,6.6292,6.6696,6.6696,6.737,6.77,6.77,6.77,6.77,6.7737,6.9229,6.9889,6.9926,7.077,7.1013,7.0793,6.9435,6.8811,6.8641,6.7958,6.77,6.77,6.77,6.8618,7.0,6.6786,6.6786,6.6786,6.6786,6.6786,6.6786,6.6786,6.6786,6.6786,6.6786,6.7011,6.721,6.721,6.74,6.7497,6.7483,6.7994,6.8274,6.8246,6.8902,6.8961,6.8282,6.8396,6.8187,6.752,6.7606,6.722,6.6303,6.5508,6.4714,6.3919,6.316,6.2793,6.2793,6.2793,6.2793,6.2793,6.2793,6.2401,6.1814,6.2499,6.1838,6.0493,6.1153,6.086,6.0089,6.0187,6.0823,6.1716,6.2401,6.2719,6.2793,6.2793,6.2793,6.2829,6.2939,6.3503,6.4103,6.4103,6.4677,6.5435,6.6035,6.5815,6.5618,6.6219,6.6402,6.6256,6.5472,6.5472,6.5338,6.4433,6.4237,6.4457,6.5044,6.382,6.305,6.3796,6.3282,6.2793,6.2793,6.2793,6.2793,6.2793,6.2793,6.3123,6.387,6.3906,6.4273,6.5081,6.5815,6.6219,6.6329,6.71,6.7554,6.7554,6.7664,6.77,6.77,6.77,6.77,6.7737,6.8641,6.9082,6.9119,6.9926,6.9889,6.9215,6.9009,6.8495,6.7847,6.7737,6.77,6.77,6.77,6.8274,6.9082,6.6207,6.6496,6.6677,6.6207,6.6496,6.6786,6.6786,6.6786,6.6786,6.6786,6.6976,6.7111,6.7196,6.7456,6.7606,6.7606,6.8271,6.8668,6.8668,6.9437,6.951,6.8705,6.8761,6.8436,6.7643,6.7674,6.7517,6.7187,6.5925,6.4897,6.4066,6.3196,6.2793,6.2793,6.2328,6.2144,6.2108,6.1655,6.152,6.1643,6.1998,6.1704,6.1117,6.1459,6.108,6.0456,6.0896,6.1594,6.2328,6.2683,6.2793,6.2793,6.2793,6.2793,6.2903,6.3392,6.3796,6.4103,6.4103,6.4677,6.5141,6.4591,6.5228,6.5962,6.5852,6.6512,6.6806,6.5545,6.5655,6.5852,6.5521,6.5081,6.4897,6.5251,6.3894,6.2939,6.3319,6.305,6.2793,6.2793,6.2793,6.2976,6.3466,6.3539,6.387,6.4714,6.4787,6.5118,6.5925,6.6329,6.6696,6.715,6.7517,6.77,6.77,6.77,6.77,6.77,6.77,6.77,6.7737,6.8531,6.8885,6.8921,6.9302,6.9229,6.8848,6.8421,6.776,6.7026,6.7026,6.7026,6.7026,6.7026,6.7834,6.8885]}]]